[[{"header":{"parameterUnit":"m.s-1","parameterCategory":1,"la1":30.6,"la2":28.766,"lo1":-90.7593,"lo2":-88.6598,"dy":0.0162,"dx":0.0183,"nx":116,"ny":114,"refTime":"2023-03-09T18:00:00:Z","depth":0,"parameterNumber":2,"parameterNumberName":"U-component_of_WINDS"},"data":[0.0,0.0,0.0,0.0,0.0,0.0,0.0,0.0,0.0,0.0,0.0,0.0,0.0,0.0,0.0,0.0,0.0,0.0,0.0,0.0,0.0,0.0,0.0,0.0,0.0,0.0,0.0,0.0,0.0,0.0,0.0,0.0,0.0,0.0,0.0,0.0,0.0,0.0,0.0,0.0,0.0,0.0,0.0,0.0,0.0,0.0,0.0,0.0,0.0,0.0,0.0,0.0,0.0,0.0,0.0,0.0,0.0,0.0,0.0,0.0,0.0,0.0,0.0,0.0,0.0,0.0,0.0,0.0,0.0,0.0,0.0,0.0,0.0,0.0,0.0,0.0,0.0,0.0,0.0,0.0,0.0,0.0,0.0,0.0,0.0,0.0,0.0,0.0,0.0,0.0,0.0,0.0,0.0,0.0,0.0,0.0,0.0,0.0,0.0,0.0,0.0,0.0,0.0,0.0,0.0,0.0,0.0,0.0,0.0,0.0,0.0,0.0,0.0,0.0,0.0,0.0,0.0,0.0,0.0,0.0,0.0,0.0,0.0,0.0,0.0,0.0,0.0,0.0,0.0,0.0,0.0,0.0,0.0,0.0,0.0,0.0,0.0,0.0,0.0,0.0,0.0,0.0,0.0,0.0,0.0,0.0,0.0,0.0,0.0,0.0,0.0,0.0,0.0,0.0,0.0,0.0,0.0,0.0,0.0,0.0,0.0,0.0,0.0,0.0,0.0,0.0,0.0,0.0,0.0,0.0,0.0,0.0,0.0,0.0,0.0,0.0,0.0,0.0,0.0,0.0,0.0,0.0,0.0,0.0,0.0,0.0,0.0,0.0,0.0,0.0,0.0,0.0,0.0,0.0,0.0,0.0,0.0,0.0,0.0,0.0,0.0,0.0,0.0,0.0,0.0,0.0,0.0,0.0,0.0,0.0,0.0,0.0,0.0,0.0,0.0,0.0,0.0,0.0,0.0,0.0,0.0,0.0,0.0,0.0,0.0,0.0,0.0,0.0,0.0,0.0,0.0,0.0,0.0,0.0,0.0,0.0,0.0,0.0,0.0,0.0,0.0,0.0,0.0,0.0,0.0,0.0,0.0,0.0,0.0,0.0,0.0,0.0,0.0,0.0,0.0,0.0,0.0,0.0,0.0,0.0,0.0,0.0,0.0,0.0,0.0,0.0,0.0,0.0,0.0,0.0,0.0,0.0,0.0,0.0,0.0,0.0,0.0,0.0,0.0,0.0,0.0,0.0,0.0,0.0,0.0,0.0,0.0,0.0,0.0,0.0,0.0,0.0,0.0,0.0,0.0,0.0,0.0,0.0,0.0,0.0,0.0,0.0,0.0,0.0,0.0,0.0,0.0,0.0,0.0,0.0,0.0,0.0,0.0,0.0,0.0,0.0,0.0,0.0,0.0,0.0,0.0,0.0,0.0,0.0,0.0,0.0,0.0,0.0,0.0,0.0,0.0,0.0,0.0,0.0,0.0,0.0,0.0,0.0,0.0,0.0,0.0,0.0,0.0,0.0,0.0,0.0,0.0,0.0,0.0,0.0,0.0,0.0,0.0,0.0,0.0,0.0,0.0,0.0,0.0,0.0,0.0,0.0,0.0,0.0,0.0,0.0,0.0,0.0,0.0,0.0,0.0,0.0,0.0,0.0,0.0,0.0,0.0,0.0,0.0,0.0,0.0,0.0,0.0,0.0,0.0,0.0,0.0,0.0,0.0,0.0,0.0,0.0,0.0,0.0,0.0,0.0,0.0,0.0,0.0,0.0,0.0,0.0,0.0,0.0,0.0,0.0,0.0,0.0,0.0,0.0,0.0,0.0,0.0,0.0,0.0,0.0,0.0,0.0,0.0,0.0,0.0,0.0,0.0,0.0,0.0,0.0,0.0,0.0,0.0,0.0,0.0,0.0,0.0,0.0,0.0,0.0,0.0,0.0,0.0,0.0,0.0,0.0,0.0,0.0,0.0,0.0,0.0,0.0,0.0,0.0,0.0,0.0,0.0,0.0,0.0,0.0,0.0,0.0,0.0,0.0,0.0,0.0,0.0,0.0,0.0,0.0,0.0,0.0,0.0,0.0,0.0,0.0,0.0,0.0,0.0,0.0,0.0,0.0,0.0,0.0,0.0,0.0,0.0,0.0,0.0,0.0,0.0,0.0,0.0,0.0,0.0,0.0,0.0,0.0,0.0,0.0,0.0,0.0,0.0,0.0,0.0,0.0,0.0,0.0,0.0,0.0,0.0,0.0,0.0,0.0,0.0,0.0,0.0,0.0,0.0,0.0,0.0,0.0,0.0,0.0,0.0,0.0,0.0,0.0,0.0,0.0,0.0,0.0,0.0,0.0,0.0,0.0,0.0,0.0,0.0,0.0,0.0,0.0,0.0,0.0,0.0,0.0,0.0,0.0,0.0,0.0,0.0,0.0,0.0,0.0,0.0,0.0,0.0,0.0,0.0,0.0,0.0,0.0,0.0,0.0,0.0,0.0,0.0,0.0,0.0,0.0,0.0,0.0,0.0,0.0,0.0,0.0,0.0,0.0,0.0,0.0,0.0,0.0,0.0,0.0,0.0,0.0,0.0,0.0,0.0,0.0,0.0,0.0,0.0,0.0,0.0,0.0,0.0,0.0,0.0,0.0,0.0,0.0,0.0,0.0,0.0,0.0,0.0,0.0,0.0,0.0,0.0,0.0,0.0,0.0,0.0,0.0,0.0,0.0,0.0,0.0,0.0,0.0,0.0,0.0,0.0,0.0,0.0,0.0,0.0,0.0,0.0,0.0,0.0,0.0,0.0,0.0,0.0,0.0,0.0,0.0,0.0,0.0,0.0,0.0,0.0,0.0,0.0,0.0,0.0,0.0,0.0,0.0,0.0,0.0,0.0,0.0,0.0,0.0,0.0,0.0,0.0,0.0,0.0,0.0,0.0,0.0,0.0,0.0,0.0,0.0,0.0,0.0,0.0,0.0,0.0,0.0,0.0,0.0,0.0,0.0,0.0,0.0,0.0,0.0,0.0,0.0,0.0,0.0,0.0,0.0,0.0,0.0,0.0,0.0,0.0,0.0,0.0,0.0,0.0,0.0,0.0,0.0,0.0,0.0,0.0,0.0,0.0,0.0,0.0,0.0,0.0,0.0,0.0,0.0,0.0,0.0,0.0,0.0,0.0,0.0,0.0,0.0,0.0,0.0,0.0,0.0,0.0,0.0,0.0,0.0,0.0,0.0,0.0,0.0,0.0,0.0,0.0,0.0,0.0,0.0,0.0,0.0,0.0,0.0,0.0,0.0,0.0,0.0,0.0,0.0,0.0,0.0,0.0,0.0,0.0,0.0,0.0,0.0,0.0,0.0,0.0,0.0,0.0,0.0,0.0,0.0,0.0,0.0,0.0,0.0,0.0,0.0,0.0,0.0,0.0,0.0,0.0,0.0,0.0,0.0,0.0,0.0,0.0,0.0,0.0,0.0,0.0,0.0,0.0,0.0,0.0,0.0,0.0,0.0,0.0,0.0,0.0,0.0,0.0,0.0,0.0,0.0,0.0,0.0,0.0,0.0,0.0,0.0,0.0,0.0,0.0,0.0,0.0,0.0,0.0,0.0,0.0,0.0,0.0,0.0,0.0,0.0,0.0,0.0,0.0,0.0,0.0,0.0,0.0,0.0,0.0,0.0,0.0,0.0,0.0,0.0,0.0,0.0,0.0,0.0,0.0,0.0,0.0,0.0,0.0,0.0,0.0,0.0,0.0,0.0,0.0,0.0,0.0,0.0,0.0,0.0,0.0,0.0,0.0,0.0,0.0,0.0,0.0,0.0,0.0,0.0,0.0,0.0,0.0,0.0,0.0,0.0,0.0,0.0,0.0,0.0,0.0,0.0,0.0,0.0,0.0,0.0,0.0,0.0,0.0,0.0,0.0,0.0,0.0,0.0,0.0,0.0,0.0,0.0,0.0,0.0,0.0,0.0,0.0,0.0,0.0,0.0,0.0,0.0,0.0,0.0,0.0,0.0,0.0,0.0,0.0,0.0,0.0,0.0,0.0,0.0,0.0,0.0,0.0,0.0,0.0,0.0,0.0,0.0,0.0,0.0,0.0,0.0,0.0,0.0,0.0,0.0,0.0,0.0,0.0,0.0,0.0,0.0,0.0,0.0,0.0,0.0,0.0,0.0,0.0,0.0,0.0,0.0,0.0,0.0,0.0,0.0,0.0,0.0,0.0,0.0,0.0,0.0,0.0,0.0,0.0,0.0,0.0,0.0,0.0,0.0,0.0,0.0,0.0,0.0,0.0,0.0,0.0,0.0,0.0,0.0,0.0,0.0,0.0,0.0,0.0,0.0,0.0,0.0,0.0,0.0,0.0,0.0,0.0,0.0,0.0,0.0,0.0,0.0,0.0,0.0,0.0,0.0,0.0,0.0,0.0,0.0,0.0,0.0,0.0,0.0,0.0,0.0,0.0,0.0,0.0,0.0,0.0,0.0,0.0,0.0,0.0,0.0,0.0,0.0,0.0,0.0,0.0,0.0,0.0,0.0,0.0,0.0,0.0,0.0,0.0,0.0,0.0,0.0,0.0,0.0,0.0,0.0,0.0,0.0,0.0,0.0,0.0,0.0,0.0,0.0,0.0,0.0,0.0,0.0,0.0,0.0,0.0,0.0,0.0,0.0,0.0,0.0,0.0,0.0,0.0,0.0,0.0,0.0,0.0,0.0,0.0,0.0,0.0,0.0,0.0,0.0,0.0,0.0,0.0,0.0,0.0,0.0,0.0,0.0,0.0,0.0,0.0,0.0,0.0,0.0,0.0,0.0,0.0,0.0,0.0,0.0,0.0,0.0,0.0,0.0,0.0,0.0,0.0,0.0,0.0,0.0,0.0,0.0,0.0,0.0,0.0,0.0,0.0,0.0,0.0,0.0,0.0,0.0,0.0,0.0,0.0,0.0,0.0,0.0,0.0,0.0,0.0,0.0,0.0,0.0,0.0,0.0,0.0,0.0,0.0,0.0,0.0,0.0,0.0,0.0,0.0,0.0,0.0,0.0,0.0,0.0,0.0,0.0,0.0,0.0,0.0,0.0,0.0,0.0,0.0,0.0,0.0,0.0,0.0,0.0,0.0,0.0,0.0,0.0,0.0,0.0,0.0,0.0,0.0,0.0,0.0,0.0,0.0,0.0,0.0,0.0,0.0,0.0,0.0,0.0,0.0,0.0,0.0,0.0,0.0,0.0,0.0,0.0,0.0,0.0,0.0,0.0,0.0,0.0,0.0,0.0,0.0,0.0,0.0,0.0,0.0,0.0,0.0,0.0,0.0,0.0,0.0,0.0,0.0,0.0,0.0,0.0,0.0,0.0,0.0,0.0,0.0,0.0,0.0,0.0,0.0,0.0,0.0,0.0,0.0,0.0,0.0,0.0,0.0,0.0,0.0,0.0,0.0,0.0,0.0,0.0,0.0,0.0,0.0,0.0,0.0,0.0,0.0,0.0,0.0,0.0,0.0,0.0,0.0,0.0,0.0,0.0,0.0,0.0,0.0,0.0,0.0,0.0,0.0,0.0,0.0,0.0,0.0,0.0,0.0,0.0,0.0,0.0,0.0,0.0,0.0,0.0,0.0,0.0,0.0,0.0,0.0,0.0,0.0,0.0,0.0,0.0,0.0,0.0,0.0,0.0,0.0,0.0,0.0,0.0,0.0,0.0,0.0,0.0,0.0,0.0,0.0,0.0,0.0,0.0,0.0,0.0,0.0,0.0,0.0,0.0,0.0,0.0,0.0,0.0,0.0,0.0,0.0,0.0,0.0,0.0,0.0,0.0,0.0,0.0,0.0,0.0,0.0,0.0,0.0,0.0,0.0,0.0,0.0,0.0,0.0,0.0,0.0,0.0,0.0,0.0,0.0,0.0,0.0,0.0,0.0,0.0,0.0,0.0,0.0,0.0,0.0,0.0,0.0,0.0,0.0,0.0,0.0,0.0,0.0,0.0,0.0,0.0,0.0,0.0,0.0,0.0,0.0,0.0,0.0,0.0,0.0,0.0,0.0,0.0,0.0,0.0,0.0,0.0,0.0,0.0,0.0,0.0,0.0,0.0,0.0,0.0,0.0,0.0,0.0,0.0,0.0,0.0,4.6112,0.0,0.0,0.0,0.0,0.0,0.0,0.0,0.0,0.0,0.0,0.0,0.0,0.0,0.0,0.0,0.0,0.0,0.0,0.0,0.0,0.0,0.0,0.0,0.0,0.0,0.0,0.0,0.0,0.0,0.0,0.0,0.0,0.0,0.0,0.0,0.0,0.0,0.0,0.0,0.0,0.0,0.0,0.0,0.0,0.0,0.0,0.0,0.0,0.0,0.0,0.0,0.0,0.0,0.0,0.0,0.0,0.0,0.0,0.0,0.0,0.0,0.0,0.0,0.0,0.0,0.0,0.0,0.0,0.0,0.0,0.0,0.0,0.0,0.0,0.0,0.0,0.0,0.0,0.0,0.0,0.0,0.0,0.0,0.0,0.0,0.0,0.0,0.0,0.0,0.0,0.0,0.0,0.0,0.0,0.0,0.0,0.0,0.0,0.0,0.0,0.0,0.0,0.0,0.0,0.0,0.0,0.0,0.0,0.0,0.0,0.0,0.0,0.0,0.0,0.0,0.0,4.6834,0.0,0.0,0.0,0.0,0.0,0.0,0.0,0.0,0.0,0.0,0.0,0.0,0.0,0.0,0.0,0.0,0.0,0.0,0.0,0.0,0.0,0.0,0.0,0.0,0.0,0.0,0.0,0.0,0.0,0.0,0.0,0.0,0.0,0.0,0.0,0.0,0.0,0.0,0.0,0.0,0.0,0.0,0.0,0.0,0.0,0.0,0.0,0.0,0.0,0.0,0.0,0.0,0.0,0.0,0.0,0.0,0.0,0.0,0.0,0.0,0.0,0.0,0.0,0.0,0.0,0.0,0.0,0.0,0.0,0.0,0.0,0.0,0.0,0.0,0.0,0.0,0.0,0.0,0.0,0.0,0.0,0.0,0.0,0.0,0.0,0.0,0.0,0.0,0.0,0.0,0.0,0.0,0.0,0.0,0.0,0.0,0.0,0.0,0.0,0.0,0.0,0.0,0.0,0.0,0.0,0.0,0.0,0.0,4.8295,4.8354,4.826,4.8489,4.8582,4.8634,4.86,4.8089,4.7284,4.7143,0.0,0.0,0.0,0.0,0.0,0.0,0.0,0.0,0.0,0.0,0.0,0.0,0.0,0.0,0.0,0.0,0.0,0.0,0.0,0.0,0.0,0.0,0.0,0.0,0.0,0.0,0.0,0.0,0.0,0.0,0.0,0.0,0.0,0.0,0.0,0.0,0.0,0.0,4.227,4.2197,4.2033,4.177,4.177,0.0,0.0,0.0,0.0,0.0,0.0,0.0,0.0,0.0,0.0,0.0,0.0,0.0,0.0,0.0,0.0,0.0,0.0,0.0,0.0,0.0,0.0,0.0,0.0,0.0,0.0,0.0,0.0,0.0,0.0,0.0,0.0,0.0,0.0,0.0,0.0,0.0,0.0,0.0,0.0,0.0,0.0,0.0,4.623,4.5569,0.0,0.0,0.0,0.0,0.0,0.0,0.0,0.0,0.0,0.0,0.0,0.0,0.0,4.8204,4.8062,4.8294,4.8338,4.8176,4.8837,4.9202,4.9294,4.9792,5.0141,5.0349,5.024,0.0,4.8012,4.7347,0.0,0.0,0.0,0.0,0.0,0.0,0.0,0.0,0.0,0.0,0.0,0.0,0.0,0.0,0.0,0.0,0.0,0.0,0.0,0.0,0.0,0.0,0.0,0.0,0.0,0.0,0.0,0.0,0.0,0.0,0.0,0.0,0.0,0.0,0.0,0.0,4.2115,4.2762,4.3592,4.3514,4.3461,4.3407,4.3407,4.2693,4.1454,4.1004,0.0,0.0,0.0,0.0,0.0,0.0,0.0,0.0,0.0,0.0,0.0,0.0,0.0,0.0,0.0,0.0,0.0,0.0,0.0,0.0,0.0,0.0,0.0,0.0,0.0,0.0,0.0,0.0,0.0,0.0,0.0,0.0,0.0,0.0,0.0,0.0,0.0,0.0,0.0,4.487,4.5763,4.5375,4.5647,4.5763,0.0,0.0,0.0,0.0,0.0,0.0,0.0,0.0,0.0,4.8017,4.8871,4.9287,4.9239,4.9639,4.9784,4.9599,4.9836,4.9987,4.9967,5.0199,5.0374,5.0486,5.0486,5.0105,4.9452,4.8825,4.8321,4.792,0.0,0.0,0.0,0.0,4.7784,4.8144,0.0,0.0,0.0,0.0,0.0,0.0,0.0,0.0,0.0,0.0,0.0,0.0,0.0,0.0,0.0,3.8935,0.0,0.0,0.0,0.0,0.0,0.0,0.0,0.0,0.0,0.0,0.0,0.0,4.3718,4.403,4.4659,4.4777,4.4834,4.4834,4.5059,4.4083,4.228,4.168,4.1304,0.0,0.0,0.0,0.0,0.0,0.0,0.0,0.0,0.0,0.0,0.0,0.0,0.0,0.0,0.0,0.0,0.0,0.0,0.0,0.0,0.0,0.0,0.0,0.0,0.0,0.0,0.0,0.0,0.0,0.0,0.0,0.0,0.0,0.0,0.0,0.0,0.0,0.0,4.5258,4.5958,4.5491,4.5647,4.5919,0.0,0.0,0.0,0.0,0.0,0.0,4.7628,4.8444,4.891,4.891,4.9765,5.0219,5.0195,5.0671,5.0819,5.0642,5.0527,5.0402,5.0352,5.0306,5.0444,5.0725,5.0811,5.0988,5.1164,5.014,4.9497,4.9186,4.9015,4.9066,4.926,4.926,4.9687,5.0153,0.0,0.0,0.0,0.0,0.0,0.0,0.0,0.0,0.0,0.0,0.0,0.0,0.0,0.0,3.8935,3.9011,4.0501,4.0731,0.0,0.0,0.0,0.0,0.0,0.0,0.0,0.0,0.0,4.3429,4.4348,4.4726,4.4533,4.5284,4.5622,4.5697,4.6486,4.551,4.3219,4.3182,4.2693,4.1841,0.0,0.0,0.0,0.0,0.0,0.0,0.0,0.0,0.0,0.0,0.0,0.0,0.0,0.0,0.0,0.0,0.0,0.0,0.0,0.0,0.0,0.0,0.0,0.0,0.0,0.0,0.0,0.0,0.0,0.0,0.0,0.0,0.0,0.0,0.0,0.0,0.0,0.0,0.0,4.7356,4.79,0.0,0.0,0.0,0.0,4.8405,4.8522,4.8522,4.8522,4.9337,4.9843,4.9843,5.0697,5.1076,5.0942,5.0781,5.0642,5.0507,5.0374,5.0374,5.0486,5.0352,5.0883,5.1894,5.1798,5.2279,5.2993,5.0674,5.0153,5.0787,5.0118,5.0348,5.1086,5.1086,5.1086,5.1125,0.0,0.0,0.0,0.0,0.0,0.0,0.0,0.0,0.0,0.0,0.0,0.0,0.0,3.7962,3.924,3.9814,4.0845,4.1227,4.0654,0.0,0.0,0.0,0.0,0.0,0.0,0.0,4.3681,4.4469,4.5104,4.5386,4.5423,4.6177,4.6561,4.6561,4.6861,4.6523,4.566,4.5097,4.4684,4.4308,4.352,4.2881,0.0,0.0,0.0,0.0,0.0,0.0,0.0,0.0,0.0,0.0,0.0,0.0,0.0,0.0,0.0,0.0,0.0,0.0,0.0,0.0,0.0,0.0,0.0,0.0,0.0,0.0,0.0,0.0,0.0,0.0,0.0,0.0,0.0,0.0,0.0,0.0,0.0,4.8211,4.891,0.0,4.8211,4.8133,4.8289,4.8561,4.9104,4.9454,4.9454,5.027,5.0736,5.0736,5.1047,5.1153,5.1005,5.1424,5.1563,5.1352,5.1826,5.2027,5.1982,5.1911,5.2112,5.2494,5.256,5.2794,5.3049,5.2316,5.2227,5.2608,5.2408,5.2523,5.2795,5.2795,5.2795,5.2795,0.0,0.0,0.0,0.0,0.0,0.0,0.0,0.0,0.0,0.0,0.0,3.6843,3.7274,3.8591,3.9775,4.0616,4.1457,4.18,4.1533,0.0,0.0,0.0,0.0,0.0,0.0,4.3808,4.4554,4.5366,4.5972,4.6252,4.629,4.707,4.7387,4.7425,4.7725,4.7838,4.78,4.7237,4.6674,4.6073,4.5247,4.4421,4.367,0.0,0.0,0.0,0.0,0.0,0.0,0.0,0.0,0.0,0.0,0.0,0.0,0.0,0.0,0.0,0.0,0.0,0.0,0.0,0.0,0.0,0.0,0.0,0.0,0.0,0.0,0.0,0.0,0.0,0.0,0.0,0.0,0.0,0.0,4.8289,4.891,4.8638,4.9376,4.9648,4.9104,4.9027,4.9143,4.9454,4.9998,5.0348,5.0348,5.1125,5.1591,5.1591,5.1865,5.1928,5.1857,5.2266,5.2396,5.2197,5.2708,5.2886,5.2805,5.2805,5.2957,5.3225,5.3307,5.3545,5.3836,5.401,5.413,5.4203,5.4125,5.4285,5.4582,5.4582,5.4582,5.4582,0.0,0.0,0.0,0.0,0.0,0.0,0.0,0.0,0.0,0.0,3.6958,3.7813,3.8878,3.9814,4.0654,4.1457,4.2335,4.2488,4.1609,4.2335,0.0,0.0,0.0,0.0,4.3808,4.4832,4.5521,4.5919,4.6921,4.7294,4.7049,4.7838,4.8251,4.8288,4.9114,4.949,4.949,4.949,4.8551,4.7012,4.6148,4.5359,4.4533,0.0,0.0,0.0,0.0,0.0,0.0,0.0,0.0,0.0,0.0,0.0,0.0,0.0,0.0,0.0,0.0,0.0,0.0,0.0,0.0,0.0,0.0,0.0,0.0,0.0,0.0,0.0,0.0,0.0,0.0,0.0,0.0,0.0,4.7395,4.8832,4.9609,4.8794,4.9415,4.992,4.992,4.992,5.027,5.1125,5.1241,5.1241,5.1241,5.2018,5.2445,5.2445,5.3117,5.3507,5.3468,5.3186,5.302,5.302,5.2939,5.2881,5.2881,5.2881,5.3339,5.418,5.4142,5.4639,5.5441,5.5523,5.5615,5.5544,5.5049,5.5419,5.6291,5.6291,5.6291,5.6291,0.0,0.0,0.0,0.0,0.0,0.0,0.0,0.0,0.0,0.0,3.7015,3.7928,3.8878,4.031,4.1495,4.2374,4.3214,4.3558,4.3329,0.0,0.0,0.0,0.0,0.0,4.4722,4.5513,4.6301,4.7137,4.7682,4.7984,4.8051,4.8799,4.9152,4.9152,4.9377,4.949,4.949,4.949,4.9227,4.8776,4.8551,4.795,4.7162,0.0,0.0,0.0,0.0,0.0,0.0,0.0,0.0,0.0,0.0,0.0,0.0,0.0,0.0,0.0,0.0,0.0,0.0,0.0,0.0,0.0,0.0,0.0,0.0,0.0,0.0,0.0,0.0,0.0,0.0,0.0,4.8755,4.9182,4.9182,4.9609,5.0037,5.0425,5.0697,5.0853,5.0853,5.0853,5.093,5.1163,5.1746,5.2057,5.2057,5.2873,5.3339,5.3339,5.3427,5.3436,5.3335,5.3741,5.3874,5.3795,5.4396,5.4677,5.4677,5.4677,5.5135,5.5861,5.5288,5.5517,5.6205,5.5683,5.5499,5.5621,5.5668,5.5823,5.6102,5.6265,5.6291,5.6291,0.0,0.0,0.0,0.0,0.0,0.0,0.0,0.0,0.0,0.0,3.7262,3.8023,3.9413,4.0692,4.1839,4.2717,4.3252,4.352,4.352,0.0,0.0,0.0,0.0,4.487,4.5597,4.6668,4.7454,4.7934,4.8523,4.8859,4.8859,4.9295,4.949,4.949,4.949,4.949,4.949,4.949,4.949,4.949,4.949,4.8964,4.8176,4.8176,4.7387,4.6223,4.6346,4.6073,4.5612,4.5369,0.0,0.0,0.0,0.0,0.0,0.0,0.0,0.0,0.0,0.0,0.0,0.0,0.0,0.0,0.0,0.0,0.0,0.0,0.0,0.0,0.0,0.0,0.0,0.0,4.9571,5.0037,5.0386,5.0425,5.0619,5.1125,5.1202,5.1202,5.1202,5.1513,5.1707,5.1707,5.2484,5.295,5.295,5.3766,5.4232,5.4232,5.439,5.4607,5.4901,5.5154,5.5389,5.5708,5.6205,5.6434,5.6434,5.6434,5.6702,5.7122,5.6664,5.6702,5.7122,5.6625,5.6512,0.0,0.0,0.0,0.0,0.0,5.6835,5.6874,0.0,0.0,0.0,0.0,0.0,0.0,0.0,0.0,0.0,0.0,0.0,3.8175,4.0215,4.1151,4.1991,4.287,4.2947,4.2908,0.0,0.0,0.0,4.392,4.4913,4.5748,4.6411,4.7946,4.8719,4.8589,4.9315,4.9642,4.949,4.949,4.949,4.949,4.949,4.949,4.949,4.949,4.949,4.949,4.949,4.9039,4.8363,4.8363,4.7913,4.7274,4.7274,4.7274,4.7304,4.7462,0.0,0.0,0.0,0.0,0.0,0.0,0.0,0.0,0.0,0.0,0.0,0.0,0.0,0.0,0.0,0.0,0.0,0.0,0.0,0.0,0.0,0.0,0.0,0.0,5.0037,5.0348,5.1202,5.1358,5.1319,5.1202,5.128,5.1358,5.1358,5.2057,5.2562,5.2562,5.3339,5.3844,5.3844,5.4776,0.0,0.0,0.0,5.6445,5.7215,5.6904,5.7122,5.7886,5.7886,5.7886,5.7886,5.7886,5.7963,5.8039,5.7925,5.7963,5.8039,5.7925,5.7913,5.7786,5.6452,5.6078,5.6404,5.7377,5.7729,5.7845,0.0,0.0,0.0,0.0,0.0,0.0,0.0,0.0,0.0,3.7357,3.7585,3.8518,4.0998,4.203,4.287,4.3711,4.3787,4.3482,0.0,0.0,4.3632,4.3852,4.5316,4.6496,4.731,4.8071,4.8861,4.9625,4.9558,4.9521,4.949,4.949,4.949,4.949,4.949,4.949,4.949,4.949,4.949,4.949,4.949,4.9415,4.9265,4.9265,4.9152,4.9039,4.9039,4.9039,4.892,4.8381,4.8351,4.841,4.7745,4.7223,0.0,0.0,0.0,0.0,0.0,0.0,0.0,0.0,0.0,0.0,0.0,0.0,0.0,0.0,0.0,0.0,0.0,0.0,0.0,5.0814,5.0969,5.1241,5.2057,5.2173,5.194,5.128,5.1785,5.2173,5.2173,5.295,5.3455,5.3455,5.4271,5.4737,5.4737,5.6253,5.7028,5.6846,5.7544,5.7888,5.7889,5.7749,5.7734,5.7886,0.0,0.0,5.7886,5.7886,5.8268,5.8842,5.8192,5.8268,5.8842,5.8154,5.7953,5.805,5.7923,5.795,5.8131,5.8464,5.8583,5.8583,0.0,0.0,0.0,0.0,0.0,0.0,0.0,0.0,0.0,0.0,3.6994,3.7794,4.0005,4.1036,4.1877,4.2679,4.3138,0.0,0.0,4.3558,4.4319,4.5115,4.6374,4.7395,4.8186,4.8818,4.9353,4.9807,4.9612,4.949,4.949,4.949,4.949,4.949,4.949,4.949,4.949,4.949,4.949,4.949,4.949,4.949,4.949,4.949,4.949,4.949,4.949,4.949,4.9446,4.923,4.9276,4.9358,4.8733,4.8394,4.8034,0.0,0.0,0.0,0.0,0.0,0.0,0.0,0.0,0.0,0.0,0.0,0.0,0.0,0.0,5.0037,5.0464,0.0,5.0814,5.1668,5.1785,5.2096,5.2912,5.3028,5.2912,5.2484,5.2795,5.3028,5.3028,5.3844,5.4349,5.4349,5.5553,5.6291,5.6291,5.7496,5.8101,5.7976,5.822,5.8522,5.8765,5.8604,5.8727,5.9147,5.9147,5.9147,5.9147,5.9147,5.9376,5.972,5.9338,5.9376,5.972,5.93,5.9243,5.9365,5.9584,5.9205,5.8651,5.9241,5.9438,5.9516,0.0,0.0,0.0,0.0,0.0,0.0,0.0,0.0,0.0,0.0,3.6403,3.7089,3.9031,3.989,4.0616,0.0,0.0,0.0,0.0,4.3711,4.4934,4.6424,4.7319,4.8113,4.8819,4.9542,4.9862,4.975,4.9612,4.9521,4.949,4.949,4.949,4.949,4.949,4.949,4.949,4.949,4.949,4.949,4.949,4.949,4.949,4.949,4.949,4.949,4.949,4.9377,4.9295,4.9674,4.9808,4.9768,4.9537,4.9452,4.9174,4.7802,4.7897,0.0,0.0,0.0,0.0,0.0,0.0,0.0,0.0,4.9532,5.0153,5.0153,5.0697,5.1241,5.1396,5.1435,5.1707,5.2523,5.264,5.295,5.3844,5.396,5.3999,5.4194,5.4038,5.396,5.396,5.4893,5.5514,5.5514,5.6952,5.7806,5.7806,5.8622,5.8978,5.8776,5.8858,5.9117,5.9574,5.942,5.972,6.0408,6.0408,6.0408,6.0408,6.0408,6.0408,6.0408,6.0408,6.0408,6.0408,6.0408,6.0494,6.0681,6.0839,6.0191,5.9242,6.007,6.0332,6.0448,0.0,0.0,0.0,0.0,0.0,0.0,0.0,0.0,0.0,0.0,0.0,0.0,0.0,0.0,0.0,0.0,0.0,0.0,4.2832,4.4284,4.5545,4.6462,4.7228,4.8067,4.9037,4.9594,4.9879,4.9852,4.975,4.9642,4.949,4.949,4.949,4.949,4.949,4.949,4.949,4.949,4.949,4.949,4.949,4.949,4.949,4.949,4.949,4.949,4.949,4.9002,4.8476,4.9258,4.9183,4.8897,4.973,4.9652,4.9221,4.9195,4.881,4.8372,4.8294,4.8412,4.8599,4.8599,4.9182,4.9765,0.0,5.0425,5.1047,5.1047,5.1125,5.1435,5.2135,5.2251,5.2562,5.3417,5.3533,5.3844,5.4737,5.4854,5.5126,5.5903,5.532,5.4854,5.4854,5.633,5.7301,5.7301,5.8156,5.8661,5.8661,5.9477,5.9801,5.9474,6.0246,6.0496,6.0311,6.0283,6.0293,6.0408,6.0408,6.0408,6.0408,6.0408,6.0408,6.0408,6.0408,6.0408,6.0408,6.0408,6.0572,6.086,6.0882,6.0982,6.1094,6.1211,6.1264,6.1264,0.0,0.0,0.0,0.0,0.0,0.0,0.0,0.0,0.0,0.0,0.0,0.0,0.0,0.0,0.0,0.0,0.0,0.0,4.2832,4.436,4.566,4.6462,4.7296,4.8181,4.9175,4.967,4.9959,5.0025,4.975,4.9551,4.949,4.949,4.949,4.949,4.949,4.949,4.949,4.949,4.949,4.949,4.949,4.949,4.949,4.949,4.949,4.9415,4.8927,4.8852,0.0,0.0,4.9143,4.9567,5.0068,5.0159,4.9987,4.9599,4.9611,4.9737,4.9737,4.948,4.9382,4.9873,5.0351,5.0658,5.0658,5.1319,5.1901,5.1901,5.229,5.2756,5.3106,5.3145,5.3455,5.431,5.4465,5.4776,5.5631,5.5747,5.5903,5.6253,5.6447,5.6524,5.6524,5.7185,5.7768,5.8273,5.9088,5.9555,5.9555,6.037,6.0693,6.0362,6.0689,6.0766,6.037,6.0408,6.0408,6.0408,6.0408,6.0408,6.0408,6.0408,6.0408,6.0408,6.0408,6.0408,6.0408,6.0408,6.052,6.075,6.0839,6.1022,6.1252,6.1352,6.1419,6.1419,0.0,0.0,0.0,0.0,0.0,0.0,0.0,0.0,0.0,0.0,0.0,0.0,0.0,0.0,0.0,0.0,0.0,0.0,0.0,4.4131,4.5392,4.6462,4.7341,4.8247,4.9217,4.9778,5.01,5.0174,4.9895,4.9683,4.9574,4.9574,4.9544,4.949,4.949,4.949,4.949,4.949,4.949,4.949,4.949,4.949,4.949,4.949,4.934,4.9039,4.8438,4.8589,0.0,0.0,4.8899,4.9657,5.0059,5.032,5.0355,4.9586,4.9643,5.0044,5.031,5.0008,4.9853,5.0773,5.1217,5.1476,5.1501,5.2173,5.2756,5.2756,5.3261,5.3766,5.3999,5.4038,5.4349,5.5204,5.5359,5.5592,5.6214,5.6291,5.6369,5.6641,5.7224,5.7768,5.8234,5.8273,5.8545,5.9127,5.9982,6.0448,6.0448,6.107,6.1259,6.0902,6.0882,6.0766,6.037,6.0408,6.0408,6.0408,6.0408,6.0408,6.0408,6.0408,6.0408,6.0408,6.0408,6.0408,6.0408,6.0408,6.0468,6.0633,6.0817,6.0983,6.1131,6.1337,6.1419,6.1419,0.0,0.0,0.0,0.0,0.0,0.0,0.0,0.0,0.0,0.0,0.0,0.0,0.0,0.0,0.0,0.0,0.0,0.0,0.0,4.3596,4.4781,4.6424,4.7341,4.822,4.9083,5.0019,5.0402,5.0283,5.0402,5.023,4.9803,4.9803,4.9674,4.949,4.949,4.949,4.949,4.949,4.949,4.949,4.949,4.949,4.949,4.949,4.8964,4.8251,4.8213,0.0,0.0,0.0,4.8243,4.8453,4.9559,4.9906,4.9834,4.9281,4.8639,4.8298,4.9273,4.9517,4.9743,5.0743,5.1601,5.2211,5.2343,5.3028,5.365,5.365,5.3689,5.396,5.4815,5.4971,5.5242,5.6136,5.6253,5.6253,5.6291,5.6291,5.6602,5.7457,5.7573,5.8234,5.9865,6.0021,6.0021,6.006,6.0875,6.1381,6.1381,6.1381,6.1259,6.0902,6.0882,6.0766,6.037,6.0408,6.0408,6.0408,6.0408,6.0408,6.0408,6.0408,6.0408,6.0408,6.0408,6.0408,6.0408,6.0408,6.0468,6.0633,6.0817,6.0983,6.1131,6.1337,6.1419,6.1419,0.0,0.0,0.0,0.0,0.0,0.0,0.0,0.0,0.0,0.0,0.0,0.0,0.0,0.0,0.0,0.0,4.1036,4.1609,4.1915,4.3252,4.4246,4.4819,4.6729,4.7958,4.8353,4.9602,5.0291,5.0448,5.0252,5.0062,4.9884,4.983,4.9674,4.949,4.949,4.949,4.949,4.949,4.949,4.949,4.949,4.949,4.9452,4.8852,4.8438,4.8063,0.0,0.0,0.0,4.7575,4.8198,4.9286,4.9749,4.958,4.9074,4.8442,4.8073,4.806,4.9005,4.9278,4.9721,5.1145,5.1815,5.2232,5.2862,5.3636,5.4249,5.4381,5.4435,5.4541,5.4919,5.5009,5.5087,5.5398,5.5903,5.6291,5.6291,5.6291,5.6602,5.7496,5.8078,5.8855,5.9982,6.0099,6.0332,6.0914,6.1225,6.1419,6.1419,6.1268,6.1095,6.0902,6.0773,6.0584,6.0408,6.0408,6.0408,6.0408,6.0408,6.0408,6.0408,6.0943,6.1211,6.1211,6.1822,6.2051,6.2051,6.2051,6.208,6.2153,6.2467,6.2583,6.2665,6.3014,6.3129,6.2973,0.0,0.0,0.0,0.0,0.0,0.0,0.0,0.0,0.0,0.0,0.0,0.0,0.0,0.0,0.0,0.0,0.0,4.1189,4.1495,0.0,4.3252,4.3558,4.5698,4.6946,4.7011,4.857,4.9395,4.9565,4.9663,4.9678,4.9556,4.9835,4.9857,4.9741,4.9625,4.9634,4.9604,4.9551,4.9302,4.9039,4.9039,4.8852,4.8551,4.7988,4.7575,0.0,0.0,0.0,0.0,4.7087,4.8219,4.9721,4.9852,4.9214,4.8372,4.793,4.757,4.7646,4.9137,4.9609,5.0078,5.1792,5.2549,5.2974,5.3591,5.4381,5.4997,5.5144,5.4929,5.4768,5.489,5.4685,5.4466,5.4543,5.5281,5.5825,5.5825,5.6369,5.7068,5.7923,5.8778,5.9593,6.0487,6.0565,6.0798,6.1381,6.1419,6.1419,6.1419,6.122,6.1059,6.0902,6.0704,6.0546,6.0408,6.0408,6.0408,6.0408,6.0676,6.0828,6.0867,6.1707,6.2051,6.2089,6.2662,6.2892,6.2892,6.2892,6.2892,6.2921,6.3291,6.3389,6.3433,6.3851,6.3983,6.3828,0.0,0.0,0.0,0.0,0.0,0.0,0.0,0.0,0.0,0.0,0.0,0.0,0.0,0.0,0.0,0.0,0.0,0.0,4.138,4.1495,4.1877,4.2717,4.4322,4.5239,4.5277,4.7011,4.7913,4.7821,4.8698,4.9081,4.893,4.971,5.0068,5.0045,4.9758,4.9662,4.9662,4.9424,4.8889,4.8138,4.8138,4.7687,4.7012,4.6936,0.0,0.0,0.0,0.0,4.5848,4.6711,4.8219,4.975,4.9814,4.8922,4.7876,4.7799,4.7302,4.7226,4.9633,5.0359,5.0864,5.2631,5.3673,5.4353,5.4535,5.5191,5.5789,5.575,5.5113,5.4571,5.4668,5.4041,5.3529,5.3676,5.4465,5.5087,5.5087,5.6524,5.7884,5.87,5.9555,6.0448,6.1342,6.1419,6.1419,6.1419,6.1419,6.1405,6.1405,6.122,6.1041,6.0882,6.0704,6.0546,6.0408,6.0446,6.0446,6.0446,6.1287,6.1669,6.1707,6.2586,6.2968,6.2968,6.3006,6.3045,6.3045,6.3045,6.3045,6.3035,6.3383,6.3505,6.3587,6.3967,6.4139,6.4139,0.0,0.0,0.0,0.0,0.0,0.0,0.0,0.0,0.0,0.0,0.0,0.0,0.0,0.0,0.0,0.0,0.0,0.0,4.0578,4.1151,4.1609,4.18,4.3443,4.4628,4.5277,4.6352,4.7218,4.7971,4.8181,4.8175,4.7983,4.8128,4.8049,4.7806,4.7721,4.7692,4.773,4.7642,4.75,4.7312,0.0,4.7199,4.6936,0.0,0.0,0.0,0.0,4.5209,4.5848,4.6711,4.8239,4.9738,4.9226,4.8943,4.864,4.799,4.8525,4.948,5.013,5.12,5.2447,5.3541,5.3986,5.4355,5.4992,5.5439,5.5493,5.494,5.428,5.3623,5.3119,5.334,5.3663,5.3689,5.4971,5.5981,5.5981,5.6913,5.7884,5.87,5.9555,6.0448,6.1342,6.1419,6.1419,6.1419,6.1419,6.1337,6.1181,6.1041,6.0882,6.0704,6.0546,6.0425,6.0408,6.0981,6.1287,6.1287,6.2166,6.2586,6.2586,6.3465,6.3847,6.3885,6.4496,6.4764,6.4764,6.4764,6.4764,6.4794,6.5037,6.5202,6.5363,6.5548,6.573,6.5848,0.0,0.0,0.0,0.0,0.0,0.0,0.0,0.0,0.0,0.0,0.0,0.0,0.0,0.0,0.0,0.0,0.0,0.0,0.0,4.0731,4.096,4.096,4.2221,4.3138,4.3596,4.4819,4.5489,4.5628,4.6734,0.0,4.6504,4.7182,4.7428,4.7288,4.7192,4.7174,4.7174,4.707,0.0,0.0,0.0,0.0,0.0,0.0,0.0,0.0,4.4684,4.5284,4.6365,4.6996,4.8434,4.9834,4.9036,4.8967,4.906,4.8945,4.9557,5.055,5.1658,5.2652,5.3569,5.4448,5.4677,5.4715,5.483,5.4866,5.4718,5.3925,5.3244,5.2657,5.2283,5.2665,5.3055,5.3106,5.4893,5.6291,5.6291,5.769,5.8855,5.9322,6.0137,6.0875,6.1342,6.1337,6.1268,6.1268,6.1268,6.1236,6.1131,6.0902,6.0727,6.0608,6.0441,6.0561,6.0905,6.1363,6.1784,6.2166,6.3045,6.3465,6.3503,6.4344,6.4726,6.4764,0.0,6.5413,6.5413,6.5413,6.5413,6.5444,6.5635,6.5807,6.5997,6.6128,6.6316,6.6508,0.0,0.0,0.0,0.0,0.0,0.0,0.0,0.0,0.0,0.0,0.0,0.0,0.0,0.0,0.0,0.0,0.0,0.0,0.0,0.0,0.0,0.0,4.096,4.138,4.1495,4.2908,4.3306,4.2629,4.4874,4.5635,0.0,0.0,0.0,0.0,0.0,0.0,0.0,0.0,0.0,0.0,0.0,0.0,0.0,0.0,0.0,4.4496,4.4496,4.5538,4.6948,4.7261,4.8593,4.9949,4.9213,4.912,4.9404,5.0245,5.055,5.1123,5.3454,5.418,5.4448,5.5212,5.5403,5.5174,5.4295,5.4129,5.3847,5.2891,5.2248,5.1838,5.1854,5.2066,5.2341,5.2705,5.4737,5.6369,5.6602,5.8622,6.0099,6.0099,6.0875,6.1405,6.1352,6.1181,6.1074,6.1057,6.1039,6.102,6.102,6.0757,6.0608,6.0584,6.0556,6.0867,6.1593,6.1822,6.2319,6.3083,6.3962,6.4344,6.4382,6.507,6.5413,6.5413,6.5413,6.5413,6.5413,6.5413,6.5413,6.5444,6.5635,6.5807,6.5997,6.6128,6.6316,6.6508,0.0,0.0,0.0,0.0,0.0,0.0,0.0,0.0,0.0,0.0,3.519,3.5611,0.0,0.0,0.0,0.0,0.0,0.0,0.0,0.0,0.0,0.0,4.0425,4.0807,4.1495,4.1762,4.2221,4.2754,4.3738,4.4151,4.4037,4.4814,4.5205,4.5193,0.0,0.0,0.0,0.0,0.0,0.0,0.0,0.0,0.0,0.0,0.0,0.0,4.4496,4.53,4.6429,4.7057,4.8434,4.9959,5.0035,5.0068,5.0245,5.1123,5.1849,5.2614,5.3798,5.4639,5.5212,5.5365,5.5403,5.5174,5.4295,5.4188,5.3843,5.2308,5.2049,5.1927,5.1285,5.1851,5.2848,5.431,5.5514,5.6796,5.8156,5.936,6.0099,6.0099,6.0875,6.1337,6.1164,6.1131,6.1039,6.0943,6.0757,6.0666,6.0666,6.0618,6.0533,6.0453,6.1048,6.1478,6.1593,6.3006,6.3809,6.3962,6.4802,6.5184,6.5184,6.5337,6.5413,6.5413,6.5413,0.0,6.5413,6.5413,6.5413,6.5444,6.5635,6.5807,6.5997,6.6128,6.6316,6.6508,0.0,0.0,0.0,0.0,0.0,0.0,0.0,3.5196,3.519,3.519,3.519,3.5534,3.6413,3.7215,0.0,0.0,0.0,0.0,0.0,0.0,0.0,0.0,0.0,0.0,4.0883,4.1304,4.1495,4.1495,0.0,4.2955,4.2427,4.3577,4.4058,4.4003,4.4336,4.4496,4.4496,4.4496,4.4496,4.4496,4.4496,4.4496,0.0,0.0,0.0,0.0,4.4496,4.516,4.6176,4.7034,4.8211,4.9442,5.0024,5.0579,5.1162,5.1964,5.2805,5.3683,5.4524,5.5097,5.5403,5.5403,5.5403,5.5059,5.3722,5.3451,5.3046,5.1446,5.1241,5.1233,5.1029,5.2056,5.3275,5.4181,5.6175,5.7857,5.8575,5.9817,6.0599,6.0532,6.0881,6.1116,6.1003,6.0884,6.08,6.075,6.0584,6.0546,6.0608,6.093,6.1092,6.1019,6.186,6.251,6.293,6.377,6.442,6.484,6.5222,6.5413,6.5413,6.5413,6.5413,6.5413,6.5413,6.5413,6.5413,6.5413,6.5413,6.5413,6.5494,6.5705,6.5997,6.6084,6.6263,6.6508,0.0,0.0,0.0,0.0,0.0,0.0,0.0,3.5174,3.519,3.519,3.519,3.5534,3.6413,3.7215,3.8056,0.0,0.0,0.0,0.0,0.0,0.0,0.0,0.0,0.0,0.0,0.0,0.0,4.031,4.1781,0.0,0.0,0.0,0.0,0.0,4.397,4.4346,4.4496,4.4496,4.4496,0.0,0.0,4.4496,0.0,0.0,0.0,0.0,0.0,4.502,4.5859,4.6985,4.7897,4.8743,4.9784,5.0773,5.1773,5.2575,5.3416,5.4295,5.5174,5.5403,5.5403,5.5403,5.5403,5.4944,5.3187,5.2805,5.2356,5.0768,5.0466,5.0664,5.109,5.226,5.3406,5.4064,5.6446,5.8358,5.8789,6.0029,6.0866,6.0902,6.0882,6.0882,6.0839,6.0704,6.0584,6.0559,6.048,6.0529,6.0802,6.1294,6.1707,6.186,6.2739,6.3503,6.4191,6.4344,6.4764,6.5413,6.5413,6.5413,6.5413,6.5413,6.5413,6.5413,6.5413,6.5413,6.5413,6.5413,6.5413,6.5413,6.5435,6.5651,6.5997,6.6019,6.6225,6.6508,0.0,0.0,0.0,0.0,0.0,0.0,0.0,3.5179,3.519,3.519,3.519,3.5534,3.6413,3.7215,3.8056,0.0,0.0,0.0,0.0,0.0,0.0,0.0,0.0,0.0,0.0,0.0,0.0,4.031,4.1053,0.0,0.0,0.0,0.0,0.0,0.0,4.382,4.4496,4.4496,0.0,0.0,0.0,0.0,0.0,0.0,0.0,0.0,0.0,4.4697,4.523,4.6717,4.753,4.8136,4.9619,5.0773,5.1773,5.2575,5.3416,5.4295,5.5174,5.5403,5.5403,5.5403,5.5403,5.4944,5.3187,5.2805,5.2308,5.065,5.044,5.0737,5.1585,5.1934,5.2949,5.5381,5.6056,5.7102,5.9448,5.9913,6.0247,6.0825,6.0882,6.0817,6.0657,6.0633,6.0533,6.0425,6.0436,6.0714,6.1468,6.1554,6.1975,6.2777,6.3618,6.4114,6.4191,6.4917,6.5337,6.5413,6.5413,6.5413,6.5413,6.5413,6.5413,6.5413,6.5413,6.5413,0.0,6.5413,6.5413,6.5444,6.5608,6.5782,6.5997,6.6147,6.6316,6.6508,0.0,0.0,0.0,0.0,0.0,0.0,3.4945,3.5001,3.5019,3.5019,3.5124,3.5725,3.7063,3.7521,3.8056,0.0,0.0,0.0,0.0,0.0,0.0,0.0,0.0,0.0,0.0,0.0,4.0273,4.0176,4.0539,0.0,0.0,0.0,0.0,0.0,0.0,4.3482,4.382,4.4308,0.0,0.0,0.0,0.0,0.0,0.0,0.0,0.0,0.0,0.0,4.5141,4.686,4.7234,4.7395,4.9525,5.0503,5.1085,5.2422,5.3416,5.4295,5.5174,5.5403,5.5403,5.5403,5.5021,5.4295,5.3072,5.2422,5.1759,5.0648,5.0418,5.0692,5.1722,5.2319,5.3186,5.4841,5.5998,5.6965,5.7909,5.8487,5.9078,5.9739,5.983,5.9971,6.043,6.0468,6.048,6.037,6.0408,6.0981,6.2319,6.2395,6.2777,6.3656,6.4496,6.4917,6.4917,6.5222,6.5413,6.5413,6.5413,6.5413,6.5413,6.5413,6.5413,6.5413,6.5413,6.5413,0.0,6.5413,6.5413,6.5413,6.5465,6.5743,6.6036,6.6063,6.6244,6.6508,0.0,0.0,0.0,0.0,0.0,3.4583,3.4753,3.4773,3.4773,3.4773,3.5172,3.6021,3.745,3.7868,3.8438,3.9317,0.0,0.0,0.0,0.0,0.0,0.0,0.0,0.0,0.0,0.0,4.0273,4.0157,4.0196,4.0137,0.0,0.0,4.0829,4.1052,0.0,0.0,0.0,0.0,0.0,0.0,0.0,0.0,0.0,0.0,0.0,0.0,0.0,0.0,0.0,0.0,0.0,4.7302,4.9549,5.0259,5.0588,5.2002,5.3225,5.4218,5.4868,5.5212,5.5403,5.5403,5.4753,5.3874,5.2996,5.2193,5.1376,5.0593,5.0566,5.1002,5.2046,5.285,5.3711,5.4688,5.5864,5.669,5.6767,5.7344,5.7963,5.8678,5.8765,5.9071,5.9911,6.0255,6.0408,6.0408,6.0408,6.1134,6.2815,6.2892,6.3427,6.4496,6.5108,6.5413,6.5413,6.5413,6.5413,6.5413,6.5413,6.5413,6.5413,6.5413,6.5413,6.5413,6.5413,6.5413,0.0,6.5413,6.5413,6.5413,6.5413,6.5663,6.5974,6.5974,6.6187,6.6508,0.0,0.0,0.0,0.0,0.0,0.0,3.4486,3.4508,3.4508,3.4508,3.5433,3.6444,3.7316,3.8328,3.9355,4.0234,0.0,0.0,0.0,0.0,0.0,0.0,0.0,0.0,0.0,0.0,4.031,4.031,4.0157,4.0117,4.0096,3.9954,4.0299,4.1052,0.0,0.0,0.0,0.0,0.0,0.0,0.0,0.0,0.0,0.0,0.0,0.0,0.0,0.0,0.0,0.0,0.0,0.0,0.0,5.0188,5.0474,5.1353,5.2805,5.4104,5.4104,5.4753,5.5403,5.5403,5.4753,5.3874,5.2996,5.2193,5.1353,5.0474,5.1009,5.1849,5.2614,5.3492,5.4407,5.5439,5.5615,5.5884,5.6691,5.6783,5.7081,5.7837,5.7925,5.823,5.9033,5.9873,6.0408,6.0408,6.0408,6.1134,6.2815,6.2892,6.3656,6.5337,6.5413,6.5413,6.5413,6.5413,6.5413,6.5413,6.5413,6.5413,6.5413,6.5413,6.5413,6.5413,6.5413,6.5413,0.0,6.5413,6.5413,6.5413,6.5413,6.5663,6.5974,6.5974,6.6187,6.6508,0.0,0.0,0.0,0.0,0.0,0.0,0.0,3.4298,3.4298,3.4298,3.5367,3.6424,3.7278,3.8366,3.9355,4.0234,0.0,0.0,0.0,0.0,0.0,0.0,0.0,0.0,0.0,0.0,4.0273,4.0157,4.0196,4.0176,4.0096,3.9954,4.0084,4.0447,4.1556,4.2246,0.0,0.0,0.0,0.0,0.0,0.0,4.4962,0.0,0.0,0.0,0.0,0.0,0.0,0.0,0.0,0.0,0.0,0.0,0.0,5.0474,5.1505,5.2499,5.3072,5.3416,5.3607,5.3607,5.2996,5.2308,5.204,5.1314,5.0818,5.1123,5.1429,5.204,5.3416,5.3913,5.4396,5.5287,5.5465,5.5542,5.581,5.6346,5.6971,5.7772,5.8918,5.972,5.995,6.0217,6.0408,6.0408,6.0408,6.1134,6.2815,6.2892,6.3656,6.5337,6.5413,6.5413,6.5413,6.5413,6.5413,6.5413,6.5413,6.5413,6.5413,6.5413,6.5413,6.5413,6.5413,6.5413,6.5413,6.5413,6.5413,6.5413,6.5413,6.5663,6.5974,6.5974,6.6187,6.6508,0.0,0.0,0.0,0.0,0.0,0.0,0.0,3.403,3.4178,3.4474,3.5549,3.6707,3.7646,3.8705,3.9624,4.0253,0.0,0.0,0.0,0.0,0.0,0.0,0.0,0.0,0.0,4.031,4.0273,4.0176,4.0196,4.0196,4.0157,4.0055,3.9975,4.0072,4.1562,4.2197,0.0,0.0,0.0,0.0,0.0,0.0,4.5559,0.0,0.0,0.0,0.0,0.0,0.0,0.0,0.0,0.0,0.0,0.0,0.0,0.0,5.0665,5.1276,5.2117,5.2575,5.2805,5.2805,5.2193,5.162,5.162,5.12,5.0932,5.1505,5.2117,5.2881,5.3913,5.4371,5.4753,5.5326,5.5403,5.5517,5.5823,5.6282,5.6931,5.781,5.9071,5.9911,5.9911,6.0217,6.0408,6.0408,6.0408,6.1134,6.2815,6.2892,6.3656,6.5337,6.5413,6.5413,6.5413,6.5413,6.5413,6.5413,6.5413,6.5413,6.5413,6.5413,6.5413,6.5413,6.5413,6.5413,0.0,6.5413,6.5413,6.5413,6.5413,6.5663,6.5974,6.5974,6.6187,6.6508,0.0,0.0,0.0,0.0,0.0,0.0,0.0,0.0,3.4164,3.4963,3.6081,3.7243,3.8211,3.9271,4.0017,4.0291,0.0,0.0,0.0,0.0,0.0,0.0,0.0,0.0,0.0,4.031,4.031,4.031,4.0176,4.0176,4.031,4.0157,4.0055,4.0084,4.1803,4.2442,0.0,0.0,0.0,0.0,0.0,0.0,0.0,0.0,0.0,0.0,0.0,0.0,0.0,0.0,0.0,0.0,0.0,0.0,0.0,0.0,0.0,0.0,0.0,5.204,5.2614,5.2614,5.2079,5.1544,5.1582,5.162,0.0,5.1773,5.3034,5.4104,5.418,5.4868,5.5403,5.5403,5.5403,5.567,5.6473,5.6702,5.7084,5.7963,5.8727,5.9185,5.9185,5.9911,6.0408,6.0408,6.0408,6.1134,6.2815,6.2892,6.3656,6.5337,6.5413,6.5413,6.5413,6.5413,6.5413,6.5413,6.5413,6.5413,6.5413,6.5413,6.5413,0.0,6.5413,6.5413,6.5413,6.5413,6.5413,6.5413,6.5413,6.5663,6.5974,6.5974,6.6187,6.6493,0.0,0.0,0.0,0.0,0.0,0.0,0.0,0.0,0.0,0.0,3.713,3.8326,3.8558,3.9543,4.0215,0.0,0.0,0.0,0.0,0.0,0.0,0.0,0.0,0.0,0.0,4.031,4.031,4.031,4.0273,4.0273,4.031,4.0157,4.0479,4.1149,4.1958,4.2963,4.4094,0.0,0.0,0.0,0.0,0.0,0.0,0.0,0.0,0.0,4.5583,4.5812,0.0,0.0,0.0,0.0,0.0,0.0,0.0,0.0,5.0283,0.0,5.055,0.0,5.0894,5.0894,5.0741,5.0779,0.0,5.162,5.1964,5.3263,5.3836,5.4295,5.4982,5.525,5.5403,5.5403,5.5403,5.567,5.6473,5.7695,5.8842,5.972,5.9988,6.0102,6.0102,6.0255,6.0408,6.0408,6.0408,6.1134,6.2815,6.2892,6.3656,6.5337,6.5413,6.5413,6.5413,6.5413,6.5413,6.5413,6.5413,6.5413,6.5413,6.5413,6.5413,6.5413,6.5413,6.5413,6.5413,6.5413,6.5413,6.5413,6.5413,6.5552,6.582,6.5928,6.6126,6.6299,0.0,0.0,0.0,0.0,0.0,0.0,0.0,0.0,0.0,0.0,0.0,0.0,0.0,0.0,0.0,0.0,0.0,0.0,0.0,0.0,0.0,0.0,0.0,0.0,4.031,4.031,4.031,4.031,4.031,4.031,4.031,4.0597,4.0997,4.1454,4.2473,4.3677,4.4986,4.4938,4.5033,4.523,4.5544,0.0,0.0,0.0,0.0,0.0,4.5583,4.608,0.0,4.7646,4.864,4.971,0.0,0.0,0.0,0.0,5.0283,5.0283,5.0283,5.0283,5.0283,5.0283,5.0283,5.055,5.1391,5.1888,5.2537,5.3836,5.4409,5.483,5.5326,5.5403,5.5403,5.5403,5.5708,5.6243,5.7084,5.8307,5.93,5.9759,6.0141,6.0408,6.0408,6.0408,6.0408,6.0408,6.0408,6.0943,6.2242,6.2701,6.3503,6.4802,6.5222,6.5413,6.5413,6.5413,6.5413,6.5413,6.5413,6.5413,6.5413,6.5413,6.5413,6.5413,6.5413,6.5413,6.5413,6.5413,6.5413,6.5413,6.5413,6.5523,6.5717,6.5807,6.6019,6.6225,0.0,0.0,0.0,0.0,0.0,0.0,0.0,0.0,0.0,0.0,0.0,0.0,0.0,0.0,0.0,0.0,0.0,0.0,0.0,0.0,0.0,0.0,0.0,4.031,4.031,4.031,4.031,4.031,4.031,4.031,4.031,4.1113,4.1551,4.1753,4.3285,4.4433,4.5213,4.5057,4.508,4.5333,4.597,0.0,0.0,0.0,0.0,0.0,0.0,0.0,0.0,4.7952,4.9022,5.0283,5.0283,0.0,0.0,0.0,0.0,0.0,5.0283,5.0397,5.0474,5.0321,5.0397,5.0741,5.1582,5.2422,5.3263,5.4104,5.4906,5.5403,5.5403,5.5403,5.5403,5.5403,5.6205,5.7084,5.7963,5.8765,5.93,5.93,5.995,6.0408,6.0408,6.0408,6.0408,6.0408,6.0408,6.0752,6.1554,6.2433,6.3312,6.4153,6.4993,6.5413,6.5413,6.5413,6.5413,6.5413,6.5413,6.5413,6.5413,6.5413,6.5413,6.5413,0.0,0.0,6.5413,6.5413,6.5413,6.5413,6.5413,6.5494,6.5663,6.569,6.5905,6.6108,0.0,0.0,0.0,0.0,0.0,0.0,0.0,0.0,0.0,0.0,0.0,0.0,0.0,0.0,0.0,0.0,0.0,0.0,0.0,0.0,0.0,0.0,4.031,4.031,4.031,4.031,4.031,4.031,4.031,4.031,4.031,4.1113,4.2199,4.3466,4.4543,4.5033,4.4986,4.517,4.5192,4.5148,4.5366,0.0,0.0,0.0,0.0,0.0,0.0,0.0,0.0,4.864,4.9519,5.0283,5.0283,0.0,0.0,0.0,0.0,0.0,5.0283,5.0856,5.1238,5.0474,5.0856,5.162,5.2422,5.3263,5.4142,5.5021,5.5326,5.5403,5.5403,5.5403,5.5403,5.5403,5.6702,5.7963,5.8803,5.9644,6.0179,6.0179,6.0332,6.0408,6.0408,6.0408,6.0408,6.0408,6.0408,6.0752,6.1554,6.2433,6.3312,6.4153,6.4993,6.5413,6.5413,6.5413,6.5413,6.5413,6.5413,6.5413,6.5413,6.5413,6.5413,6.5413,0.0,6.5413,6.5413,6.5413,6.5413,6.5413,6.5413,6.5444,6.5465,6.5635,6.5705,6.5782,0.0,0.0,0.0,0.0,0.0,0.0,0.0,0.0,0.0,0.0,0.0,0.0,0.0,0.0,0.0,0.0,0.0,0.0,0.0,0.0,0.0,4.031,4.031,4.031,4.031,4.031,4.031,4.031,4.031,4.054,4.0998,4.2259,4.35,4.4641,4.5104,4.5213,4.5125,4.5235,4.5256,4.5252,0.0,0.0,0.0,0.0,0.0,0.0,0.0,0.0,0.0,0.0,4.9633,5.0283,5.0283,0.0,0.0,0.0,0.0,0.0,5.0283,5.0588,5.1009,5.1505,5.2308,5.3187,5.4027,5.483,5.5556,5.5976,5.6052,5.5938,5.5479,5.5747,5.6358,5.7275,5.7695,5.8192,5.8994,5.9453,5.9682,5.9682,6.0102,6.0408,6.0408,6.0408,6.0408,6.0408,6.0408,6.0752,6.1554,6.2433,6.3312,6.4153,6.4993,6.5413,6.5413,6.5413,6.5413,6.5413,6.5413,6.5413,6.5413,6.5413,6.5413,6.5413,0.0,6.5413,6.5413,6.5413,6.5413,6.5413,6.5413,6.5413,6.5405,6.5635,6.5635,6.558,0.0,0.0,0.0,0.0,0.0,0.0,0.0,0.0,0.0,0.0,0.0,0.0,0.0,0.0,0.0,0.0,0.0,0.0,0.0,0.0,4.031,4.031,4.031,4.031,4.031,4.031,4.031,4.031,4.0501,4.1113,4.2106,4.3405,4.4475,4.5277,4.5277,4.5277,4.5277,4.5277,4.5277,4.5354,0.0,0.0,0.0,0.0,0.0,0.0,0.0,0.0,0.0,0.0,0.0,0.0,0.0,0.0,0.0,5.0283,5.0283,5.0283,5.0283,5.0588,5.12,5.2461,5.3301,5.4142,5.5403,5.6167,5.6664,5.6855,5.6893,5.6664,5.5823,5.6167,5.7084,5.8574,5.8459,5.8459,5.93,5.9415,5.9415,5.9415,5.9988,6.0408,6.0408,6.0408,6.0408,6.0408,6.0561,6.0943,6.1554,6.2624,6.3503,6.4153,6.4993,6.5413,6.5413,6.5413,6.5413,6.5413,6.5413,6.5413,6.5413,6.5413,6.5413,6.5413,6.5413,6.5413,6.5413,6.5413,6.5413,6.5413,6.5413,6.5413,6.5444,6.558,6.5523,6.5435,0.0,0.0,0.0,0.0,0.0,0.0,0.0,0.0,0.0,0.0,0.0,0.0,0.0,0.0,0.0,0.0,0.0,0.0,0.0,0.0,4.031,4.031,4.031,4.031,4.031,4.031,4.031,4.031,4.1036,4.2259,4.3825,4.394,4.4475,4.5277,4.5277,4.5277,4.5277,4.5277,4.5277,4.5316,4.5354,0.0,0.0,0.0,0.0,0.0,0.0,0.0,0.0,0.0,0.0,0.0,0.0,0.0,5.0283,5.0283,5.0283,5.0283,5.0283,5.1429,5.2652,5.2766,5.2843,5.3531,5.5938,5.6549,5.6816,5.7619,5.781,5.7542,5.6664,5.6549,5.6893,5.7848,5.8574,5.9338,6.0179,6.0293,6.0293,6.0293,6.037,6.0408,6.0408,6.0408,6.0408,6.0408,6.1096,6.1554,6.1593,6.3197,6.4114,6.4191,6.4993,6.5413,6.5413,6.5413,6.5413,6.5413,6.5413,6.5413,6.5413,6.5413,6.5413,6.5413,6.5413,6.5413,6.5413,6.5413,6.5413,6.5413,6.5413,6.5413,6.5413,6.5444,6.5413,6.5413,0.0,0.0,0.0,0.0,0.0,0.0,0.0,0.0,0.0,0.0,0.0,0.0,0.0,0.0,0.0,0.0,0.0,0.0,0.0,0.0,4.031,4.031,4.0769,4.1036,4.1036,4.1036,4.1036,4.1036,4.2412,4.3367,4.4017,4.4551,4.4972,4.5277,4.5277,4.5277,4.5277,4.5277,4.5277,4.5277,4.5277,4.5277,0.0,0.0,0.0,0.0,0.0,0.0,0.0,0.0,5.0283,5.0283,5.0283,5.0283,5.0283,5.0283,5.0283,5.0436,5.0971,5.1926,5.3072,5.4142,5.4409,5.4944,5.6931,5.781,5.8268,5.8574,5.8651,5.8383,5.7542,5.781,5.8268,5.8574,5.9376,6.0026,6.0332,6.0408,6.0408,6.0408,6.0408,6.0408,6.0408,6.0408,6.0599,6.1096,6.144,6.2051,6.3159,6.3847,6.442,6.4917,6.5222,6.5413,6.5413,6.5413,6.5413,6.5413,6.5413,6.5413,6.5413,6.5413,6.5413,6.5413,6.5413,6.5413,6.5413,6.5413,6.5413,6.5413,6.5413,6.5413,6.5413,6.5413,6.5413,6.5413,0.0,0.0,0.0,0.0,0.0,0.0,0.0,0.0,0.0,0.0,0.0,0.0,0.0,0.0,0.0,0.0,0.0,0.0,4.0157,4.0405,4.0577,4.0692,4.1457,4.1915,4.1915,4.2144,4.2144,4.1915,4.3329,4.4131,4.4437,4.501,4.5277,4.5277,4.5277,4.5277,4.5277,4.5277,4.5277,4.5277,4.5277,4.543,0.0,0.0,0.0,0.0,0.0,0.0,0.0,0.0,5.0283,5.0283,5.0283,5.0283,5.0283,5.0283,5.0283,5.0474,5.1353,5.2193,5.3225,5.4982,5.5594,5.6205,5.7886,5.8498,5.888,5.9415,5.93,5.8918,5.8383,5.8727,5.9109,5.9109,5.9835,6.0408,6.0408,6.0408,6.0408,6.0408,6.0408,6.0408,6.0408,6.0637,6.1019,6.1554,6.2128,6.293,6.4114,6.442,6.484,6.5375,6.5413,6.5413,6.5413,6.5413,6.5413,6.5413,6.5413,6.5413,6.5413,6.5413,6.5413,6.5413,6.5413,6.5413,6.5413,6.5413,6.5413,6.5413,6.5413,6.5413,6.5413,6.5413,6.5413,6.5413,0.0,0.0,0.0,0.0,0.0,0.0,0.0,0.0,0.0,0.0,0.0,0.0,0.0,0.0,0.0,0.0,0.0,0.0,3.9911,4.0691,4.1233,4.1495,4.2335,4.2794,4.2794,4.3596,4.3634,4.2832,4.3634,4.4437,4.5277,4.5277,4.5277,4.5277,4.5277,4.5277,4.5277,4.5277,4.5277,4.5277,4.5316,4.5774,4.65,0.0,0.0,0.0,0.0,0.0,0.0,0.0,5.0283,5.0283,5.0283,5.0283,5.0283,5.0283,5.0321,5.0512,5.1391,5.2193,5.3263,5.4982,5.6014,5.7046,5.8727,5.8498,5.8383,6.0064,5.972,5.9109,5.9109,5.9109,5.9109,5.9109,5.9835,6.0408,6.0408,6.0408,6.0408,6.0408,6.0408,6.0408,6.0408,6.1134,6.1593,6.1631,6.3197,6.4191,6.4191,6.4955,6.5413,6.5413,6.5413,6.5413,6.5413,6.5413,6.5413,6.5413,6.5413,6.5413,6.5413,6.5413,6.5413,6.5413,6.5413,6.5413,6.5413,6.5413,6.5413,6.5413,6.5413,6.5413,6.5413,6.5413,6.5413,6.5413,0.0,0.0,0.0,0.0,0.0,0.0,0.0,0.0,0.0,0.0,0.0,0.0,0.0,0.0,0.0,0.0,0.0,0.0,4.1518,4.1806,4.2069,4.2412,4.3214,4.3634,4.3634,4.4475,4.4781,4.4551,4.4781,4.5048,4.5277,4.5277,4.5277,4.5277,4.5277,4.5277,4.5277,4.5277,4.5277,4.5354,4.5927,4.6309,4.6615,0.0,0.0,0.0,0.0,0.0,0.0,0.0,0.0,0.0,5.0283,5.0283,5.0283,5.0283,5.0741,5.1391,5.2231,5.3913,5.5594,5.6091,5.7313,5.8498,5.8994,5.8918,5.9071,6.0179,6.0179,5.9835,5.9224,5.9606,5.9797,5.9224,5.9835,6.0408,6.0408,6.0408,6.0408,6.0408,6.0408,6.0599,6.1172,6.1478,6.2128,6.335,6.3885,6.4458,6.4993,6.5261,6.5413,6.5413,6.5413,6.5413,6.5413,6.5413,6.5413,6.5413,6.5413,6.5413,6.5413,6.5413,6.5413,6.5413,6.5413,6.5413,6.5413,6.5413,6.5413,6.5413,6.5413,6.5413,6.5413,6.5413,6.5413,6.5413,0.0,0.0,0.0,0.0,0.0,0.0,0.0,0.0,0.0,0.0,0.0,0.0,0.0,0.0,0.0,0.0,0.0,0.0,0.0,4.2555,4.2943,4.327,4.4055,4.4513,4.4513,4.501,4.5277,4.5277,4.5277,4.5277,4.5277,4.5277,4.5277,4.5277,4.5277,4.5277,4.5277,4.5277,4.5277,4.5354,4.6194,4.6729,4.7188,0.0,0.0,0.0,0.0,0.0,0.0,0.0,0.0,0.0,5.0283,5.0283,5.0283,5.0283,5.0932,5.1849,5.2996,5.4677,5.6358,5.7351,5.8345,5.9185,5.9529,5.9606,5.9759,6.0293,6.0408,6.0217,5.972,6.0064,6.0217,5.9682,6.0064,6.0408,6.0408,6.0408,6.0408,6.0408,6.0408,6.0714,6.1516,6.1898,6.2701,6.4076,6.4496,6.4879,6.5375,6.5413,6.5413,6.5413,6.5413,6.5413,6.5413,6.5413,6.5413,6.5413,6.5413,6.5413,6.5413,6.5413,6.5413,6.5413,6.5413,6.5413,6.5413,6.5413,6.5413,6.5413,6.5413,6.5413,6.5413,6.5413,6.5605,6.591,0.0,0.0,0.0,0.0,0.0,0.0,0.0,0.0,0.0,0.0,0.0,0.0,0.0,0.0,0.0,0.0,0.0,0.0,0.0,0.0,4.3795,4.4052,4.4836,4.5277,4.5277,4.5277,4.5277,4.5277,4.5277,4.5277,4.5277,4.5277,4.5277,4.5277,4.5277,4.5277,4.5277,4.5277,4.5316,4.5468,4.6309,4.715,4.8028,4.8869,0.0,0.0,0.0,0.0,0.0,0.0,0.0,0.0,5.0283,5.0359,5.0436,5.0436,5.1162,5.227,5.3798,5.4982,5.6282,5.8536,5.9185,5.9415,6.0217,6.0408,6.0408,6.0408,6.0408,6.0408,6.0408,6.0408,6.0408,6.0408,6.0408,6.0408,6.0408,6.0408,6.0408,6.0408,6.0446,6.0828,6.1631,6.251,6.3388,6.4229,6.4993,6.5413,6.5413,6.5413,6.5413,6.5413,6.5413,6.5413,6.5413,6.5413,6.5413,6.5413,6.5413,6.5413,6.5413,6.5413,6.5413,6.5413,6.5413,6.5413,6.5413,6.5413,6.5413,6.5413,6.549,6.5528,6.5528,6.5605,6.6139,6.6827,0.0,0.0,0.0,0.0,0.0,0.0,0.0,0.0,0.0,0.0,0.0,0.0,0.0,0.0,0.0,0.0,0.0,0.0,0.0,0.0,4.436,4.4645,4.5077,4.5277,4.5277,4.5277,4.5277,4.5277,4.5277,4.5277,4.5277,4.5277,4.5277,4.5277,4.5277,4.5277,4.5277,4.5277,4.566,4.6309,4.7188,4.8028,4.8907,4.971,5.0168,0.0,0.0,0.0,0.0,0.0,0.0,0.0,5.0283,5.0779,5.1314,5.1314,5.2881,5.4677,5.5021,5.6702,5.8421,5.8994,5.9606,6.0179,6.037,6.0408,6.0408,6.0408,6.0408,6.0408,6.0408,6.0408,6.0408,6.0408,6.0408,6.0408,6.0408,6.0408,6.0408,6.0408,6.0943,6.1669,6.2548,6.3427,6.4267,6.507,6.5299,6.5413,6.5413,6.5413,6.5413,6.5413,6.5413,6.5413,6.5413,6.5413,6.5413,6.5413,6.5413,6.5413,6.5413,6.5413,6.5413,6.5413,6.5413,6.5413,6.5413,6.5413,6.5413,6.5452,6.6139,6.6407,6.6522,6.7133,6.7477,6.763,0.0,0.0,0.0,0.0,0.0,0.0,0.0,0.0,0.0,0.0,0.0,0.0,0.0,0.0,0.0,0.0,0.0,0.0,0.0,0.0,4.4465,4.4599,4.491,4.5065,4.5065,4.5235,4.5277,4.5277,4.5277,4.5277,4.5277,4.5277,4.5277,4.5277,4.5277,4.5277,4.5354,4.6156,4.65,4.6653,4.8334,4.9022,4.9175,4.9977,5.0283,5.0283,0.0,0.0,0.0,0.0,0.0,0.0,0.0,0.0,5.1697,5.2079,5.3416,5.4944,5.5747,5.7237,5.8727,5.9529,6.0064,6.0408,6.0408,6.0408,6.0408,6.0408,6.0408,6.0408,6.0408,6.0408,6.0408,6.0408,6.0408,6.0408,6.0408,6.0408,6.0523,6.0943,6.1325,6.2128,6.3388,6.3923,6.4535,6.5337,6.5413,6.5413,6.5413,6.5413,6.5413,6.5413,6.5413,6.5413,6.5413,6.5413,6.5413,6.5413,6.5413,6.5413,6.5413,6.5413,6.5413,6.5413,6.5413,6.5413,6.5413,6.5834,6.6025,6.6101,6.6942,6.7286,6.7324,6.7744,6.8165,6.8508,0.0,0.0,0.0,0.0,0.0,0.0,0.0,0.0,0.0,0.0,0.0,0.0,0.0,0.0,0.0,0.0,0.0,0.0,0.0,0.0,0.0,4.4465,4.4726,4.491,4.491,4.5154,4.5277,4.5277,4.5277,4.5277,4.5277,4.5277,4.5277,4.5277,4.5256,4.5447,4.5812,4.6991,4.7373,4.7341,4.9266,4.9763,4.9366,5.0054,0.0,0.0,0.0,0.0,0.0,0.0,0.0,0.0,0.0,0.0,5.2155,5.2843,5.3722,5.483,5.6205,5.7351,5.8459,6.0026,6.0408,6.0408,6.0408,6.0408,6.0408,6.0408,6.0408,6.0408,6.0408,6.0408,6.0408,6.0408,6.0408,6.0408,6.0408,6.0408,6.0676,6.1516,6.1745,6.2433,6.4038,6.4305,6.4688,6.5337,6.5413,6.5413,6.5413,6.5413,6.5413,6.5413,6.5413,6.5413,6.5413,6.5413,6.5413,6.5413,6.5413,6.5413,6.5413,6.5413,6.5413,6.5413,6.5566,6.5605,6.5681,6.656,6.6904,6.698,6.7821,6.8126,6.8126,6.8279,6.8776,6.9425,0.0,0.0,0.0,0.0,0.0,0.0,0.0,0.0,0.0,0.0,4.204,0.0,0.0,0.0,0.0,0.0,0.0,0.0,0.0,0.0,0.0,4.4726,4.5065,4.5235,4.5235,4.5277,4.5277,4.5277,4.5277,4.5277,4.5277,4.5277,4.5277,4.5277,4.517,4.5993,4.7433,4.6654,4.7691,4.9748,4.921,4.9463,5.0168,0.0,0.0,0.0,0.0,0.0,0.0,0.0,5.0818,0.0,0.0,0.0,5.3798,5.3874,5.5021,5.632,5.6549,5.7734,5.9185,6.0141,6.0408,6.0408,6.0408,6.0408,6.0408,6.0408,6.0408,6.0408,6.0408,6.0408,6.0408,6.0408,6.0408,6.0408,6.0408,6.0408,6.0676,6.1516,6.228,6.3121,6.4076,6.484,6.5261,6.5375,6.5413,6.5413,6.5413,6.5413,6.5413,6.5413,6.5413,6.5413,6.5413,6.5413,6.5413,6.5413,6.5413,6.5413,6.5413,6.5413,6.5413,6.5452,6.6216,6.6522,6.6598,6.74,6.7744,6.7821,6.8699,6.9043,6.912,6.9807,7.0151,7.0228,0.0,0.0,0.0,0.0,0.0,0.0,0.0,0.0,0.0,0.0,0.0,4.2921,0.0,0.0,0.0,0.0,0.0,0.0,0.0,0.0,0.0,4.4365,4.4789,4.5004,4.5004,4.5213,4.5277,4.5277,4.5277,4.5277,0.0,4.5671,4.5856,4.5856,4.5878,4.6519,4.7604,4.8112,4.872,4.9417,5.0012,5.052,0.0,0.0,0.0,0.0,0.0,0.0,0.0,0.0,5.1276,5.1773,5.269,0.0,0.0,0.0,5.5365,5.6129,5.7084,5.8192,5.93,6.0179,6.0408,6.0408,6.0408,6.0408,6.0408,6.0408,6.0408,6.0408,6.0408,6.0408,6.0408,6.0408,6.0408,6.0408,6.0408,6.079,6.1363,6.2242,6.3083,6.3962,6.4802,6.5184,6.5413,6.5413,6.5413,6.5413,6.5413,6.5413,6.5413,6.5413,6.5413,6.5413,6.5413,6.5413,6.5413,6.5413,6.5413,6.5643,6.6139,6.6139,6.6139,6.6139,6.6522,6.698,6.7439,6.8279,6.8623,6.8699,6.954,6.9884,6.9922,7.0266,7.0419,7.0419,0.0,0.0,0.0,0.0,0.0,0.0,0.0,0.0,0.0,0.0,0.0,0.0,0.0,0.0,0.0,0.0,0.0,0.0,0.0,0.0,0.0,4.3986,4.4438,4.4726,4.48,4.5026,4.5213,4.5277,4.5507,0.0,4.5579,4.6268,4.673,4.6896,4.693,4.7376,4.8136,4.9413,4.9679,4.9349,5.0772,5.1357,0.0,0.0,0.0,0.0,0.0,0.0,0.0,5.1484,5.1853,5.2156,5.3438,5.3971,0.0,0.0,0.0,5.5565,5.7134,5.8001,5.8727,5.9797,6.0064,6.0141,6.0332,6.0408,6.0408,6.0408,6.0408,6.0408,6.0408,6.0408,6.0408,6.0408,6.0408,6.0408,6.0408,6.1096,6.1936,6.2815,6.3656,6.4496,6.5337,6.5413,6.5413,6.5413,6.5413,6.5413,6.5413,6.5413,6.5413,6.5413,6.5413,6.5413,6.5413,6.5413,6.5413,6.5413,6.5605,6.6063,6.6713,6.6904,6.7133,6.7362,6.7362,6.7668,6.8279,6.9158,6.9502,6.9578,7.019,7.0419,7.0419,7.0419,7.0419,7.0419,0.0,0.0,0.0,0.0,0.0,0.0,0.0,0.0,0.0,0.0,0.0,0.0,0.0,0.0,0.0,4.3497,4.3497,4.3497,4.3497,4.3795,4.3986,4.3986,4.4279,0.0,4.4776,4.48,4.4981,4.5277,0.0,0.0,4.6259,4.712,4.7884,4.845,4.8342,4.8861,4.9765,4.9596,5.0078,5.0978,5.1082,5.1239,0.0,0.0,0.0,0.0,0.0,0.0,5.1102,5.1964,5.2553,5.294,5.3053,5.3616,5.4292,0.0,0.0,0.0,5.6317,5.6702,5.7122,5.8765,5.9185,5.9376,6.0217,6.0408,6.0408,6.0408,6.0408,6.0408,6.0408,6.0408,6.0408,6.0408,6.0408,6.0408,6.0408,6.1096,6.1936,6.2815,6.3656,6.4496,6.5337,6.5413,6.5413,6.5413,6.5413,6.5413,6.5413,6.5413,6.5413,6.5413,6.5413,6.5413,6.5413,6.5413,6.5413,6.5413,6.6254,6.6674,6.6751,6.7477,6.8279,6.9082,6.9082,6.9082,6.9196,6.9999,7.0342,7.0342,7.0381,7.0419,7.0419,7.0419,7.0419,7.0419,0.0,0.0,0.0,0.0,0.0,0.0,0.0,0.0,0.0,0.0,0.0,0.0,0.0,4.3359,4.3465,4.3465,4.3463,4.3718,4.4232,4.4091,4.4246,4.4766,4.4512,4.4783,4.5596,4.5634,4.6045,0.0,0.0,4.7205,4.7134,4.782,4.8218,4.8466,4.8521,4.8975,4.9778,4.9663,4.9881,5.0232,5.0875,5.1543,0.0,0.0,0.0,0.0,5.2498,5.2285,5.274,5.3321,5.3273,0.0,0.0,0.0,0.0,5.4296,5.4528,5.4966,5.57,5.6088,5.654,5.768,5.8365,5.8919,5.9435,5.9988,6.0408,6.0408,6.0408,6.0408,6.0408,6.0408,6.0408,6.0408,6.0408,6.0561,6.1096,6.1898,6.2777,6.3618,6.4458,6.507,6.5375,6.5413,6.5413,6.5413,6.5413,6.5413,6.5413,6.5413,6.5413,6.5413,6.5413,6.5413,6.5413,6.5413,6.5681,6.6254,6.656,6.7247,6.8317,6.8585,6.9196,6.996,6.996,6.996,6.9999,7.0304,7.0419,7.0419,7.0419,7.0419,7.0419,7.0419,7.0419,7.0419,0.0,0.0,0.0,0.0,0.0,0.0,0.0,0.0,0.0,0.0,0.0,0.0,0.0,0.0,4.387,4.4163,4.427,4.4525,4.5076,4.4807,4.4868,4.5386,4.5095,4.5298,4.6177,4.6177,4.6641,0.0,0.0,0.0,0.0,4.8586,4.8881,4.8824,4.8767,4.9068,4.9642,4.9777,4.977,4.9717,5.0734,5.1849,5.2889,5.2265,5.3308,5.4988,5.3429,5.3208,5.3757,5.457,5.4391,0.0,0.0,0.0,0.0,0.0,5.4262,5.4505,5.4969,5.5287,5.5675,5.6468,5.7143,5.7775,5.869,5.9388,5.9912,6.0332,6.0408,6.0408,6.0408,6.0408,6.0408,6.0408,6.0408,6.0676,6.1478,6.2357,6.3236,6.4076,6.4917,6.5413,6.5413,6.5413,6.5413,6.5413,6.5413,6.5413,6.5413,6.5413,6.5413,6.5413,6.5413,6.5413,6.5413,6.5681,6.6139,6.6713,6.7286,6.8126,6.9196,6.9464,6.9884,7.0419,7.0419,7.0419,7.0419,7.0419,7.0419,7.0419,7.0419,7.0419,7.0419,7.0419,7.0419,7.0419,0.0,0.0,0.0,0.0,0.0,0.0,0.0,0.0,0.0,0.0,0.0,0.0,0.0,0.0,0.0,4.5736,4.5847,4.592,4.592,4.592,4.592,4.592,4.592,4.6027,4.6442,4.6442,4.6669,4.7146,0.0,0.0,0.0,0.0,4.9797,4.9663,4.923,4.9197,4.9534,4.9986,4.994,4.9646,5.0778,5.2278,5.364,5.3057,5.3682,5.486,5.4401,5.4091,5.4053,5.5612,5.5845,0.0,0.0,0.0,0.0,0.0,0.0,5.3795,0.0,0.0,0.0,5.5235,5.546,5.6014,5.804,5.8521,5.8881,6.0122,6.037,6.0342,6.037,6.037,6.037,6.037,6.037,6.0676,6.1516,6.2357,6.3236,6.4114,6.4917,6.5413,6.5413,6.5413,6.5413,6.5413,6.5413,6.5413,6.5413,6.5413,6.5413,6.5413,6.5413,6.5413,6.5452,6.6292,6.6713,6.6789,6.8432,6.9196,6.9273,7.0037,7.0419,7.0419,7.0419,7.0419,7.0419,7.0419,7.0419,7.0419,7.0419,7.0419,7.0419,7.0419,7.0419,7.0419,0.0,0.0,0.0,0.0,0.0,0.0,0.0,0.0,0.0,0.0,0.0,0.0,0.0,0.0,0.0,4.5621,4.5659,4.5953,4.6501,4.6026,4.5953,4.6537,4.599,4.6104,4.705,4.7157,4.762,4.8465,0.0,0.0,0.0,0.0,0.0,0.0,4.9378,4.9639,4.9711,5.0073,5.007,5.0033,5.2375,5.3524,5.3958,5.4348,5.5578,5.692,5.5959,5.5914,5.6429,5.6578,5.5772,5.4583,0.0,0.0,0.0,0.0,0.0,0.0,5.3561,0.0,0.0,0.0,0.0,0.0,5.6165,5.687,5.7649,5.8843,5.8868,5.8921,5.9792,5.9969,5.9969,5.9969,6.0188,6.0905,6.2357,6.2739,6.3427,6.4879,6.5261,6.5413,6.5413,6.5413,6.5413,6.5413,6.5413,6.5413,6.5413,6.5413,6.5413,6.5413,6.5413,6.5719,6.633,6.6598,6.7324,6.8508,6.8967,6.9502,7.0075,7.0304,7.0419,7.0419,7.0419,7.0419,7.0419,7.0419,7.0419,7.0419,7.0419,7.0419,7.0419,7.0419,7.0419,7.0419,0.0,0.0,0.0,0.0,0.0,0.0,0.0,0.0,0.0,0.0,0.0,0.0,0.0,0.0,0.0,4.6527,4.6603,4.6825,4.7262,4.6861,4.6825,4.7299,4.6861,4.6941,4.7573,4.7647,4.8015,4.8709,0.0,0.0,0.0,0.0,0.0,0.0,0.0,5.0073,5.0149,5.0674,5.0713,5.0602,5.2675,5.3905,5.4503,5.5094,5.6288,5.7602,5.6677,5.6737,5.7137,5.7279,5.6235,5.4803,0.0,0.0,0.0,0.0,0.0,0.0,0.0,0.0,0.0,5.3484,0.0,0.0,5.5585,5.6182,5.6966,5.8559,5.8681,5.8725,5.9427,5.9537,5.9537,5.9537,5.9874,6.0798,6.2633,6.2892,6.3541,6.5184,6.5413,6.5413,6.5413,6.5413,6.5413,6.5413,6.5413,6.5413,6.5413,6.5413,6.5413,6.5413,6.5413,6.5834,6.6713,6.7018,6.7859,6.9196,6.954,6.996,7.0419,7.0419,7.0419,7.0419,7.0419,7.0419,7.0419,7.0419,7.0419,7.0419,7.0419,7.0419,7.0419,7.0419,7.0419,7.0419,0.0,0.0,0.0,0.0,0.0,0.0,0.0,0.0,0.0,0.0,0.0,0.0,0.0,0.0,0.0,0.0,4.7947,4.7951,4.7951,4.7951,4.7951,4.7951,4.7951,4.7951,4.7951,4.7992,4.8108,4.8375,0.0,0.0,0.0,0.0,0.0,0.0,0.0,0.0,5.0665,5.1511,5.1678,5.14,5.2521,5.3812,5.5129,5.5508,5.6367,5.7381,5.703,5.6887,5.6997,5.7666,5.6932,5.5684,0.0,0.0,0.0,0.0,5.3261,0.0,0.0,0.0,0.0,0.0,5.3225,0.0,5.5455,5.5872,5.6437,5.8316,5.869,5.8728,5.884,5.8878,5.8878,5.8878,5.9314,6.0431,6.2536,6.2862,6.3541,6.5184,6.5413,6.5413,6.5413,6.5413,6.5413,6.5413,6.5413,6.5413,6.5413,6.5413,6.5413,6.5413,6.549,6.5948,6.6827,6.763,6.847,6.9349,7.0075,7.0419,7.0419,7.0419,7.0419,7.0419,7.0419,7.0419,7.0419,7.0419,7.0419,7.0419,7.0419,7.0419,7.0419,7.0419,7.0419,7.0419,0.0,0.0,0.0,0.0,0.0,0.0,0.0,0.0,0.0,0.0,0.0,0.0,0.0,0.0,0.0,0.0,4.7741,4.7741,4.7741,4.7741,4.7741,4.7741,4.7741,4.7741,4.7741,4.7866,4.8193,4.8805,0.0,0.0,0.0,0.0,0.0,0.0,0.0,0.0,5.1193,5.1991,5.2654,5.329,5.4337,5.4866,5.5195,5.6514,5.7266,5.7564,5.7601,5.7601,5.7528,5.7143,5.6822,5.6345,5.5023,5.484,5.4876,5.3592,0.0,0.0,0.0,0.0,0.0,0.0,5.3225,0.0,5.3718,5.3792,5.4137,5.5544,5.5569,5.5628,5.6623,5.6813,5.6813,5.6813,5.7931,5.9652,6.2102,6.2704,6.3541,6.5184,6.5413,6.5413,6.5413,6.5413,6.5413,6.5413,6.5413,6.5413,6.5413,6.5413,6.5413,6.5413,6.6101,6.6827,6.7668,6.8508,6.9349,7.019,7.0342,7.0419,7.0419,7.0419,7.0419,7.0419,7.0419,7.0419,7.0419,7.0419,7.0419,7.0419,7.0419,7.0419,7.0419,7.0419,7.0419,7.0419,0.0,0.0,0.0,0.0,0.0,0.0,0.0,0.0,0.0,0.0,0.0,0.0,0.0,0.0,0.0,0.0,0.0,0.0,0.0,4.7699,4.7699,4.7699,4.7699,4.7916,4.8315,4.8357,4.8756,4.951,0.0,0.0,0.0,0.0,0.0,0.0,0.0,5.19,5.19,5.2335,5.2951,5.3748,5.4745,5.5338,5.5716,5.7049,5.7583,5.7715,5.781,5.7857,5.7831,5.7519,5.6859,5.6124,5.5721,5.5317,5.484,5.4032,5.4069,5.4216,0.0,0.0,0.0,5.3225,5.3225,0.0,0.0,5.3812,5.4117,5.5064,5.5122,5.5184,5.5766,5.5881,5.5881,5.5881,5.7413,5.8914,5.974,6.1614,6.3541,6.5184,6.5413,6.5413,6.5413,6.5413,6.5413,6.5413,6.5413,6.5413,6.5413,6.5413,6.5413,6.5413,6.6254,6.7095,6.7897,6.8738,6.9616,7.0419,7.0419,7.0419,7.0419,7.0419,7.0419,7.0419,7.0419,7.0419,7.0419,7.0419,7.0419,7.0419,7.0419,7.0419,7.0419,7.0419,7.0419,7.0419,0.0,0.0,0.0,0.0,0.0,0.0,0.0,0.0,0.0,0.0,0.0,0.0,0.0,0.0,0.0,0.0,0.0,0.0,0.0,4.8098,4.8025,4.7735,4.7989,4.8387,4.8894,4.9075,4.9546,5.0307,0.0,0.0,0.0,0.0,0.0,0.0,0.0,5.2661,5.2516,5.2661,5.3204,5.4001,5.4676,5.545,5.6261,5.7195,5.7583,5.7715,5.7679,5.7857,5.7914,5.7767,5.685,5.5904,5.619,5.5647,5.4766,5.4326,5.4399,5.4436,5.3482,0.0,0.0,0.0,0.0,5.3371,0.0,0.0,0.0,5.4987,5.5133,5.5133,5.5133,5.5133,5.5097,5.4913,5.6594,5.7698,5.7111,5.9975,6.2688,6.4367,6.5077,6.5337,6.5184,6.5184,6.5222,6.5375,6.5261,6.5222,6.5375,6.5413,6.549,6.5643,6.6483,6.7324,6.8126,6.9005,6.9769,7.0419,7.0419,7.0419,7.0419,7.0419,7.0419,7.0419,7.0419,7.0419,7.0419,7.0419,7.0419,7.0419,7.0419,7.0419,7.0419,7.0419,7.0419,7.0419,4.4068,4.3699,0.0,0.0,0.0,0.0,0.0,0.0,0.0,0.0,0.0,0.0,0.0,0.0,0.0,0.0,0.0,0.0,4.8822,4.9438,4.9184,4.7772,4.9075,4.9546,4.8931,4.9582,5.0343,5.114,0.0,0.0,0.0,0.0,0.0,5.2408,5.3204,5.3168,5.2552,5.3277,5.4037,5.4762,5.487,5.5341,5.6115,5.6949,5.7239,5.7289,5.7388,5.7583,5.77,5.6875,5.6603,5.6373,5.4964,5.5448,5.6124,5.3959,5.4363,5.5133,5.3628,5.3225,0.0,0.0,5.3225,5.3225,5.3335,0.0,5.3371,5.3445,0.0,5.3482,5.3482,0.0,0.0,5.2527,5.4115,5.551,5.5801,5.7716,5.9716,6.1386,6.3848,6.5108,6.442,6.4344,6.4611,6.5337,6.4726,6.4649,6.5375,6.5413,6.5757,6.6522,6.7324,6.8165,6.9043,6.9846,7.0304,7.0419,7.0419,7.0419,7.0419,7.0419,7.0419,7.0419,7.0419,7.0419,7.0419,7.0419,7.0419,7.0419,7.0419,7.0419,7.0419,7.0419,7.0419,7.0419,4.2618,4.2618,0.0,0.0,0.0,0.0,0.0,0.0,0.0,0.0,0.0,0.0,4.8892,5.0064,5.0597,0.0,0.0,5.0452,4.9655,0.0,0.0,4.9112,4.9727,5.0162,5.0307,5.0597,5.1176,5.2009,5.2009,0.0,0.0,0.0,0.0,5.2516,5.3349,5.3494,5.3204,5.3566,5.4146,5.4907,5.4907,5.5341,5.6066,5.6899,5.7239,5.7338,5.7534,5.7679,5.7737,0.0,5.6768,0.0,0.0,5.5933,5.5317,5.4766,5.473,5.4656,5.3518,5.3555,0.0,0.0,0.0,0.0,5.3335,0.0,5.3225,0.0,0.0,0.0,0.0,0.0,0.0,0.0,5.4202,5.5073,5.4311,5.6929,5.9564,6.1202,6.2489,6.3465,6.4114,6.4191,6.4535,6.5337,6.4649,6.4535,6.5375,6.5413,6.5796,6.6674,6.7477,6.8317,6.9196,6.9999,7.0419,7.0419,7.0419,7.0419,7.0419,7.0419,7.0419,7.0419,7.0419,7.0419,7.0419,7.0419,7.0419,7.0419,7.0419,7.0419,7.0419,7.0419,7.0419,7.0419,0.0,0.0,0.0,0.0,0.0,0.0,0.0,0.0,0.0,4.5346,4.6835,4.8034,4.8389,5.0052,5.0895,5.0452,5.1357,5.1502,5.0488,5.0814,5.0886,5.0452,5.0633,5.1031,5.1611,5.1611,5.19,5.248,5.248,5.248,0.0,0.0,0.0,5.2516,5.3349,5.3711,5.3711,5.3929,5.4472,5.5196,5.5196,5.5522,5.6066,5.6899,5.7239,5.7388,5.7534,5.7631,5.7642,5.7554,5.6804,0.0,5.6997,5.6226,5.5133,5.5464,5.5354,5.484,5.3812,0.0,0.0,0.0,0.0,0.0,0.0,0.0,0.0,0.0,5.3225,0.0,0.0,0.0,5.3151,0.0,0.0,5.4479,5.3208,5.5808,5.8452,6.0076,6.1086,6.2204,6.3694,6.3618,6.3923,6.4993,6.4305,6.4305,6.5337,6.5413,6.591,6.698,6.7591,6.8432,6.9502,7.0113,7.0419,7.0419,7.0419,7.0419,7.0419,7.0419,7.0419,7.0419,7.0419,7.0419,7.0419,7.0419,7.0419,7.0419,7.0419,7.0419,7.0419,7.0419,7.0419,7.0419,4.2252,4.2286,0.0,0.0,4.2286,4.2557,0.0,0.0,4.5561,4.6339,4.6968,4.7823,4.9103,5.0056,5.0749,5.1203,5.2697,5.2951,5.1357,5.2733,5.2878,5.1321,5.2009,5.2444,5.2444,5.2444,5.248,5.248,5.248,5.248,5.248,5.248,5.248,5.2516,5.3349,5.3711,5.3748,5.4544,5.5305,5.5957,5.5957,5.5957,5.6066,5.6899,5.7188,5.7188,5.7188,0.0,0.0,5.6528,5.6416,0.0,0.0,0.0,0.0,0.0,0.0,0.0,0.0,0.0,0.0,5.3408,0.0,0.0,0.0,0.0,5.3225,0.0,0.0,0.0,0.0,0.0,0.0,0.0,0.0,0.0,0.0,5.3641,5.5047,5.6732,5.9671,6.1936,6.2853,6.2166,6.2395,6.4114,6.3427,6.3656,6.5299,6.5413,6.6139,6.7821,6.7897,6.8699,7.0342,7.0381,7.0419,7.0419,7.0419,7.0419,7.0419,7.0419,7.0419,7.0419,7.0419,7.0419,7.0419,7.0419,7.0419,7.0419,7.0419,7.0419,7.0419,7.0419,7.0419,7.0419,0.0,0.0,0.0,4.3132,4.3031,4.3301,4.4079,4.455,4.52,4.6355,4.6951,4.7823,4.9139,5.0796,5.1907,5.2082,5.3566,5.4037,5.2951,5.3385,5.3458,5.2915,5.2625,5.2733,5.3277,5.277,5.248,5.248,5.248,5.248,5.248,5.248,5.248,5.2516,5.3349,5.4001,5.4508,5.4798,5.5341,5.5957,5.5486,5.5558,5.6029,5.6283,5.6391,5.6464,5.7107,5.7388,0.0,5.7339,5.7042,5.6768,5.707,5.6593,5.6051,5.6308,5.6198,0.0,0.0,0.0,5.6345,5.4473,0.0,0.0,0.0,0.0,0.0,0.0,0.0,0.0,0.0,0.0,0.0,0.0,0.0,0.0,0.0,5.4168,5.5601,5.6998,5.9299,6.1134,6.1975,6.228,6.293,6.4114,6.3923,6.4229,6.5337,6.5948,6.6751,6.7859,6.847,6.9273,7.0381,7.0419,7.0419,7.0419,7.0419,7.0419,7.0419,7.0419,7.0419,7.0419,7.0419,7.0419,7.0419,7.0419,7.0419,7.0419,7.0419,7.0419,7.0419,7.0419,7.0419,7.0419,4.4497,0.0,0.0,4.391,4.3842,4.4012,4.4485,4.4587,4.4992,4.6062,4.6914,4.7908,4.9274,5.1346,5.269,5.2915,5.4363,5.4834,5.3784,5.4218,5.4399,5.4146,5.3639,5.3711,5.4508,5.3458,5.2915,5.2915,5.2625,5.248,5.248,5.248,5.248,5.2516,5.3349,5.4146,5.4943,5.5196,5.574,5.6319,5.5305,5.5341,5.5993,5.5993,5.5993,5.6102,0.0,5.7569,5.7923,5.802,5.8019,5.804,5.86,5.8097,5.7409,5.7923,5.7703,5.7226,5.6969,5.7629,0.0,5.6124,5.6455,0.0,5.4913,0.0,5.4399,0.0,0.0,0.0,0.0,0.0,0.0,0.0,0.0,0.0,0.0,5.4502,5.5798,5.7125,5.8863,6.037,6.1478,6.186,6.2471,6.3656,6.3732,6.4114,6.4917,6.6063,6.7056,6.7859,6.8738,6.9578,7.0381,7.0419,7.0419,7.0419,7.0419,7.0419,7.0419,7.0419,7.0419,7.0419,7.0419,7.0419,7.0419,7.0419,7.0419,7.0419,7.0419,7.0419,7.0419,7.0419,7.0419,7.0419,4.4293,4.444,4.4587,4.4587,4.4587,4.4587,4.4587,4.4587,4.4914,4.5818,4.6975,4.8271,4.9644,5.1702,5.3175,5.3688,5.5196,5.5414,5.3892,5.5196,5.5703,5.4979,5.4943,5.5269,5.5957,5.4472,5.3711,5.3711,5.2878,5.248,5.248,5.248,5.2516,5.2589,5.3349,5.4146,5.4943,5.5631,5.6391,5.7007,5.5595,5.5414,5.6066,5.6102,5.6102,5.621,5.7043,5.7804,5.8507,5.8609,5.927,6.004,6.0139,6.0286,6.0419,6.0419,6.0419,6.0236,5.9501,5.9318,5.9134,5.8253,0.0,0.0,0.0,0.0,5.6638,0.0,0.0,0.0,0.0,0.0,0.0,0.0,0.0,0.0,5.3827,5.4461,5.5511,5.7138,5.8377,5.9731,6.1402,6.0867,6.1134,6.2777,6.2892,6.3312,6.4191,6.5796,6.7056,6.7859,6.8776,6.9616,7.0381,7.0419,7.0419,7.0419,7.0419,7.0419,7.0419,7.0419,7.0419,7.0419,7.0419,7.0419,7.0419,7.0419,7.0419,7.0419,7.0419,7.0419,7.0419,7.0419,7.0419,7.0419,4.4293,4.444,4.4587,4.4587,4.4587,4.4587,4.4587,4.4587,4.5589,4.8344,4.8598,4.9632,5.2502,5.3815,5.458,5.4721,5.6031,5.6464,5.545,5.5776,5.5921,5.574,5.5196,5.5269,5.5957,5.4472,5.3711,5.3711,5.2878,5.248,5.248,5.248,5.2806,5.3385,5.3603,5.4146,5.4907,5.5088,5.5631,5.6319,5.6536,5.6717,5.6971,0.0,5.7768,5.7876,5.8709,5.916,5.9444,5.9496,5.9743,6.0026,6.0139,6.0237,6.0237,6.0371,6.0419,6.0346,6.0162,6.0529,6.0639,5.9245,5.9355,5.9428,0.0,0.0,0.0,0.0,0.0,0.0,0.0,0.0,0.0,0.0,0.0,0.0,0.0,5.5525,5.6214,5.7266,5.814,5.9193,6.0571,6.1058,6.1745,6.2815,6.2892,6.3541,6.4993,6.6101,6.7056,6.7859,6.9349,7.019,7.0419,7.0419,7.0419,7.0419,7.0419,7.0419,7.0419,7.0419,7.0419,7.0419,7.0419,7.0419,7.0419,7.0419,7.0419,7.0419,7.0419,7.0419,7.0419,7.0419,7.0419,7.0419,4.4155,4.4596,4.497,4.506,4.5602,4.594,4.5602,4.5534,4.6465,4.9089,4.9642,5.0645,5.293,5.463,5.5633,5.5633,5.6593,5.6862,5.6029,5.6319,5.6355,5.6029,5.5957,5.6102,5.65,5.5341,5.4544,5.4218,5.3422,5.2842,5.2516,5.2842,5.3277,5.3748,5.4399,5.4943,5.5414,5.6138,5.6464,5.6573,5.7406,5.7949,0.0,5.8746,5.9361,6.005,6.0484,6.0501,6.0227,6.0227,6.0586,6.0944,6.1047,6.1098,6.1199,6.1299,6.1349,6.1349,6.1447,6.1777,6.1924,6.1006,6.1117,6.1117,5.9869,5.9575,5.9465,0.0,0.0,0.0,0.0,0.0,0.0,0.0,0.0,0.0,0.0,5.6049,5.6673,5.7323,5.8091,5.8936,6.0023,6.0704,6.1344,6.1995,6.2231,6.293,6.4229,6.5834,6.7056,6.7859,6.9196,7.0037,7.0419,7.0037,7.0037,7.0419,7.0419,7.0419,7.0419,7.0419,7.0419,7.0419,7.0419,7.0419,7.0419,7.0419,7.0419,7.0419,7.0419,7.0419,7.0419,7.0419,7.0419,7.0419,4.4031,4.4792,4.5496,4.5747,4.709,4.7868,4.7327,4.7124,4.7657,4.9209,5.0412,5.1434,5.2417,5.4617,5.609,5.6201,5.674,5.6848,5.621,5.679,5.6899,5.6174,5.6826,5.7188,5.7188,5.6391,5.5631,5.4907,5.411,5.3349,5.2661,5.3385,5.382,5.4074,5.5377,5.6066,5.6247,5.7659,5.7913,5.7442,5.8347,5.9144,5.976,5.9868,6.0774,6.2005,6.2005,6.1571,6.0991,6.0991,6.148,6.2222,6.2185,6.2291,6.2433,6.2552,6.2603,6.2654,6.2755,6.2805,6.2805,6.2805,6.2805,6.2622,6.1924,6.1741,6.1557,6.086,6.0713,6.0676,0.0,0.0,0.0,5.7336,0.0,0.0,0.0,5.6822,5.7361,5.7608,5.8285,0.0,5.9502,6.0,6.0531,6.1045,6.1294,6.1975,6.3159,6.5337,6.7018,6.805,6.889,6.9655,7.0228,6.9655,6.9655,7.0228,7.0342,7.0419,7.0419,7.0419,7.0419,7.0419,7.0419,7.0419,7.0419,7.0419,7.0419,7.0419,7.0419,7.0419,7.0419,7.0419,7.0419,7.0419,4.4842,4.5219,4.5606,4.6271,4.768,4.8984,4.9458,4.9018,4.9304,5.1382,5.1356,5.1872,5.3776,5.4468,5.4948,5.5519,5.6146,5.6599,5.6957,5.7116,5.7152,5.7007,5.7116,5.7188,5.7188,5.6391,5.5631,5.4907,5.411,5.3639,5.3494,5.3639,5.4363,5.5595,5.5884,5.6355,5.7007,5.7297,5.7695,5.8311,5.9796,6.0484,6.0665,6.1353,6.1752,6.2005,6.2005,6.1933,6.1788,6.1788,6.1897,6.206,6.2168,6.2291,6.2433,6.2552,6.2705,6.2755,6.2805,6.2805,6.2805,6.2805,6.2805,6.2768,6.2622,6.2585,6.2548,6.2438,6.2401,6.2181,6.152,0.0,0.0,0.0,0.0,0.0,0.0,5.9685,5.9585,5.8934,5.9294,5.9245,5.84,5.9289,6.0342,6.1429,6.0953,6.186,6.4802,6.5375,6.6674,0.0,6.9769,6.996,0.0,0.0,6.9922,6.9425,7.0075,7.0419,7.0419,7.0419,7.0419,7.0419,7.0419,7.0419,7.0419,7.0419,7.0419,7.0419,7.0419,7.0419,7.0419,7.0419,7.0419,7.0419,4.5577,4.6133,4.6757,4.768,4.9092,5.0405,5.1116,5.1285,5.1549,5.214,5.1953,5.216,5.3198,5.396,5.4516,5.4826,5.5716,5.642,5.6688,5.7036,5.7188,5.7188,5.7188,5.7188,5.7188,5.6826,5.6066,5.4907,0.0,0.0,0.0,5.4508,5.5269,5.6029,5.6862,5.7442,5.7876,5.8709,0.0,5.976,6.0955,6.1426,6.1462,6.186,6.2005,6.2005,6.2005,6.2005,6.2005,6.2005,6.2005,6.2005,6.206,6.2168,6.2222,6.2449,6.2552,6.2603,6.2755,6.2805,6.2805,6.2805,6.2805,6.2805,6.2805,6.2805,6.2805,6.2805,6.2805,6.2548,6.1741,6.0639,0.0,0.0,0.0,0.0,0.0,0.0,6.0272,5.9869,5.9615,5.9309,5.8947,5.9054,5.9439,5.9995,6.0064,6.1355,6.4285,6.5054,6.656,0.0,0.0,0.0,6.9807,0.0,6.9807,6.9846,7.0228,7.0419,7.0419,7.0419,7.0419,7.0419,7.0419,7.0419,7.0419,7.0419,7.0419,7.0419,7.0419,7.0419,7.0419,7.0419,7.0419,7.0419,4.6452,4.7111,4.7809,4.9164,5.0375,5.1454,5.2198,5.2976,5.3281,5.2638,5.257,5.257,5.257,5.357,5.4299,5.4391,5.5308,5.5943,5.609,5.6688,5.7036,5.7036,5.7138,5.7188,5.7188,5.7188,5.65,5.5124,0.0,0.0,0.0,5.5269,5.6174,5.6573,5.784,5.8601,0.0,0.0,6.0919,6.1136,6.1752,6.2005,6.2005,6.2005,6.2005,6.2005,6.2005,6.2005,6.2005,6.2005,6.2005,6.2005,6.2005,6.2005,6.206,6.2328,6.2381,6.2485,6.2654,6.2705,6.2755,6.2755,6.2755,6.2805,6.2805,6.2805,6.2805,6.2805,6.2805,6.2548,6.1741,6.108,0.0,0.0,0.0,0.0,0.0,0.0,6.086,6.0676,5.9942,5.9568,5.9893,5.9054,5.8609,5.898,5.9664,6.1207,6.385,0.0,0.0,0.0,0.0,6.9425,6.9846,0.0,6.9693,7.0151,7.0342,7.0419,7.0419,7.0419,7.0419,7.0419,7.0419,7.0419,7.0419,7.0419,7.0419,7.0419,7.0419,7.0419,7.0419,7.0419,7.0419,7.0419,4.7761,4.7751,4.8111,5.0419,5.102,5.1454,5.2198,5.2976,5.3484,5.3416,5.3382,5.3382,5.3382,5.3517,5.3783,5.4328,5.4516,5.4826,5.5461,5.6035,5.6366,5.6366,5.6933,5.7188,5.7188,5.7188,5.6754,0.0,0.0,5.5196,0.0,0.0,0.0,0.0,0.0,0.0,0.0,6.0738,6.1245,6.1897,6.2005,6.2005,6.2005,6.2005,6.2005,6.2005,6.2005,6.2005,6.2005,6.2005,6.2005,6.2005,6.2005,6.206,6.2222,6.2185,6.2291,6.2433,6.2433,6.25,6.2603,6.2603,6.2705,6.2805,6.2805,6.2805,6.2805,6.2805,6.2805,6.2548,6.1741,6.152,6.1263,0.0,0.0,0.0,0.0,0.0,6.2291,6.1557,6.0786,6.0272,6.032,5.897,5.8676,6.01,6.0641,6.2173,6.5085,0.0,0.0,6.912,6.9196,6.8852,6.8126,6.9578,6.996,6.9311,7.0037,7.0419,7.0419,7.0419,7.0419,7.0419,7.0419,7.0419,7.0419,7.0419,7.0419,7.0419,7.0419,7.0419,7.0419,7.0419,7.0419,7.0419,4.936,4.9458,4.9888,5.1428,5.1763,5.2131,5.2909,5.3281,5.3518,5.3518,5.3518,5.3518,5.3518,5.3518,5.3618,5.3849,5.4171,5.4703,5.5343,5.5978,5.6474,5.6793,5.7087,5.7188,5.7188,5.7188,5.7043,0.0,0.0,0.0,0.0,0.0,0.0,0.0,0.0,6.0194,6.0846,6.1317,6.1716,6.2005,6.2005,6.2005,6.2005,6.2005,6.2005,6.2005,6.2005,6.2005,6.2005,6.2005,6.2005,6.2005,6.2005,6.2005,6.2114,6.2222,6.2275,6.2328,6.2381,6.2449,6.2449,6.2449,6.25,6.2552,6.2552,6.2552,6.2552,6.2654,6.2755,6.2695,6.2401,6.1924,6.163,0.0,0.0,0.0,0.0,0.0,6.2511,6.1704,6.13,6.0933,6.0456,5.9832,5.9826,6.0691,6.075,6.184,0.0,0.0,0.0,6.8356,0.0,6.9268,6.8699,6.9807,7.0228,6.9922,7.0266,7.0419,7.0419,7.0419,7.0419,7.0419,7.0419,7.0419,7.0419,7.0419,7.0419,7.0419,7.0419,7.0419,7.0419,7.0419,7.0419,7.0419,5.066,5.0794,5.1095,5.2337,5.2403,5.257,5.3382,5.3518,5.3518,5.3518,5.3518,5.3518,5.3518,5.3518,5.3518,5.3518,5.3881,5.4362,5.4799,5.5426,5.5999,5.6635,5.6845,5.7036,5.7188,5.7442,5.755,5.755,5.7804,0.0,0.0,0.0,0.0,0.0,6.0557,6.0955,6.1208,6.1788,6.2005,6.2005,6.2005,6.2005,6.195,6.1748,6.184,6.195,6.1579,6.1579,6.1692,6.1692,6.1579,6.1487,6.1895,6.2005,6.2005,6.2114,6.2168,6.2168,6.2275,6.2328,6.2344,6.2344,6.2344,6.2433,6.2433,6.2433,6.2433,6.25,6.2603,6.2654,6.2654,6.2228,6.2022,6.2352,0.0,0.0,0.0,6.2658,0.0,6.2034,6.1741,6.1484,6.1153,6.0676,6.0819,6.1846,6.1549,6.2288,0.0,0.0,0.0,0.0,0.0,0.0,6.9196,6.9999,7.0419,7.0419,7.0419,7.0419,7.0419,7.0419,7.0419,7.0419,7.0419,7.0419,7.0419,7.0419,7.0419,7.0419,7.0419,7.0419,7.0419,7.0419,7.0419,7.0419,5.1563,5.1196,5.1329,5.3146,5.2841,5.257,5.3382,5.3518,5.3518,5.3518,5.3518,5.3518,5.3518,5.3518,5.3518,5.3518,5.3518,5.3484,5.3484,5.4042,5.4703,0.0,5.5978,5.6582,5.7188,5.7985,5.8383,5.8383,0.0,0.0,5.7188,0.0,5.8492,6.081,6.081,6.1245,6.2005,6.2005,6.2005,6.2005,6.2005,6.2005,6.195,6.1221,6.143,6.184,6.0503,6.0468,6.1045,6.1045,6.059,6.0219,6.1579,6.2005,6.2005,6.2005,6.2005,6.2005,6.2005,6.2114,6.2185,6.2185,6.2291,6.2433,6.2433,6.2433,6.2433,6.2397,6.2397,6.2397,6.2397,6.25,6.2311,6.1542,0.0,0.0,0.0,6.2291,0.0,6.2805,6.2071,6.1924,6.2695,6.1337,6.141,6.387,6.3696,0.0,0.0,0.0,0.0,6.8451,6.8527,0.0,6.9196,6.9999,7.0419,7.0419,7.0419,7.0419,7.0419,7.0419,7.0419,7.0419,7.0419,7.0419,7.0419,7.0419,7.0419,7.0419,7.0419,7.0419,7.0419,7.0419,7.0419,7.0419,5.2117,5.2091,5.216,5.2767,5.2771,5.2841,5.3213,5.328,5.3348,5.3484,5.3518,5.3518,5.3518,5.3518,5.3518,5.3518,5.3518,5.3651,0.0,5.4264,5.4703,5.5402,5.5578,5.602,5.6723,5.7457,5.8303,5.9378,0.0,0.0,0.0,5.9651,6.0375,6.1643,6.1643,6.1788,6.2005,6.2005,6.2005,6.195,6.1487,6.1315,6.1257,6.059,6.0406,6.0564,6.0156,6.0156,6.0282,6.0282,6.0156,6.0156,6.1045,6.1315,6.143,6.1895,6.2005,6.2005,6.2005,6.2005,6.206,6.206,6.2114,6.2259,6.2858,6.3457,6.3912,6.3912,6.393,6.3892,6.3308,6.3252,6.2996,6.223,6.2406,0.0,6.2288,0.0,6.2622,6.2034,6.2254,6.2511,6.2805,6.2879,6.3246,6.4016,6.3984,0.0,0.0,0.0,0.0,0.0,6.8485,0.0,6.9196,6.9999,7.0419,7.0419,7.0419,7.0419,7.0419,7.0419,7.0419,7.0419,7.0419,7.0419,7.0419,7.0419,7.0419,7.0419,7.0419,7.0419,7.0419,7.0419,7.0419,7.0419,5.2445,5.2553,5.2624,5.2694,5.2834,5.2972,5.3041,5.3179,5.3247,5.3348,5.3416,5.3518,5.3518,5.3518,0.0,5.3518,5.3518,5.3685,5.4076,5.4042,5.4362,5.5009,5.5288,5.5793,5.649,5.7506,0.0,5.9395,5.9895,6.0411,6.088,6.1136,6.1389,6.1636,6.1636,6.1636,6.1636,6.1372,6.1372,6.1579,6.0927,6.059,6.0529,5.9838,5.9774,5.9902,5.938,5.938,5.9578,5.9578,5.9447,5.938,6.0344,6.059,6.0807,6.1692,6.2005,6.2078,6.2367,6.244,6.2512,6.2838,6.2911,6.3019,6.3526,6.409,6.4509,6.4509,6.462,6.4494,6.3985,6.3966,6.3784,6.3311,6.3361,6.3356,6.3115,0.0,6.3048,6.2585,6.2989,0.0,0.0,6.4237,6.4677,0.0,6.5007,0.0,0.0,0.0,0.0,6.7881,6.8484,0.0,6.9417,6.9912,7.0179,7.0179,7.0353,7.0419,7.0419,7.0419,7.0419,7.0419,7.0419,7.0419,7.0419,7.0419,7.0419,7.0419,7.0419,7.0419,7.0419,7.0419,7.0419,7.0419,5.2553,5.2553,5.2624,5.2834,5.2834,5.2834,5.2903,5.3041,5.3179,5.3179,5.3348,5.3518,5.3518,5.3518,5.3518,5.3518,0.0,0.0,5.3518,5.3551,5.3785,5.4431,5.5154,5.5825,5.6484,5.7981,5.8815,5.8913,6.0331,6.0986,6.1104,6.1636,6.1636,6.0986,6.0986,6.0927,6.0927,6.0282,6.0344,6.0867,6.0219,5.9902,5.9838,5.9113,5.9247,5.9709,5.8351,5.8317,5.8841,5.8841,5.8388,5.8171,5.9582,6.0008,6.0262,6.1595,6.2023,6.2259,6.3056,6.3273,6.3454,6.4215,6.4432,6.4468,6.4468,6.4504,6.4577,6.4577,6.4577,6.4541,6.4468,6.4581,6.4637,6.4565,6.4658,6.4475,6.3868,6.3758,6.3899,6.409,0.0,0.0,6.5301,6.5375,6.5705,0.0,0.0,0.0,0.0,0.0,6.6544,6.8966,6.8633,6.8825,6.974,6.974,6.9778,6.9778,7.0179,7.0386,7.0419,7.0419,7.0419,7.0419,7.0419,7.0419,7.0419,7.0419,7.0419,7.0419,7.0419,7.0419,7.0419,7.0419,7.0419,7.0419,0.0,0.0,5.2445,5.2516,5.2516,5.2587,5.2624,5.2834,5.3041,5.3179,5.3348,5.3518,5.3518,5.3518,5.3518,5.3518,5.3518,5.3518,5.3518,5.4025,5.4398,5.4567,5.5281,5.603,5.6713,5.7633,5.8835,6.0463,6.082,6.1257,6.1748,6.143,6.1163,6.0986,6.0468,6.0219,6.0219,6.003,6.0093,6.0156,5.9412,5.9145,5.9113,5.8388,5.828,5.8351,5.8027,5.8027,5.8137,5.8137,5.7993,5.8128,5.9633,6.0116,6.0352,6.1757,6.2537,6.3092,6.3889,6.4106,6.4142,6.4359,6.4867,6.5301,6.5301,6.5772,6.6243,6.6243,6.6243,6.6025,6.5446,6.5301,6.5177,6.4561,6.402,6.3693,6.3529,6.36,6.3706,0.0,6.4412,6.516,6.6145,6.6219,6.6292,0.0,0.0,6.6586,6.6769,6.6402,6.6934,6.8548,6.8442,6.8688,6.9261,6.9261,6.9463,6.9816,6.9928,7.0109,7.0419,7.0419,7.0419,7.0419,7.0419,7.0419,7.0419,7.0419,7.0419,7.0419,7.0419,7.0419,7.0419,7.0419,7.0419,7.0419,5.2373,5.2373,5.2373,5.2373,5.2373,5.2445,5.2516,5.2624,5.2834,5.3041,5.328,5.3416,5.3518,5.3518,5.3653,5.3957,5.3687,5.3653,5.3991,5.4363,5.4735,5.5108,5.5818,5.6393,5.6799,5.7496,5.8462,5.9543,5.9867,6.0184,6.059,6.0529,6.0344,5.9995,5.9674,5.9513,5.9513,5.918,5.918,5.9447,5.8703,5.8458,5.8388,5.8027,5.7881,5.7881,5.7881,5.7881,5.7949,5.8287,5.8389,5.8598,5.975,6.035,6.0808,6.194,6.2702,6.3392,6.4219,6.4671,6.5048,6.541,6.5844,6.6134,6.6134,6.6496,6.6786,6.6786,6.6786,6.6677,6.6243,6.6134,6.6025,6.5555,6.4887,6.44,6.4511,6.4239,6.4239,6.4765,6.5257,6.595,6.6846,6.6973,6.7026,6.7026,6.7026,0.0,6.7026,6.7026,6.7473,6.8394,6.8185,6.8297,6.878,6.878,6.9003,6.9504,6.9701,6.989,7.0144,7.0353,7.0419,7.0419,7.0419,7.0419,7.0419,7.0419,7.0419,7.0419,7.0419,7.0419,7.0419,7.0419,7.0419,7.0419,5.2373,5.2373,5.2373,5.2373,5.2373,5.2373,5.2373,5.2483,5.2624,5.2834,5.3041,5.3247,5.3416,5.3518,5.3923,5.4532,5.4126,5.4093,5.4735,5.4871,5.5209,5.5852,5.6562,5.6968,5.6968,5.7577,5.7954,5.8065,5.8633,5.8977,5.9113,5.9578,5.9513,5.8909,5.8772,5.8772,5.8703,5.8137,5.8209,5.8703,5.8137,5.7881,5.7881,5.7881,5.7881,5.7915,5.8017,5.8051,5.8186,5.893,5.9167,5.9302,6.0047,6.07,6.1349,6.2178,6.2821,6.3527,6.433,6.5044,6.58,6.6641,6.6786,6.6786,6.6786,6.6786,6.6786,6.6786,6.6786,6.6786,6.6786,6.6786,6.675,6.6641,6.5953,6.5467,6.5581,0.0,6.4967,6.5879,6.6226,6.6701,6.7488,6.7633,6.7687,6.7687,6.7687,6.7687,6.7687,6.7687,6.7863,6.8247,6.7915,6.7915,6.8297,6.8297,6.8538,6.9003,6.9423,6.9623,6.9701,7.0144,7.0281,7.0281,7.0386,7.0419,7.0419,7.0419,7.0419,7.0419,7.0419,7.0419,7.0419,7.0419,7.0419,7.0419,5.2373,5.2373,5.2373,5.2373,5.2373,5.2373,5.2373,5.2483,5.2624,5.2624,5.2834,5.3041,5.3247,5.382,5.4327,5.46,5.5074,5.5412,5.5547,5.6122,5.6528,5.663,5.734,5.7712,5.7712,5.7814,5.8209,5.8772,5.8841,5.9247,5.9838,5.9314,5.9011,5.8909,5.8317,5.8099,5.8099,5.7954,5.7954,5.8099,5.7954,5.7881,5.7881,5.7881,5.7881,5.7983,5.8626,5.8829,5.8964,5.9674,5.9945,6.008,6.0858,6.1172,6.1384,6.2208,6.2884,6.3657,6.439,6.5095,6.5868,6.6632,6.6786,6.6786,6.6786,6.6786,6.6786,6.6786,6.6786,6.6786,6.6786,6.6786,6.6569,6.5881,6.512,6.4577,6.4634,0.0,6.493,6.5897,6.6793,6.7378,6.7633,6.7687,6.7687,6.7687,6.7687,6.7687,6.7687,6.7687,6.7741,6.7847,6.7741,6.7741,6.781,6.781,6.8033,6.8538,6.8548,6.8825,6.9219,6.9701,6.9891,6.9928,7.0247,7.0419,7.0419,7.0419,7.0419,7.0419,7.0419,7.0419,7.0419,7.0419,7.0419,7.0419,5.2373,5.2373,5.2373,5.2373,5.2373,5.2373,5.2373,5.2445,5.2516,5.2553,5.2694,5.3001,5.3542,5.4018,5.4626,5.5576,5.6018,5.6461,5.6867,5.6833,5.6968,5.7374,5.7712,5.7881,5.7881,5.7881,5.8065,5.8388,5.8388,5.8528,5.8875,5.8528,5.8388,5.8317,5.8027,5.7881,5.7881,5.7881,5.7881,5.7881,5.7881,5.7881,5.7915,5.8355,5.849,5.8592,5.9336,5.9607,5.9708,6.0486,6.0757,6.0892,6.1637,6.1873,6.1941,6.2279,6.2966,6.3643,6.4393,6.5141,6.576,6.611,6.6512,6.6786,6.6786,6.6786,6.6786,6.6786,6.6786,6.6786,6.6786,6.6786,6.6533,6.5736,6.5301,0.0,0.0,6.5105,6.5452,6.6365,6.6879,6.7303,6.7433,6.7524,6.7633,6.7687,6.7687,6.7687,6.7687,6.7687,6.7687,6.7687,6.7687,6.7687,6.7687,6.7687,6.781,6.8033,6.8247,6.8538,6.8734,6.9219,6.9385,6.9463,6.989,7.0073,7.0109,7.0281,7.0419,7.0419,7.0419,7.0419,7.0419,7.0419,7.0419,7.0419,5.2373,5.2373,5.2373,5.2373,5.2373,5.2373,5.2373,5.2373,5.2511,5.2715,5.2819,5.3157,5.4033,5.4515,5.5123,5.6337,5.6752,5.7234,5.7775,5.7374,5.7306,5.7881,5.7881,5.7881,5.7881,5.7881,5.7881,5.7881,5.7881,5.7881,5.7881,5.7881,5.7881,5.7881,5.7881,5.7881,5.7881,5.7881,5.7881,5.7881,5.7881,5.7983,5.822,5.8795,5.9133,5.937,6.0114,6.0385,6.0486,6.1298,6.1569,6.1637,6.2212,6.2381,6.2381,6.2381,6.2813,6.3422,6.4323,6.5008,6.5533,6.5887,6.6391,6.6786,6.6786,6.6786,6.6786,6.6786,6.6786,6.6786,6.6786,6.6786,6.6533,6.5736,0.0,0.0,0.0,6.5649,6.5939,6.6772,6.7019,6.719,6.7266,6.7414,6.7579,6.7687,6.7687,6.7687,6.7687,6.7687,6.7687,6.7687,6.7687,6.7687,6.7687,6.7687,6.7687,6.7687,6.8185,6.8394,6.8442,6.9003,6.9176,6.9134,6.9584,6.9816,6.9816,7.0144,7.0353,7.0419,7.0419,7.0419,7.0419,7.0419,7.0419,7.0419,5.2373,5.2373,5.2373,5.2373,5.2373,5.2373,5.2373,5.2373,5.2605,5.3235,5.3334,5.3705,5.4655,5.5355,5.5862,5.6218,5.7043,5.752,5.7588,5.7775,5.7814,5.7881,5.7881,5.7881,5.7881,5.7881,5.7881,5.7881,5.7881,5.7881,5.7881,5.7881,5.7881,5.7881,5.7881,5.7881,5.7881,5.7881,5.7881,5.7881,5.7881,5.8321,5.893,5.8998,5.9438,6.0114,6.0926,6.1231,6.1332,6.2076,6.2313,6.2313,6.2381,6.2381,6.2381,6.2381,6.2459,6.2813,6.4183,6.4669,6.5008,6.6391,6.6727,6.6786,6.6786,6.6786,6.6786,6.6786,6.6786,6.6786,6.6786,6.6786,6.6533,6.5736,0.0,0.0,6.5591,6.5706,6.611,6.691,6.7247,6.747,6.747,6.7579,6.7687,6.7687,6.7687,6.7687,6.7687,6.7687,6.7687,6.7687,6.7687,6.7687,6.7687,6.7687,6.7687,6.7687,6.8185,6.8394,6.8442,6.9303,6.9504,6.9134,6.9584,6.9816,6.9816,6.9853,7.0073,7.0419,7.0419,7.0419,7.0419,7.0419,7.0419,7.0419,5.2373,5.2373,5.2373,5.2373,5.2373,5.2373,5.2373,5.2738,5.3102,5.3367,5.3798,5.4394,5.5198,5.568,5.6088,5.6629,5.7122,5.7439,5.7588,5.7662,5.7735,5.7881,5.7881,5.7881,5.7881,5.7881,5.7881,5.7881,5.7881,5.7881,5.7881,5.7881,5.7881,5.7881,5.7881,5.7881,5.7881,5.7881,5.7881,5.7915,5.8389,5.8761,5.9133,6.008,6.0622,6.0926,6.1704,6.1975,6.2009,6.2313,6.2381,6.2381,6.2381,6.2381,6.2381,6.2381,6.2381,6.2581,6.3643,6.3933,6.4183,6.5141,6.576,6.6233,6.6668,6.6786,6.6786,6.6786,6.6786,6.6786,6.6786,6.6786,6.6533,6.5736,0.0,6.617,6.5663,6.6084,6.6519,6.6809,6.7076,6.7247,6.7303,6.747,6.7579,6.7687,6.7687,6.7687,6.7687,6.7687,6.7687,6.7687,6.7687,6.7687,6.7687,6.7687,6.7687,6.7687,6.7863,6.7967,6.8018,6.8346,6.8394,6.8247,6.8734,6.9091,6.9385,6.9662,7.0038,7.0419,7.0419,7.0419,7.0419,7.0419,7.0419,7.0419,5.2373,5.2373,5.2373,5.2373,5.2572,5.2705,5.2705,5.3301,5.3831,5.4063,5.456,5.5156,5.5885,5.6103,5.6378,5.6877,5.7063,5.7289,5.7514,5.7588,5.7735,5.7881,5.7881,5.7881,5.7881,5.7881,5.7881,5.7881,5.7881,5.7881,5.7881,5.7881,5.7881,5.7881,5.7881,5.7881,5.7881,5.7881,5.8017,5.8287,5.8795,5.9302,5.9844,6.0892,6.1434,6.1704,6.2212,6.2381,6.2381,6.2381,6.2381,6.2381,6.2381,6.2381,6.2381,6.2381,6.2381,6.2537,6.3042,6.3158,6.3383,6.4393,6.5141,6.5824,6.633,6.6668,6.6786,6.6786,6.6786,6.6786,6.6786,6.6786,6.6605,6.6062,6.646,6.6605,6.6062,6.646,6.6786,6.6786,6.6903,6.704,6.721,6.7414,6.7524,6.7687,6.7687,6.7687,6.7687,6.7687,6.7687,6.7687,6.7687,6.7687,6.7687,6.7687,6.7687,6.7687,6.7863,6.7915,6.7915,6.8084,6.8033,6.7967,6.8247,6.8548,6.8915,6.9219,6.9585,6.9999,6.9999,6.9999,6.9999,6.9999,6.9999,6.9999,5.2373,5.2373,5.2373,5.2373,5.297,5.34,5.3434,5.4063,5.4792,5.5521,5.562,5.5918,5.6614,5.668,5.668,5.668,5.6911,5.7063,5.7289,5.7662,5.7881,5.7881,5.7881,5.7881,5.7881,5.7881,5.7881,5.7881,5.7881,5.7881,5.7881,5.7881,5.7881,5.7881,5.7881,5.7881,5.7881,5.7881,5.8321,5.9032,5.9032,5.9945,6.1298,6.1298,6.1772,6.2381,6.2381,6.2381,6.2381,6.2381,6.2381,6.2381,6.2381,6.2381,6.2381,6.2381,6.2381,6.2381,6.2381,6.2381,6.2736,6.4253,6.5141,6.5697,6.5697,6.6233,6.6786,6.6786,6.6786,6.6786,6.6786,6.6786,6.6786,6.6786,6.6786,6.6786,6.6786,6.6786,6.6786,6.6786,6.6903,6.704,6.721,6.7414,6.7524,6.7687,6.7687,6.7687,6.7687,6.7687,6.7687,6.7687,6.7687,6.7687,6.7687,6.7687,6.7687,6.7687,6.8185,6.8394,6.8394,6.887,6.8825,6.8394,6.8394,6.8394,6.8394,6.8394,6.8642,6.9091,6.9091,6.9091,6.9091,6.9091,6.9091,6.9091,5.2373,5.2373,5.2539,5.3036,5.3268,5.3599,5.4096,5.4825,5.5388,5.5587,5.6051,5.6448,5.668,5.668,5.668,5.668,5.6757,5.6911,5.7289,5.7514,5.7735,5.7881,5.7881,5.7881,5.7881,5.7881,5.7881,5.7881,5.7881,5.7881,5.7881,5.7881,5.7881,5.7881,5.7881,5.7881,5.7915,5.8457,5.8795,5.9099,6.0182,6.0892,6.1366,6.1873,6.2212,6.2381,6.2381,6.2381,6.2381,6.2381,6.2381,6.2381,6.2381,6.2381,6.2381,6.2381,6.2381,6.2381,6.2381,6.2381,6.2581,6.357,6.397,6.4463,6.5468,6.5887,6.6172,6.6668,6.6786,6.6786,6.6786,6.6786,6.6786,6.6786,6.6786,6.6786,6.6786,6.6786,6.6786,6.6786,6.6903,6.7019,6.704,6.7303,6.7561,6.7524,6.7633,6.7687,6.7687,6.7687,6.7687,6.7687,6.7687,6.7687,6.7687,6.7687,6.7687,6.7687,6.781,6.7915,6.7915,6.8033,6.8033,6.7915,6.7915,6.8084,6.8394,6.8394,6.8642,6.9091,6.9091,6.9091,6.9091,6.9091,6.9091,6.9091,5.2373,5.2605,5.2937,5.3334,5.3897,5.4427,5.4891,5.5587,5.6051,5.6051,5.6415,5.668,5.668,5.668,5.668,5.668,5.6757,5.6911,5.7139,5.7439,5.7662,5.7808,5.7881,5.7881,5.7881,5.7881,5.7881,5.7881,5.7881,5.7881,5.7881,5.7881,5.7881,5.7881,5.7881,5.8051,5.8355,5.8829,5.937,6.0013,6.0926,6.1467,6.1772,6.2212,6.2381,6.2381,6.2381,6.2381,6.2381,6.2381,6.2381,6.2381,6.2381,6.2381,6.2381,6.2381,6.2381,6.2381,6.2381,6.2381,6.2537,6.2931,6.3308,6.3716,6.4601,6.5273,6.5824,6.6233,6.6608,6.6786,6.6786,6.6786,6.6786,6.6786,6.6786,6.6786,6.6786,6.6786,6.6786,6.6786,6.6845,6.6961,6.6983,6.719,6.7359,6.747,6.7633,6.7687,6.7687,6.7687,6.7687,6.7687,6.7687,6.7687,6.7687,6.7687,6.7687,6.7687,6.7687,6.7687,6.7687,6.7687,6.7687,6.7687,6.7687,6.7863,6.8134,6.8134,6.8297,6.8538,6.8538,6.8538,6.8538,6.8538,6.8538,6.8538,5.2473,5.297,5.3467,5.3599,5.4725,5.5653,5.5719,5.6282,5.668,5.668,5.668,5.668,5.668,5.668,5.668,5.668,5.6834,5.6987,5.6987,5.7364,5.7588,5.7588,5.7808,5.7881,5.7881,5.7881,5.7881,5.7881,5.7881,5.7881,5.7881,5.7881,5.7881,5.7881,5.7949,5.8355,5.9032,5.9167,6.0013,6.1298,6.1366,6.1806,6.2381,6.2381,6.2381,6.2381,6.2381,6.2381,6.2381,6.2381,6.2381,6.2381,6.2381,6.2381,6.2381,6.2381,6.2381,6.2381,6.2381,6.2381,6.2381,6.2381,6.2889,6.3457,6.3496,6.4601,6.5597,6.5697,6.6294,6.6786,6.6786,6.6786,6.6786,6.6786,6.6786,6.6786,6.6786,6.6786,6.6786,6.6786,6.6786,6.6845,6.6961,6.6983,6.719,6.747,6.7633,6.7687,6.7687,6.7687,6.7687,6.7687,6.7687,6.7687,6.7687,6.7687,6.7687,6.7687,6.7687,6.7687,6.7687,6.7687,6.7687,6.7687,6.7687,6.7687,6.7687,6.7687,6.7687,6.7687,6.7687,6.7687,6.7687,6.7687,6.7687,6.7687,5.3069,5.3301,5.3765,5.4957,5.5421,5.5819,5.6382,5.6581,5.668,5.668,5.668,5.668,5.668,5.668,5.668,5.668,5.6757,5.6834,5.6987,5.7214,5.7439,5.7588,5.7808,5.7881,5.7881,5.7881,5.7881,5.7881,5.7881,5.7881,5.7881,5.7881,5.7881,5.7915,5.849,5.8863,5.9099,6.0283,6.0994,6.1366,6.1907,6.2245,6.2381,6.2381,6.2381,6.2381,6.2381,6.2381,6.2381,6.2381,6.2381,6.2381,6.2381,6.2381,6.2381,6.2381,6.2381,6.2381,6.2381,6.2381,6.2381,6.2381,6.2537,6.2813,6.3383,6.4183,6.5008,6.5597,6.6294,6.6786,6.6786,6.6786,6.6786,6.6786,6.6786,6.6786,6.6786,6.6786,6.6786,6.6786,6.6786,6.6786,6.6845,6.704,6.7266,6.7633,6.7687,6.7687,6.7687,6.7687,6.7687,6.7687,6.7687,6.7687,6.7687,6.7687,6.7687,6.7687,6.7687,6.7687,6.7687,6.7687,6.7687,6.7687,6.7687,6.7687,6.7687,6.7687,6.7687,6.7687,6.7687,6.7687,6.7687,6.7687,6.7687,6.7687,5.2786,5.3667,5.4725,5.5487,5.5918,5.6249,5.6614,5.668,5.668,5.668,5.668,5.668,5.668,5.668,5.668,5.668,5.668,5.6757,5.6834,5.7063,5.7214,5.7439,5.7662,5.7808,5.7881,5.7881,5.7881,5.7881,5.7881,5.7881,5.7881,5.7881,5.8084,5.8457,5.8829,5.9438,6.0148,6.096,6.1501,6.1839,6.2245,6.2381,6.2381,6.2381,6.2381,6.2381,6.2381,6.2381,6.2381,6.2381,6.2381,6.2381,6.2381,6.2381,6.2381,6.2381,6.2381,6.2381,6.2381,6.2381,6.2381,6.2381,6.2381,6.2581,6.3308,6.4041,6.4806,6.5533,6.6294,6.6786,6.6786,6.6786,6.6786,6.6786,6.6786,6.6786,6.6786,6.6786,6.6786,6.6786,6.6786,6.6786,6.6903,6.7097,6.7322,6.7579,6.7633,6.7687,6.7687,6.7687,6.7687,6.7687,6.7687,6.7687,6.7687,6.7687,6.7687,6.7687,6.7687,6.7687,6.7687,6.7687,6.7687,6.7687,6.7687,6.7687,6.7687,6.7687,6.7687,6.7687,6.7687,6.7687,6.7687,6.7687,6.7687,6.7687,5.2462,5.4044,5.5501,5.5709,5.6282,5.668,5.668,5.668,5.668,5.668,5.668,5.668,5.668,5.668,5.668,5.668,5.668,5.668,5.668,5.6911,5.7063,5.7214,5.7439,5.7662,5.7808,5.7881,5.7881,5.7881,5.7881,5.7881,5.7881,5.8017,5.8423,5.9032,5.9302,6.0114,6.1298,6.1434,6.1839,6.2381,6.2381,6.2381,6.2381,6.2381,6.2381,6.2381,6.2381,6.2381,6.2381,6.2381,6.2381,6.2381,6.2381,6.2381,6.2381,6.2381,6.2381,6.2381,6.2381,6.2381,6.2381,6.2381,6.2381,6.2581,6.3308,6.4041,6.4806,6.5403,6.6172,6.6786,6.6786,6.6786,6.6786,6.6786,6.6786,6.6786,6.6786,6.6786,6.6786,6.6786,6.6786,6.6845,6.7019,6.7097,6.7266,6.747,6.7579,6.7687,6.7687,6.7687,6.7687,6.7687,6.7687,6.7687,6.7687,6.7687,6.7687,6.7687,6.7687,6.7687,6.7687,6.7687,6.7687,6.7687,6.7687,6.7687,6.7687,6.7687,6.7687,6.7687,6.7687,6.7687,6.7687,6.7687,6.7687,6.7687,5.3599,5.4226,5.49,5.6338,5.6614,5.668,5.668,5.668,5.668,5.668,5.668,5.668,5.668,5.668,5.668,5.668,5.668,5.668,5.668,5.6911,5.6987,5.7063,5.7439,5.7588,5.7662,5.7808,5.7881,5.7881,5.7881,5.7881,5.7915,5.8558,5.893,5.9066,6.0385,6.1095,6.1332,6.1975,6.2313,6.2381,6.2381,6.2381,6.2381,6.2381,6.2381,6.2381,6.2381,6.2381,6.2381,6.2381,6.2381,6.2381,6.2381,6.2381,6.2381,6.2381,6.2381,6.2381,6.2381,6.2381,6.2381,6.2381,6.2381,6.2581,6.3308,6.4041,6.4601,6.4738,6.5824,6.6786,6.6786,6.6786,6.6786,6.6786,6.6786,6.6786,6.6786,6.6786,6.6786,6.6786,6.6786,6.6845,6.7019,6.7019,6.719,6.7506,6.7561,6.7579,6.7687,6.7687,6.7687,6.7687,6.7687,6.7687,6.7687,6.7687,6.7687,6.7687,6.7687,6.7687,6.7687,6.7687,6.7687,6.7687,6.7687,6.7687,6.7687,6.7687,6.7687,6.7687,6.7687,6.7687,6.7687,6.7687,6.7687,6.7687,5.3254,5.4244,5.5277,5.6459,5.668,5.668,5.668,5.668,5.668,5.668,5.668,5.668,5.668,5.668,5.668,5.668,5.668,5.668,5.668,5.6757,5.6911,5.6987,5.7139,5.7364,5.7588,5.7662,5.7808,5.7881,5.7881,5.8084,5.8524,5.8863,5.9471,6.0317,6.0994,6.1535,6.1941,6.2245,6.2381,6.2381,6.2381,6.2381,6.2381,6.2381,6.2381,6.2381,6.2381,6.2381,6.2381,6.2381,6.2381,6.2381,6.2381,6.2381,6.2381,6.2381,6.2381,6.2381,6.2381,6.2381,6.2381,6.2381,6.2381,6.2459,6.2813,6.3422,6.4183,6.5074,6.576,6.6294,6.6727,6.6786,6.6786,6.6786,6.6786,6.6786,6.6786,6.6786,6.6786,6.6786,6.6786,6.6845,6.7019,6.7019,6.7097,6.7359,6.7322,6.7322,6.7433,6.7524,6.7579,6.7579,6.7633,6.7687,6.7687,6.7687,6.7687,6.7687,6.7687,6.7687,6.7687,6.7687,6.7687,6.7687,6.7687,6.7687,6.7687,6.7687,6.7687,6.7687,6.7687,6.7687,6.7687,6.7687,6.7687,6.7687]},{"header":{"parameterUnit":"m.s-1","parameterCategory":1,"la1":30.6,"la2":28.766,"lo1":-90.7593,"lo2":-88.6598,"dy":0.0162,"dx":0.0183,"nx":116,"ny":114,"refTime":"2023-03-09T18:00:00:Z","depth":0,"parameterNumber":3,"parameterNumberName":"V-component_of_WINDS"},"data":[0.0,0.0,0.0,0.0,0.0,0.0,0.0,0.0,0.0,0.0,0.0,0.0,0.0,0.0,0.0,0.0,0.0,0.0,0.0,0.0,0.0,0.0,0.0,0.0,0.0,0.0,0.0,0.0,0.0,0.0,0.0,0.0,0.0,0.0,0.0,0.0,0.0,0.0,0.0,0.0,0.0,0.0,0.0,0.0,0.0,0.0,0.0,0.0,0.0,0.0,0.0,0.0,0.0,0.0,0.0,0.0,0.0,0.0,0.0,0.0,0.0,0.0,0.0,0.0,0.0,0.0,0.0,0.0,0.0,0.0,0.0,0.0,0.0,0.0,0.0,0.0,0.0,0.0,0.0,0.0,0.0,0.0,0.0,0.0,0.0,0.0,0.0,0.0,0.0,0.0,0.0,0.0,0.0,0.0,0.0,0.0,0.0,0.0,0.0,0.0,0.0,0.0,0.0,0.0,0.0,0.0,0.0,0.0,0.0,0.0,0.0,0.0,0.0,0.0,0.0,0.0,0.0,0.0,0.0,0.0,0.0,0.0,0.0,0.0,0.0,0.0,0.0,0.0,0.0,0.0,0.0,0.0,0.0,0.0,0.0,0.0,0.0,0.0,0.0,0.0,0.0,0.0,0.0,0.0,0.0,0.0,0.0,0.0,0.0,0.0,0.0,0.0,0.0,0.0,0.0,0.0,0.0,0.0,0.0,0.0,0.0,0.0,0.0,0.0,0.0,0.0,0.0,0.0,0.0,0.0,0.0,0.0,0.0,0.0,0.0,0.0,0.0,0.0,0.0,0.0,0.0,0.0,0.0,0.0,0.0,0.0,0.0,0.0,0.0,0.0,0.0,0.0,0.0,0.0,0.0,0.0,0.0,0.0,0.0,0.0,0.0,0.0,0.0,0.0,0.0,0.0,0.0,0.0,0.0,0.0,0.0,0.0,0.0,0.0,0.0,0.0,0.0,0.0,0.0,0.0,0.0,0.0,0.0,0.0,0.0,0.0,0.0,0.0,0.0,0.0,0.0,0.0,0.0,0.0,0.0,0.0,0.0,0.0,0.0,0.0,0.0,0.0,0.0,0.0,0.0,0.0,0.0,0.0,0.0,0.0,0.0,0.0,0.0,0.0,0.0,0.0,0.0,0.0,0.0,0.0,0.0,0.0,0.0,0.0,0.0,0.0,0.0,0.0,0.0,0.0,0.0,0.0,0.0,0.0,0.0,0.0,0.0,0.0,0.0,0.0,0.0,0.0,0.0,0.0,0.0,0.0,0.0,0.0,0.0,0.0,0.0,0.0,0.0,0.0,0.0,0.0,0.0,0.0,0.0,0.0,0.0,0.0,0.0,0.0,0.0,0.0,0.0,0.0,0.0,0.0,0.0,0.0,0.0,0.0,0.0,0.0,0.0,0.0,0.0,0.0,0.0,0.0,0.0,0.0,0.0,0.0,0.0,0.0,0.0,0.0,0.0,0.0,0.0,0.0,0.0,0.0,0.0,0.0,0.0,0.0,0.0,0.0,0.0,0.0,0.0,0.0,0.0,0.0,0.0,0.0,0.0,0.0,0.0,0.0,0.0,0.0,0.0,0.0,0.0,0.0,0.0,0.0,0.0,0.0,0.0,0.0,0.0,0.0,0.0,0.0,0.0,0.0,0.0,0.0,0.0,0.0,0.0,0.0,0.0,0.0,0.0,0.0,0.0,0.0,0.0,0.0,0.0,0.0,0.0,0.0,0.0,0.0,0.0,0.0,0.0,0.0,0.0,0.0,0.0,0.0,0.0,0.0,0.0,0.0,0.0,0.0,0.0,0.0,0.0,0.0,0.0,0.0,0.0,0.0,0.0,0.0,0.0,0.0,0.0,0.0,0.0,0.0,0.0,0.0,0.0,0.0,0.0,0.0,0.0,0.0,0.0,0.0,0.0,0.0,0.0,0.0,0.0,0.0,0.0,0.0,0.0,0.0,0.0,0.0,0.0,0.0,0.0,0.0,0.0,0.0,0.0,0.0,0.0,0.0,0.0,0.0,0.0,0.0,0.0,0.0,0.0,0.0,0.0,0.0,0.0,0.0,0.0,0.0,0.0,0.0,0.0,0.0,0.0,0.0,0.0,0.0,0.0,0.0,0.0,0.0,0.0,0.0,0.0,0.0,0.0,0.0,0.0,0.0,0.0,0.0,0.0,0.0,0.0,0.0,0.0,0.0,0.0,0.0,0.0,0.0,0.0,0.0,0.0,0.0,0.0,0.0,0.0,0.0,0.0,0.0,0.0,0.0,0.0,0.0,0.0,0.0,0.0,0.0,0.0,0.0,0.0,0.0,0.0,0.0,0.0,0.0,0.0,0.0,0.0,0.0,0.0,0.0,0.0,0.0,0.0,0.0,0.0,0.0,0.0,0.0,0.0,0.0,0.0,0.0,0.0,0.0,0.0,0.0,0.0,0.0,0.0,0.0,0.0,0.0,0.0,0.0,0.0,0.0,0.0,0.0,0.0,0.0,0.0,0.0,0.0,0.0,0.0,0.0,0.0,0.0,0.0,0.0,0.0,0.0,0.0,0.0,0.0,0.0,0.0,0.0,0.0,0.0,0.0,0.0,0.0,0.0,0.0,0.0,0.0,0.0,0.0,0.0,0.0,0.0,0.0,0.0,0.0,0.0,0.0,0.0,0.0,0.0,0.0,0.0,0.0,0.0,0.0,0.0,0.0,0.0,0.0,0.0,0.0,0.0,0.0,0.0,0.0,0.0,0.0,0.0,0.0,0.0,0.0,0.0,0.0,0.0,0.0,0.0,0.0,0.0,0.0,0.0,0.0,0.0,0.0,0.0,0.0,0.0,0.0,0.0,0.0,0.0,0.0,0.0,0.0,0.0,0.0,0.0,0.0,0.0,0.0,0.0,0.0,0.0,0.0,0.0,0.0,0.0,0.0,0.0,0.0,0.0,0.0,0.0,0.0,0.0,0.0,0.0,0.0,0.0,0.0,0.0,0.0,0.0,0.0,0.0,0.0,0.0,0.0,0.0,0.0,0.0,0.0,0.0,0.0,0.0,0.0,0.0,0.0,0.0,0.0,0.0,0.0,0.0,0.0,0.0,0.0,0.0,0.0,0.0,0.0,0.0,0.0,0.0,0.0,0.0,0.0,0.0,0.0,0.0,0.0,0.0,0.0,0.0,0.0,0.0,0.0,0.0,0.0,0.0,0.0,0.0,0.0,0.0,0.0,0.0,0.0,0.0,0.0,0.0,0.0,0.0,0.0,0.0,0.0,0.0,0.0,0.0,0.0,0.0,0.0,0.0,0.0,0.0,0.0,0.0,0.0,0.0,0.0,0.0,0.0,0.0,0.0,0.0,0.0,0.0,0.0,0.0,0.0,0.0,0.0,0.0,0.0,0.0,0.0,0.0,0.0,0.0,0.0,0.0,0.0,0.0,0.0,0.0,0.0,0.0,0.0,0.0,0.0,0.0,0.0,0.0,0.0,0.0,0.0,0.0,0.0,0.0,0.0,0.0,0.0,0.0,0.0,0.0,0.0,0.0,0.0,0.0,0.0,0.0,0.0,0.0,0.0,0.0,0.0,0.0,0.0,0.0,0.0,0.0,0.0,0.0,0.0,0.0,0.0,0.0,0.0,0.0,0.0,0.0,0.0,0.0,0.0,0.0,0.0,0.0,0.0,0.0,0.0,0.0,0.0,0.0,0.0,0.0,0.0,0.0,0.0,0.0,0.0,0.0,0.0,0.0,0.0,0.0,0.0,0.0,0.0,0.0,0.0,0.0,0.0,0.0,0.0,0.0,0.0,0.0,0.0,0.0,0.0,0.0,0.0,0.0,0.0,0.0,0.0,0.0,0.0,0.0,0.0,0.0,0.0,0.0,0.0,0.0,0.0,0.0,0.0,0.0,0.0,0.0,0.0,0.0,0.0,0.0,0.0,0.0,0.0,0.0,0.0,0.0,0.0,0.0,0.0,0.0,0.0,0.0,0.0,0.0,0.0,0.0,0.0,0.0,0.0,0.0,0.0,0.0,0.0,0.0,0.0,0.0,0.0,0.0,0.0,0.0,0.0,0.0,0.0,0.0,0.0,0.0,0.0,0.0,0.0,0.0,0.0,0.0,0.0,0.0,0.0,0.0,0.0,0.0,0.0,0.0,0.0,0.0,0.0,0.0,0.0,0.0,0.0,0.0,0.0,0.0,0.0,0.0,0.0,0.0,0.0,0.0,0.0,0.0,0.0,0.0,0.0,0.0,0.0,0.0,0.0,0.0,0.0,0.0,0.0,0.0,0.0,0.0,0.0,0.0,0.0,0.0,0.0,0.0,0.0,0.0,0.0,0.0,0.0,0.0,0.0,0.0,0.0,0.0,0.0,0.0,0.0,0.0,0.0,0.0,0.0,0.0,0.0,0.0,0.0,0.0,0.0,0.0,0.0,0.0,0.0,0.0,0.0,0.0,0.0,0.0,0.0,0.0,0.0,0.0,0.0,0.0,0.0,0.0,0.0,0.0,0.0,0.0,0.0,0.0,0.0,0.0,0.0,0.0,0.0,0.0,0.0,0.0,0.0,0.0,0.0,0.0,0.0,0.0,0.0,0.0,0.0,0.0,0.0,0.0,0.0,0.0,0.0,0.0,0.0,0.0,0.0,0.0,0.0,0.0,0.0,0.0,0.0,0.0,0.0,0.0,0.0,0.0,0.0,0.0,0.0,0.0,0.0,0.0,0.0,0.0,0.0,0.0,0.0,0.0,0.0,0.0,0.0,0.0,0.0,0.0,0.0,0.0,0.0,0.0,0.0,0.0,0.0,0.0,0.0,0.0,0.0,0.0,0.0,0.0,0.0,0.0,0.0,0.0,0.0,0.0,0.0,0.0,0.0,0.0,0.0,0.0,0.0,0.0,0.0,0.0,0.0,0.0,0.0,0.0,0.0,0.0,0.0,0.0,0.0,0.0,0.0,0.0,0.0,0.0,0.0,0.0,0.0,0.0,0.0,0.0,0.0,0.0,0.0,0.0,0.0,0.0,0.0,0.0,0.0,0.0,0.0,0.0,0.0,0.0,0.0,0.0,0.0,0.0,0.0,0.0,0.0,0.0,0.0,0.0,0.0,0.0,0.0,0.0,0.0,0.0,0.0,0.0,0.0,0.0,0.0,0.0,0.0,0.0,0.0,0.0,0.0,0.0,0.0,0.0,0.0,0.0,0.0,0.0,0.0,0.0,0.0,0.0,0.0,0.0,0.0,0.0,0.0,0.0,0.0,0.0,0.0,0.0,0.0,0.0,0.0,0.0,0.0,0.0,0.0,0.0,0.0,0.0,0.0,0.0,0.0,0.0,0.0,0.0,0.0,0.0,0.0,0.0,0.0,0.0,0.0,0.0,0.0,0.0,0.0,0.0,0.0,0.0,0.0,0.0,0.0,0.0,0.0,0.0,0.0,0.0,0.0,0.0,0.0,0.0,0.0,0.0,0.0,0.0,0.0,0.0,0.0,0.0,0.0,0.0,0.0,0.0,0.0,0.0,0.0,0.0,0.0,0.0,0.0,0.0,0.0,0.0,0.0,0.0,0.0,0.0,0.0,0.0,0.0,0.0,0.0,0.0,0.0,0.0,0.0,0.0,0.0,0.0,0.0,0.0,0.0,0.0,0.0,0.0,0.0,0.0,0.0,0.0,0.0,0.0,0.0,0.0,0.0,0.0,0.0,0.0,0.0,0.0,0.0,0.0,0.0,0.0,0.0,0.0,0.0,0.0,0.0,0.0,0.0,0.0,0.0,0.0,0.0,0.0,0.0,0.0,0.0,0.0,0.0,0.0,0.0,0.0,0.0,0.0,0.0,0.0,0.0,0.0,0.0,0.0,0.0,0.0,0.0,0.0,0.0,0.0,0.0,0.0,0.0,0.0,0.0,0.0,0.0,0.0,0.0,0.0,0.0,0.0,0.0,0.0,0.0,0.0,0.0,0.0,0.0,0.0,0.0,0.0,0.0,0.0,0.0,0.0,0.0,0.0,0.0,0.0,0.0,0.0,0.0,0.0,0.0,0.0,0.0,0.0,0.0,0.0,0.0,0.0,0.0,0.0,0.0,0.0,0.0,0.0,0.0,0.0,0.0,0.0,0.0,0.0,0.0,0.0,0.6173,0.0,0.0,0.0,0.0,0.0,0.0,0.0,0.0,0.0,0.0,0.0,0.0,0.0,0.0,0.0,0.0,0.0,0.0,0.0,0.0,0.0,0.0,0.0,0.0,0.0,0.0,0.0,0.0,0.0,0.0,0.0,0.0,0.0,0.0,0.0,0.0,0.0,0.0,0.0,0.0,0.0,0.0,0.0,0.0,0.0,0.0,0.0,0.0,0.0,0.0,0.0,0.0,0.0,0.0,0.0,0.0,0.0,0.0,0.0,0.0,0.0,0.0,0.0,0.0,0.0,0.0,0.0,0.0,0.0,0.0,0.0,0.0,0.0,0.0,0.0,0.0,0.0,0.0,0.0,0.0,0.0,0.0,0.0,0.0,0.0,0.0,0.0,0.0,0.0,0.0,0.0,0.0,0.0,0.0,0.0,0.0,0.0,0.0,0.0,0.0,0.0,0.0,0.0,0.0,0.0,0.0,0.0,0.0,0.0,0.0,0.0,0.0,0.0,0.0,0.0,0.0,0.6374,0.0,0.0,0.0,0.0,0.0,0.0,0.0,0.0,0.0,0.0,0.0,0.0,0.0,0.0,0.0,0.0,0.0,0.0,0.0,0.0,0.0,0.0,0.0,0.0,0.0,0.0,0.0,0.0,0.0,0.0,0.0,0.0,0.0,0.0,0.0,0.0,0.0,0.0,0.0,0.0,0.0,0.0,0.0,0.0,0.0,0.0,0.0,0.0,0.0,0.0,0.0,0.0,0.0,0.0,0.0,0.0,0.0,0.0,0.0,0.0,0.0,0.0,0.0,0.0,0.0,0.0,0.0,0.0,0.0,0.0,0.0,0.0,0.0,0.0,0.0,0.0,0.0,0.0,0.0,0.0,0.0,0.0,0.0,0.0,0.0,0.0,0.0,0.0,0.0,0.0,0.0,0.0,0.0,0.0,0.0,0.0,0.0,0.0,0.0,0.0,0.0,0.0,0.0,0.0,0.0,0.0,0.0,0.0,0.819,0.8309,0.8836,0.8441,0.813,0.7812,0.8024,0.7509,0.654,0.6416,0.0,0.0,0.0,0.0,0.0,0.0,0.0,0.0,0.0,0.0,0.0,0.0,0.0,0.0,0.0,0.0,0.0,0.0,0.0,0.0,0.0,0.0,0.0,0.0,0.0,0.0,0.0,0.0,0.0,0.0,0.0,0.0,0.0,0.0,0.0,0.0,0.0,0.0,1.1129,1.1405,1.1558,1.1486,1.1486,0.0,0.0,0.0,0.0,0.0,0.0,0.0,0.0,0.0,0.0,0.0,0.0,0.0,0.0,0.0,0.0,0.0,0.0,0.0,0.0,0.0,0.0,0.0,0.0,0.0,0.0,0.0,0.0,0.0,0.0,0.0,0.0,0.0,0.0,0.0,0.0,0.0,0.0,0.0,0.0,0.0,0.0,0.0,0.4859,0.479,0.0,0.0,0.0,0.0,0.0,0.0,0.0,0.0,0.0,0.0,0.0,0.0,0.0,0.5492,0.6327,0.6358,0.6901,0.7954,0.8721,0.8676,0.8138,0.9566,0.9406,0.7974,0.8859,0.0,0.7497,0.6654,0.0,0.0,0.0,0.0,0.0,0.0,0.0,0.0,0.0,0.0,0.0,0.0,0.0,0.0,0.0,0.0,0.0,0.0,0.0,0.0,0.0,0.0,0.0,0.0,0.0,0.0,0.0,0.0,0.0,0.0,0.0,0.0,0.0,0.0,0.0,0.0,1.0794,1.1558,1.1782,1.2067,1.2257,1.2447,1.2447,1.2242,1.1887,1.1758,0.0,0.0,0.0,0.0,0.0,0.0,0.0,0.0,0.0,0.0,0.0,0.0,0.0,0.0,0.0,0.0,0.0,0.0,0.0,0.0,0.0,0.0,0.0,0.0,0.0,0.0,0.0,0.0,0.0,0.0,0.0,0.0,0.0,0.0,0.0,0.0,0.0,0.0,0.0,0.4716,0.481,0.4769,0.4798,0.481,0.0,0.0,0.0,0.0,0.0,0.0,0.0,0.0,0.0,0.5047,0.5137,0.5289,0.5719,0.6315,0.6997,0.7967,0.89,0.9377,0.9486,1.0327,1.0249,0.9471,0.9471,0.9173,0.8608,0.7079,0.6147,0.5566,0.0,0.0,0.0,0.0,0.5022,0.4954,0.0,0.0,0.0,0.0,0.0,0.0,0.0,0.0,0.0,0.0,0.0,0.0,0.0,0.0,0.0,0.8276,0.0,0.0,0.0,0.0,0.0,0.0,0.0,0.0,0.0,0.0,0.0,0.0,1.1612,1.2107,1.2175,1.2628,1.2856,1.2856,1.292,1.2641,1.2124,1.1951,1.1844,0.0,0.0,0.0,0.0,0.0,0.0,0.0,0.0,0.0,0.0,0.0,0.0,0.0,0.0,0.0,0.0,0.0,0.0,0.0,0.0,0.0,0.0,0.0,0.0,0.0,0.0,0.0,0.0,0.0,0.0,0.0,0.0,0.0,0.0,0.0,0.0,0.0,0.0,0.4757,0.483,0.4781,0.4798,0.4826,0.0,0.0,0.0,0.0,0.0,0.0,0.5006,0.5092,0.5141,0.5141,0.523,0.5389,0.5608,0.6559,0.7482,0.8361,0.9251,0.9911,1.0359,1.0578,1.0492,1.009,0.9647,0.9335,0.9022,0.727,0.6187,0.5495,0.526,0.5157,0.5177,0.5177,0.5222,0.5271,0.0,0.0,0.0,0.0,0.0,0.0,0.0,0.0,0.0,0.0,0.0,0.0,0.0,0.0,0.8276,0.8292,0.8609,0.8658,0.0,0.0,0.0,0.0,0.0,0.0,0.0,0.0,0.0,1.1637,1.1366,1.1775,1.277,1.2985,1.3082,1.3104,1.333,1.305,1.2393,1.2382,1.2242,1.2097,0.0,0.0,0.0,0.0,0.0,0.0,0.0,0.0,0.0,0.0,0.0,0.0,0.0,0.0,0.0,0.0,0.0,0.0,0.0,0.0,0.0,0.0,0.0,0.0,0.0,0.0,0.0,0.0,0.0,0.0,0.0,0.0,0.0,0.0,0.0,0.0,0.0,0.0,0.0,0.4977,0.5035,0.0,0.0,0.0,0.0,0.5088,0.51,0.51,0.51,0.5186,0.5239,0.5239,0.5328,0.5819,0.6594,0.7476,0.8361,0.9361,1.0249,1.0249,0.9471,1.0359,0.9891,0.8452,0.925,0.9218,0.8512,0.7122,0.6603,0.6574,0.5599,0.5292,0.5369,0.5369,0.5369,0.5373,0.0,0.0,0.0,0.0,0.0,0.0,0.0,0.0,0.0,0.0,0.0,0.0,0.0,0.8156,0.8341,0.8463,0.8682,0.8763,0.8641,0.0,0.0,0.0,0.0,0.0,0.0,0.0,1.0487,1.0882,1.1875,1.248,1.249,1.3132,1.3351,1.3351,1.3437,1.334,1.3093,1.2931,1.2813,1.2705,1.2479,1.2296,0.0,0.0,0.0,0.0,0.0,0.0,0.0,0.0,0.0,0.0,0.0,0.0,0.0,0.0,0.0,0.0,0.0,0.0,0.0,0.0,0.0,0.0,0.0,0.0,0.0,0.0,0.0,0.0,0.0,0.0,0.0,0.0,0.0,0.0,0.0,0.0,0.0,0.5067,0.5141,0.0,0.5067,0.5059,0.5075,0.5104,0.5161,0.5198,0.5198,0.5284,0.5333,0.5333,0.5365,0.5828,0.6715,0.7113,0.8051,0.9518,0.9957,1.0349,1.0576,1.0916,1.0721,1.0204,0.986,0.9666,0.9354,0.8286,0.7573,0.6809,0.5855,0.552,0.5549,0.5549,0.5549,0.5549,0.0,0.0,0.0,0.0,0.0,0.0,0.0,0.0,0.0,0.0,0.0,0.8506,0.8008,0.8203,0.8455,0.8633,0.8812,0.8885,0.8828,0.0,0.0,0.0,0.0,0.0,0.0,1.0114,1.0697,1.0996,1.2104,1.2718,1.2729,1.3275,1.3588,1.3599,1.3685,1.3717,1.3706,1.3545,1.3383,1.3211,1.2974,1.2737,1.2522,0.0,0.0,0.0,0.0,0.0,0.0,0.0,0.0,0.0,0.0,0.0,0.0,0.0,0.0,0.0,0.0,0.0,0.0,0.0,0.0,0.0,0.0,0.0,0.0,0.0,0.0,0.0,0.0,0.0,0.0,0.0,0.0,0.0,0.0,0.5075,0.5141,0.5112,0.519,0.5218,0.5161,0.5153,0.5165,0.5198,0.5255,0.5292,0.5292,0.5373,0.5422,0.5422,0.5795,0.6261,0.6827,0.7578,0.8533,0.9674,1.0126,1.064,1.1224,1.1224,1.1256,1.1313,1.0724,1.0529,1.0465,0.9523,0.8816,0.8101,0.6646,0.5945,0.5737,0.5737,0.5737,0.5737,0.0,0.0,0.0,0.0,0.0,0.0,0.0,0.0,0.0,0.0,0.8873,0.8991,0.8353,0.8463,0.8641,0.8812,0.8999,0.9031,0.8844,0.8999,0.0,0.0,0.0,0.0,1.0114,0.9836,1.0509,1.2304,1.2025,1.2452,1.3491,1.3717,1.3836,1.3846,1.4083,1.4191,1.4191,1.4191,1.3922,1.348,1.3233,1.3007,1.277,0.0,0.0,0.0,0.0,0.0,0.0,0.0,0.0,0.0,0.0,0.0,0.0,0.0,0.0,0.0,0.0,0.0,0.0,0.0,0.0,0.0,0.0,0.0,0.0,0.0,0.0,0.0,0.0,0.0,0.0,0.0,0.0,0.0,0.4981,0.5132,0.5214,0.5128,0.5194,0.5247,0.5247,0.5247,0.5284,0.5373,0.5386,0.5386,0.5386,0.5467,0.5512,0.5512,0.6522,0.7163,0.7158,0.902,0.9946,0.9946,1.0771,1.124,1.124,1.124,1.1338,1.1516,1.1508,1.1614,1.1784,1.0793,1.0308,1.0044,0.7982,0.6682,0.5916,0.5916,0.5916,0.5916,0.0,0.0,0.0,0.0,0.0,0.0,0.0,0.0,0.0,0.0,0.8631,0.8669,0.8353,0.8568,0.882,0.9007,0.9185,0.9259,0.921,0.0,0.0,0.0,0.0,0.0,1.0325,1.0717,1.1116,1.1317,1.2665,1.3195,1.31,1.3763,1.4094,1.4094,1.4159,1.4191,1.4191,1.4191,1.4116,1.3986,1.3922,1.375,1.3523,0.0,0.0,0.0,0.0,0.0,0.0,0.0,0.0,0.0,0.0,0.0,0.0,0.0,0.0,0.0,0.0,0.0,0.0,0.0,0.0,0.0,0.0,0.0,0.0,0.0,0.0,0.0,0.0,0.0,0.0,0.0,0.5124,0.5169,0.5169,0.5214,0.5259,0.53,0.5328,0.5345,0.5345,0.5345,0.5353,0.5377,0.5439,0.5471,0.5471,0.5557,0.5606,0.5606,0.656,0.7391,0.809,0.9476,1.0472,1.1067,1.1438,1.1622,1.1622,1.1622,1.1719,1.1874,1.1752,1.1801,1.1947,1.1582,1.0914,1.0058,0.8071,0.7225,0.6888,0.6162,0.5916,0.5916,0.0,0.0,0.0,0.0,0.0,0.0,0.0,0.0,0.0,0.0,0.8603,0.8778,0.8467,0.8649,0.8893,0.908,0.9194,0.925,0.925,0.0,0.0,0.0,0.0,0.9845,1.0527,1.1096,1.1502,1.184,1.3002,1.355,1.355,1.4019,1.4191,1.4191,1.4191,1.4191,1.4191,1.4191,1.4191,1.4191,1.4191,1.404,1.3814,1.3814,1.3588,1.3254,1.2962,1.2777,1.2542,1.1312,0.0,0.0,0.0,0.0,0.0,0.0,0.0,0.0,0.0,0.0,0.0,0.0,0.0,0.0,0.0,0.0,0.0,0.0,0.0,0.0,0.0,0.0,0.0,0.0,0.521,0.5259,0.5296,0.53,0.532,0.5373,0.5382,0.5382,0.5382,0.5414,0.5435,0.5435,0.5516,0.5565,0.5565,0.5651,0.57,0.57,0.704,0.8039,0.8696,1.0222,1.1269,1.1841,1.1947,1.1996,1.1996,1.1996,1.2052,1.2142,1.2044,1.2052,1.2142,1.2036,1.1626,0.0,0.0,0.0,0.0,0.0,0.5974,0.5978,0.0,0.0,0.0,0.0,0.0,0.0,0.0,0.0,0.0,0.0,0.0,0.8989,0.864,0.8747,0.8926,0.9112,0.9129,0.912,0.0,0.0,0.0,0.9436,0.9649,1.0037,1.0822,1.129,1.1921,1.2906,1.3214,1.365,1.4191,1.4191,1.4191,1.4191,1.4191,1.4191,1.4191,1.4191,1.4191,1.4191,1.4191,1.4062,1.3868,1.3868,1.3739,1.3556,1.3556,1.3556,1.3453,1.2274,0.0,0.0,0.0,0.0,0.0,0.0,0.0,0.0,0.0,0.0,0.0,0.0,0.0,0.0,0.0,0.0,0.0,0.0,0.0,0.0,0.0,0.0,0.0,0.0,0.5259,0.5292,0.5382,0.5398,0.5394,0.5382,0.539,0.5398,0.5398,0.5471,0.5524,0.5524,0.5606,0.5659,0.5659,0.5757,0.0,0.0,0.0,0.894,0.9318,1.1061,1.2142,1.2304,1.2304,1.2304,1.2304,1.2304,1.232,1.2337,1.2312,1.232,1.2337,1.2312,1.2178,1.202,1.0718,0.9007,0.7301,0.6411,0.6068,0.608,0.0,0.0,0.0,0.0,0.0,0.0,0.0,0.0,0.0,0.8539,0.8591,0.8716,0.8714,0.8934,0.9112,0.9291,0.9307,0.9242,0.0,0.0,0.9473,0.9923,1.0358,1.0628,1.0922,1.2097,1.2636,1.2488,1.3511,1.4083,1.4191,1.4191,1.4191,1.4191,1.4191,1.4191,1.4191,1.4191,1.4191,1.4191,1.4191,1.4169,1.4126,1.4126,1.4094,1.4062,1.4062,1.4062,1.3912,1.3077,1.1943,1.0843,1.004,0.8859,0.0,0.0,0.0,0.0,0.0,0.0,0.0,0.0,0.0,0.0,0.0,0.0,0.0,0.0,0.0,0.0,0.0,0.0,0.0,0.5341,0.5357,0.5386,0.5471,0.5484,0.5459,0.539,0.5443,0.5484,0.5484,0.5565,0.5618,0.5618,0.5704,0.5753,0.5753,0.5912,0.6372,0.7232,0.8472,0.9557,1.0468,1.1618,1.2272,1.2304,0.0,0.0,1.2304,1.2304,1.2385,1.2507,1.2369,1.2385,1.2507,1.2361,1.1791,1.089,0.9823,0.8661,0.7653,0.6532,0.6157,0.6157,0.0,0.0,0.0,0.0,0.0,0.0,0.0,0.0,0.0,0.0,0.8371,0.8552,0.8503,0.8723,0.8901,0.9072,0.9169,0.0,0.0,0.9259,0.9623,1.0002,1.0281,1.0724,1.1125,1.2172,1.2763,1.2881,1.3759,1.4191,1.4191,1.4191,1.4191,1.4191,1.4191,1.4191,1.4191,1.4191,1.4191,1.4191,1.4191,1.4191,1.4191,1.4191,1.4191,1.4191,1.4191,1.4191,1.4062,1.3076,1.1944,1.0717,0.9694,0.8533,0.7608,0.0,0.0,0.0,0.0,0.0,0.0,0.0,0.0,0.0,0.0,0.0,0.0,0.0,0.0,0.5259,0.5304,0.0,0.5341,0.5431,0.5443,0.5475,0.5561,0.5573,0.5561,0.5516,0.5549,0.5573,0.5573,0.5659,0.5712,0.5712,0.5839,0.5916,0.5916,0.6043,0.662,0.7633,0.8701,0.9793,1.0891,1.1923,1.2483,1.2572,1.2572,1.2572,1.2572,1.2572,1.2621,1.2694,1.2613,1.2621,1.2694,1.2605,1.1918,1.0869,0.9837,0.8716,0.7591,0.6619,0.6247,0.6255,0.0,0.0,0.0,0.0,0.0,0.0,0.0,0.0,0.0,0.0,0.8154,0.8307,0.8385,0.8479,0.8633,0.0,0.0,0.0,0.0,0.9291,0.9551,0.9868,1.0166,1.0556,1.1159,1.2008,1.2663,1.3098,1.3759,1.4083,1.4191,1.4191,1.4191,1.4191,1.4191,1.4191,1.4191,1.4191,1.4191,1.4191,1.4191,1.4191,1.4191,1.4191,1.4191,1.4191,1.4191,1.4159,1.4019,1.3078,1.2073,1.1033,0.9854,0.8831,0.7898,0.7571,0.6945,0.0,0.0,0.0,0.0,0.0,0.0,0.0,0.0,0.5206,0.5271,0.5271,0.5328,0.5386,0.5402,0.5406,0.5435,0.552,0.5533,0.5565,0.5659,0.5671,0.5676,0.5696,0.568,0.5671,0.5671,0.5769,0.5835,0.5835,0.5986,0.6076,0.6076,0.6161,0.685,0.813,0.8928,1.0025,1.1445,1.2224,1.2694,1.284,1.284,1.284,1.284,1.284,1.284,1.284,1.284,1.284,1.284,1.284,1.2033,1.0836,0.9908,0.8727,0.7274,0.6579,0.6341,0.6353,0.0,0.0,0.0,0.0,0.0,0.0,0.0,0.0,0.0,0.0,0.0,0.0,0.0,0.0,0.0,0.0,0.0,0.0,0.9104,0.9413,0.9681,0.9876,1.0578,1.0766,1.0535,1.1792,1.2436,1.2545,1.3098,1.365,1.4191,1.4191,1.4191,1.4191,1.4191,1.4191,1.4191,1.4191,1.4191,1.4191,1.4191,1.4191,1.4191,1.4191,1.4191,1.4191,1.4191,1.4051,1.39,1.4008,1.2949,1.1514,1.1025,0.9876,0.8568,0.8012,0.7186,0.6368,0.6358,0.573,0.5108,0.5108,0.5169,0.523,0.0,0.53,0.5365,0.5365,0.5373,0.5406,0.548,0.5492,0.5524,0.5614,0.5627,0.5659,0.5753,0.5765,0.5794,0.5876,0.5814,0.5765,0.5765,0.5921,0.6023,0.6023,0.6112,0.6166,0.6166,0.6251,0.721,0.9287,0.9407,1.0531,1.2545,1.2676,1.2816,1.284,1.284,1.284,1.284,1.284,1.284,1.284,1.284,1.284,1.284,1.284,1.1637,0.9775,0.9643,0.8435,0.6556,0.6569,0.6439,0.6439,0.0,0.0,0.0,0.0,0.0,0.0,0.0,0.0,0.0,0.0,0.0,0.0,0.0,0.0,0.0,0.0,0.0,0.0,0.9104,0.9429,0.9705,0.9876,1.0269,1.0241,0.967,1.1467,1.211,1.1664,1.3098,1.3975,1.4191,1.4191,1.4191,1.4191,1.4191,1.4191,1.4191,1.4191,1.4191,1.4191,1.4191,1.4191,1.4191,1.4191,1.4191,1.4169,1.4029,1.4008,0.0,0.0,1.2481,1.1216,1.0757,0.9523,0.8253,0.7967,0.7636,0.7322,0.7322,0.6624,0.5845,0.6013,0.5625,0.5324,0.5324,0.5394,0.5455,0.5455,0.5496,0.5545,0.5582,0.5586,0.5618,0.5708,0.5725,0.5757,0.5847,0.5859,0.5876,0.5912,0.5933,0.5941,0.5941,0.601,0.6072,0.6125,0.621,0.6259,0.6259,0.6345,0.7318,0.9425,0.9612,1.0578,1.2832,1.284,1.284,1.284,1.284,1.284,1.284,1.284,1.284,1.284,1.284,1.284,1.284,1.284,1.1901,1.0439,0.9908,0.8712,0.725,0.6719,0.6455,0.6455,0.0,0.0,0.0,0.0,0.0,0.0,0.0,0.0,0.0,0.0,0.0,0.0,0.0,0.0,0.0,0.0,0.0,0.0,0.0,0.938,0.9648,0.9876,1.0063,0.9926,0.9455,1.0808,1.1337,1.1008,1.2209,1.3197,1.3748,1.3748,1.3856,1.4191,1.4191,1.4191,1.4191,1.4191,1.4191,1.4191,1.4191,1.4191,1.4191,1.4191,1.4148,1.4062,1.389,1.3933,0.0,0.0,1.2646,1.1693,1.0983,1.0123,0.9106,0.8743,0.8419,0.815,0.7968,0.7362,0.6785,0.6684,0.6289,0.5751,0.5527,0.5484,0.5545,0.5545,0.5598,0.5651,0.5676,0.568,0.5712,0.5802,0.5818,0.5843,0.5908,0.5916,0.5925,0.5953,0.6014,0.6072,0.6121,0.6125,0.6153,0.6215,0.6304,0.6353,0.6353,0.6419,0.7522,0.951,0.9643,1.0578,1.2832,1.284,1.284,1.284,1.284,1.284,1.284,1.284,1.284,1.284,1.284,1.284,1.284,1.284,1.2165,1.1101,1.0041,0.8978,0.7912,0.6853,0.6455,0.6455,0.0,0.0,0.0,0.0,0.0,0.0,0.0,0.0,0.0,0.0,0.0,0.0,0.0,0.0,0.0,0.0,0.0,0.0,0.0,0.9267,0.9518,0.9868,1.0063,1.0249,1.0321,0.9836,0.9911,1.0688,0.9911,1.0562,1.2417,1.2417,1.3078,1.4191,1.4191,1.4191,1.4191,1.4191,1.4191,1.4191,1.4191,1.4191,1.4191,1.4191,1.404,1.3836,1.3825,0.0,0.0,0.0,1.372,1.3551,1.2586,1.2327,1.1964,1.07,0.9565,0.8625,0.8025,0.7732,0.7545,0.6906,0.6679,0.6526,0.5733,0.5573,0.5639,0.5639,0.5643,0.5671,0.5761,0.5778,0.5806,0.59,0.5912,0.5912,0.5916,0.5916,0.5949,0.6039,0.6051,0.6121,0.6292,0.6308,0.6308,0.6313,0.6398,0.6451,0.6451,0.6451,0.7522,0.951,0.9643,1.0578,1.2832,1.284,1.284,1.284,1.284,1.284,1.284,1.284,1.284,1.284,1.284,1.284,1.284,1.284,1.2165,1.1101,1.0041,0.8978,0.7912,0.6853,0.6455,0.6455,0.0,0.0,0.0,0.0,0.0,0.0,0.0,0.0,0.0,0.0,0.0,0.0,0.0,0.0,0.0,0.0,0.8723,0.8844,0.8909,0.9194,0.9405,0.9527,0.9933,0.9975,0.9399,1.0317,1.046,0.9464,1.0453,1.1328,1.2091,1.2309,1.3078,1.4191,1.4191,1.4191,1.4191,1.4191,1.4191,1.4191,1.4191,1.4191,1.418,1.4008,1.389,1.3782,0.0,0.0,0.0,1.3642,1.3593,1.3321,1.2635,1.2018,1.1442,1.0518,0.9999,0.9669,0.9526,0.9133,0.8655,0.8673,0.8207,0.7806,0.7547,0.7657,0.7504,0.6798,0.6684,0.6455,0.5893,0.5782,0.579,0.5823,0.5876,0.5916,0.5916,0.5916,0.5949,0.6043,0.6104,0.6186,0.6304,0.6317,0.6341,0.6402,0.6435,0.6455,0.6455,0.7116,0.8179,0.951,1.0306,1.1365,1.284,1.284,1.284,1.284,1.284,1.284,1.284,1.2954,1.3011,1.3011,1.3141,1.3189,1.3189,1.3189,1.3054,1.2504,1.0594,0.9632,0.9086,0.7319,0.6635,0.6619,0.0,0.0,0.0,0.0,0.0,0.0,0.0,0.0,0.0,0.0,0.0,0.0,0.0,0.0,0.0,0.0,0.0,0.8755,0.882,0.0,0.9194,0.9259,0.9713,0.9658,0.9138,1.0103,1.0162,0.9298,1.0217,1.09,1.1441,1.162,1.22,1.298,1.3413,1.3532,1.364,1.3975,1.4137,1.4062,1.4062,1.4008,1.3922,1.376,1.3642,0.0,0.0,0.0,0.0,1.3502,1.3372,1.3207,1.2545,1.1702,1.0835,1.0297,1.0111,1.0128,1.0444,1.0093,0.9734,0.9716,0.9266,0.8865,0.8728,0.8735,0.8588,0.7873,0.772,0.7454,0.6497,0.6231,0.6085,0.5733,0.581,0.5867,0.5867,0.5925,0.5998,0.6088,0.6178,0.6264,0.6357,0.6366,0.639,0.6451,0.6455,0.6455,0.6455,0.7517,0.8446,0.951,1.0704,1.1769,1.284,1.284,1.284,1.284,1.2897,1.2929,1.2938,1.3116,1.3189,1.3197,1.3319,1.3368,1.3368,1.3368,1.3368,1.3231,1.0875,1.004,0.9763,0.7557,0.6725,0.6709,0.0,0.0,0.0,0.0,0.0,0.0,0.0,0.0,0.0,0.0,0.0,0.0,0.0,0.0,0.0,0.0,0.0,0.0,0.8796,0.882,0.8901,0.908,0.9421,0.9616,0.9624,0.9138,0.9205,1.0056,0.9466,0.954,1.0289,1.0566,1.0757,1.0866,1.1946,1.2497,1.2497,1.3706,1.4019,1.3803,1.3803,1.3674,1.348,1.3459,0.0,0.0,0.0,0.0,1.3147,1.3394,1.3372,1.3098,1.2536,1.1407,1.0176,1.016,1.0054,1.0038,1.055,1.0704,1.058,1.0111,1.0069,0.9829,0.9004,0.8865,0.8836,0.883,0.8606,0.8277,0.7319,0.6995,0.6691,0.576,0.5725,0.579,0.579,0.5941,0.6084,0.617,0.6259,0.6353,0.6447,0.6455,0.6455,0.6455,0.6455,0.6589,0.6589,0.7517,0.8579,0.9643,1.0704,1.1769,1.284,1.2848,1.2848,1.2848,1.3027,1.3108,1.3116,1.3303,1.3384,1.3384,1.3392,1.3401,1.3401,1.3401,1.3401,1.3255,1.1034,1.0058,0.9787,0.7571,0.6741,0.6741,0.0,0.0,0.0,0.0,0.0,0.0,0.0,0.0,0.0,0.0,0.0,0.0,0.0,0.0,0.0,0.0,0.0,0.0,0.8625,0.8747,0.8844,0.8885,0.9234,0.9486,0.9624,0.9641,0.9499,0.9108,0.9256,0.9692,1.0418,1.067,1.1535,1.2809,1.3122,1.3226,1.3237,1.3549,1.362,1.3566,0.0,1.3534,1.3459,0.0,0.0,0.0,0.0,1.2964,1.3147,1.3394,1.3152,1.2516,1.1818,1.0963,1.0339,1.0201,1.0314,1.0517,1.0655,1.0883,1.1028,1.1137,1.1106,1.1059,1.1063,1.04,0.966,0.8948,0.8112,0.7179,0.617,0.5959,0.5877,0.5643,0.5778,0.5884,0.5884,0.5982,0.6084,0.617,0.6259,0.6353,0.6447,0.6455,0.6455,0.6455,0.6455,0.6853,0.7512,0.8579,0.9643,1.0704,1.1769,1.2568,1.284,1.2962,1.3027,1.3027,1.3214,1.3303,1.3303,1.349,1.3571,1.3579,1.3709,1.3766,1.3766,1.3766,1.3766,1.3625,1.2201,1.1057,1.006,0.8775,0.7634,0.6921,0.0,0.0,0.0,0.0,0.0,0.0,0.0,0.0,0.0,0.0,0.0,0.0,0.0,0.0,0.0,0.0,0.0,0.0,0.0,0.8658,0.8706,0.8706,0.8974,0.9169,0.9267,0.9527,0.9565,0.9283,0.9721,0.0,1.0416,1.0784,1.1277,1.201,1.2535,1.2751,1.2751,1.3275,0.0,0.0,0.0,0.0,0.0,0.0,0.0,0.0,1.2813,1.2985,1.3185,1.2812,1.2413,1.1964,1.1434,1.0856,1.0428,1.0404,1.0534,1.0745,1.098,1.1191,1.1386,1.1573,1.1622,1.163,1.1654,1.1287,1.0636,0.9994,0.891,0.787,0.6883,0.635,0.6045,0.5582,0.5769,0.5916,0.5916,0.6063,0.6186,0.6235,0.6321,0.6398,0.6447,0.6853,0.7116,0.7116,0.7116,0.7383,0.7912,0.951,1.0571,1.1233,1.2297,1.2873,1.2946,1.3043,1.3133,1.3214,1.3401,1.349,1.3498,1.3677,1.3758,1.3766,0.0,1.3904,1.3904,1.3904,1.3904,1.3761,1.261,1.1456,1.0305,0.9147,0.7996,0.699,0.0,0.0,0.0,0.0,0.0,0.0,0.0,0.0,0.0,0.0,0.0,0.0,0.0,0.0,0.0,0.0,0.0,0.0,0.0,0.0,0.0,0.0,0.8706,0.8796,0.882,0.912,0.9502,0.9842,1.036,1.0536,0.0,0.0,0.0,0.0,0.0,0.0,0.0,0.0,0.0,0.0,0.0,0.0,0.0,0.0,0.0,1.2759,1.2759,1.295,1.313,1.2113,1.1778,1.1647,1.1362,1.089,1.0501,1.068,1.0745,1.0867,1.1362,1.1516,1.1573,1.1736,1.1776,1.1727,1.1541,1.1382,1.12,1.1001,1.0038,0.9024,0.8213,0.7317,0.6427,0.5656,0.5753,0.5925,0.5949,0.6161,0.6317,0.6317,0.6398,0.6589,0.6719,0.7512,0.8041,0.8174,0.8307,0.844,0.844,1.0167,1.1233,1.1365,1.232,1.2938,1.3092,1.3141,1.3246,1.3409,1.3595,1.3677,1.3685,1.3831,1.3904,1.3904,1.3904,1.3904,1.3904,1.3904,1.3904,1.3761,1.261,1.1456,1.0305,0.9147,0.7996,0.699,0.0,0.0,0.0,0.0,0.0,0.0,0.0,0.0,0.0,0.0,0.748,0.7569,0.0,0.0,0.0,0.0,0.0,0.0,0.0,0.0,0.0,0.0,0.8593,0.8674,0.882,0.8877,0.8974,0.9283,0.9897,1.0193,1.0167,1.1277,1.1796,1.1688,0.0,0.0,0.0,0.0,0.0,0.0,0.0,0.0,0.0,0.0,0.0,0.0,1.2759,1.235,1.1899,1.2279,1.2413,1.211,1.1093,1.0757,1.068,1.0867,1.1021,1.1183,1.1435,1.1614,1.1736,1.1768,1.1776,1.1727,1.1541,1.0902,1.0222,0.9931,0.8477,0.7182,0.698,0.6252,0.5788,0.5708,0.5835,0.597,0.6112,0.6239,0.6317,0.6317,0.6398,0.6853,0.7646,0.7912,0.8307,0.9244,1.0167,1.0697,1.0697,1.0962,1.163,1.2437,1.2837,1.3068,1.3092,1.3392,1.3563,1.3595,1.3774,1.3855,1.3855,1.3888,1.3904,1.3904,1.3904,0.0,1.3904,1.3904,1.3904,1.3761,1.261,1.1456,1.0305,0.9147,0.7996,0.699,0.0,0.0,0.0,0.0,0.0,0.0,0.0,0.7642,0.748,0.748,0.748,0.7553,0.774,0.791,0.0,0.0,0.0,0.0,0.0,0.0,0.0,0.0,0.0,0.0,0.869,0.8779,0.882,0.882,0.0,0.9818,1.0186,1.1067,1.1702,1.2203,1.2608,1.2759,1.2759,1.2759,1.2759,1.2759,1.2759,1.2759,0.0,0.0,0.0,0.0,1.2759,1.2418,1.1942,1.2055,1.202,1.1756,1.1319,1.0982,1.0875,1.1045,1.1224,1.1411,1.1589,1.1711,1.1776,1.1776,1.1776,1.1703,1.1419,1.0996,1.0431,0.9651,0.8805,0.7885,0.6831,0.6507,0.6188,0.5814,0.5904,0.6336,0.6933,0.708,0.7441,0.7969,0.8015,0.8318,0.8845,0.9371,0.9902,1.0439,1.1365,1.1769,1.1233,1.1844,1.2429,1.297,1.3149,1.3287,1.3376,1.3555,1.3693,1.3782,1.3863,1.3904,1.3904,1.3904,1.3904,1.3904,1.3904,1.3904,1.3904,1.3904,1.3904,1.3904,1.3325,1.2029,1.0305,0.9729,0.843,0.699,0.0,0.0,0.0,0.0,0.0,0.0,0.0,0.7557,0.748,0.748,0.748,0.7553,0.774,0.791,0.8089,0.0,0.0,0.0,0.0,0.0,0.0,0.0,0.0,0.0,0.0,0.0,0.0,0.8568,0.8976,0.0,0.0,0.0,0.0,0.0,1.2608,1.2716,1.2759,1.2759,1.2759,0.0,0.0,1.2759,0.0,0.0,0.0,0.0,0.0,1.2485,1.2074,1.1933,1.1499,1.1141,1.1494,1.1372,1.1005,1.1175,1.1354,1.1541,1.1727,1.1776,1.1776,1.1776,1.1776,1.1679,1.1305,1.1224,1.089,0.9868,0.9581,0.8933,0.7522,0.7345,0.7031,0.616,0.6306,0.6778,0.774,0.7903,0.8419,0.951,0.9643,0.9643,0.9908,1.0704,1.1365,1.1497,1.2305,1.2452,1.1681,1.261,1.3116,1.3149,1.3336,1.3498,1.3644,1.3677,1.3766,1.3904,1.3904,1.3904,1.3904,1.3904,1.3904,1.3904,1.3904,1.3904,1.3904,1.3904,1.3904,1.3904,1.3611,1.2316,1.0305,1.0161,0.8719,0.699,0.0,0.0,0.0,0.0,0.0,0.0,0.0,0.7718,0.748,0.748,0.748,0.7553,0.774,0.791,0.8089,0.0,0.0,0.0,0.0,0.0,0.0,0.0,0.0,0.0,0.0,0.0,0.0,0.8568,0.9195,0.0,0.0,0.0,0.0,0.0,0.0,1.2565,1.2759,1.2759,0.0,0.0,0.0,0.0,0.0,0.0,0.0,0.0,0.0,1.2186,1.1382,1.2191,1.1521,1.0451,1.1341,1.1372,1.1005,1.1175,1.1354,1.1541,1.1727,1.1776,1.1776,1.1776,1.1776,1.1679,1.1305,1.1224,1.1118,1.0651,0.9919,0.9404,0.9328,0.8691,0.8031,0.7291,0.7255,0.7391,0.7826,0.7888,0.8333,0.9498,0.9643,1.0041,1.0969,1.1101,1.163,1.2568,1.2708,1.2905,1.2925,1.3084,1.3173,1.3344,1.3522,1.3628,1.3644,1.3798,1.3888,1.3904,1.3904,1.3904,1.3904,1.3904,1.3904,1.3904,1.3904,1.3904,0.0,1.3904,1.3904,1.3761,1.2753,1.1599,1.0305,0.9296,0.7996,0.699,0.0,0.0,0.0,0.0,0.0,0.0,0.8551,0.8322,0.8246,0.8246,0.7787,0.7594,0.7878,0.7975,0.8089,0.0,0.0,0.0,0.0,0.0,0.0,0.0,0.0,0.0,0.0,0.0,0.8744,0.8999,0.8987,0.0,0.0,0.0,0.0,0.0,0.0,1.2468,1.2565,1.2705,0.0,0.0,0.0,0.0,0.0,0.0,0.0,0.0,0.0,0.0,1.1255,1.1466,1.0905,1.0182,1.0866,1.0965,1.0858,1.1143,1.1354,1.1541,1.1727,1.1776,1.1776,1.1776,1.1695,1.1541,1.1281,1.1143,1.0884,1.0075,1.0029,0.9853,0.9004,0.899,0.902,0.8318,0.8244,0.8641,0.9431,0.9525,1.0019,1.1207,1.1359,1.1657,1.2157,1.2165,1.2305,1.2832,1.284,1.2962,1.3246,1.3262,1.3344,1.353,1.3709,1.3798,1.3798,1.3863,1.3904,1.3904,1.3904,1.3904,1.3904,1.3904,1.3904,1.3904,1.3904,1.3904,0.0,1.3904,1.3904,1.3904,1.3468,1.2036,1.0311,0.9873,0.8574,0.699,0.0,0.0,0.0,0.0,0.0,0.9916,0.915,0.9074,0.9074,0.9074,0.8444,0.8068,0.8302,0.8222,0.817,0.8357,0.0,0.0,0.0,0.0,0.0,0.0,0.0,0.0,0.0,0.0,0.8744,0.9087,0.8911,0.9174,0.0,0.0,1.0464,1.1,0.0,0.0,0.0,0.0,0.0,0.0,0.0,0.0,0.0,0.0,0.0,0.0,0.0,0.0,0.0,0.0,0.0,1.0054,1.0758,1.0798,1.0753,1.1053,1.1313,1.1524,1.1663,1.1736,1.1776,1.1776,1.1638,1.1451,1.1265,1.1094,1.0803,0.9949,1.0288,1.0492,0.9412,0.9795,1.0076,0.9274,0.9348,0.9614,1.0521,1.0628,1.1136,1.2339,1.2491,1.2556,1.2735,1.2808,1.284,1.284,1.284,1.2994,1.3352,1.3368,1.3482,1.3709,1.3839,1.3904,1.3904,1.3904,1.3904,1.3904,1.3904,1.3904,1.3904,1.3904,1.3904,1.3904,1.3904,1.3904,0.0,1.3904,1.3904,1.3904,1.3904,1.2466,1.0449,1.0449,0.9008,0.699,0.0,0.0,0.0,0.0,0.0,0.0,0.997,0.9895,0.9895,0.9895,0.9329,0.9002,0.9217,0.8673,0.8365,0.8552,0.0,0.0,0.0,0.0,0.0,0.0,0.0,0.0,0.0,0.0,0.8568,0.8568,0.9087,0.9262,0.9349,0.9777,1.0328,1.1,0.0,0.0,0.0,0.0,0.0,0.0,0.0,0.0,0.0,0.0,0.0,0.0,0.0,0.0,0.0,0.0,0.0,0.0,0.0,1.1126,1.0729,1.0915,1.1224,1.15,1.15,1.1638,1.1776,1.1776,1.1638,1.1451,1.1265,1.1094,1.0915,1.0729,1.0842,1.1021,1.1183,1.137,1.1193,1.04,1.0308,1.0358,1.0507,1.0652,1.0966,1.2162,1.2312,1.2377,1.2548,1.2726,1.284,1.284,1.284,1.2994,1.3352,1.3368,1.353,1.3888,1.3904,1.3904,1.3904,1.3904,1.3904,1.3904,1.3904,1.3904,1.3904,1.3904,1.3904,1.3904,1.3904,1.3904,0.0,1.3904,1.3904,1.3904,1.3904,1.2466,1.0449,1.0449,0.9008,0.699,0.0,0.0,0.0,0.0,0.0,0.0,0.0,1.0732,1.0732,1.0732,0.9725,0.9082,0.9208,0.8681,0.8365,0.8552,0.0,0.0,0.0,0.0,0.0,0.0,0.0,0.0,0.0,0.0,0.8744,0.9087,0.8911,0.8999,0.9349,0.9777,0.9901,0.9897,1.1232,1.1815,0.0,0.0,0.0,0.0,0.0,0.0,1.1002,0.0,0.0,0.0,0.0,0.0,0.0,0.0,0.0,0.0,0.0,0.0,0.0,1.0729,1.0948,1.1159,1.1281,1.1354,1.1395,1.1395,1.1265,1.1118,1.1062,1.0907,1.0802,1.0867,1.0932,1.1062,1.1354,1.1459,1.1438,1.1374,1.1285,1.13,1.1355,1.1464,1.172,1.228,1.2523,1.2694,1.2743,1.28,1.284,1.284,1.284,1.2994,1.3352,1.3368,1.353,1.3888,1.3904,1.3904,1.3904,1.3904,1.3904,1.3904,1.3904,1.3904,1.3904,1.3904,1.3904,1.3904,1.3904,1.3904,1.3904,1.3904,1.3904,1.3904,1.3904,1.2466,1.0449,1.0449,0.9008,0.699,0.0,0.0,0.0,0.0,0.0,0.0,0.0,1.1552,1.1602,1.1702,1.0784,1.0007,0.9823,0.9292,0.8784,0.8648,0.0,0.0,0.0,0.0,0.0,0.0,0.0,0.0,0.0,0.8568,0.8744,0.8999,0.8911,0.8911,0.9087,0.9524,0.9689,0.962,1.0749,1.1405,0.0,0.0,0.0,0.0,0.0,0.0,1.0518,0.0,0.0,0.0,0.0,0.0,0.0,0.0,0.0,0.0,0.0,0.0,0.0,0.0,1.0769,1.0899,1.1078,1.1175,1.1224,1.1224,1.1094,1.0972,1.0972,1.0883,1.0826,1.0948,1.1078,1.124,1.1459,1.1557,1.1638,1.176,1.1776,1.1801,1.1866,1.1963,1.2101,1.2288,1.2556,1.2735,1.2735,1.28,1.284,1.284,1.284,1.2994,1.3352,1.3368,1.353,1.3888,1.3904,1.3904,1.3904,1.3904,1.3904,1.3904,1.3904,1.3904,1.3904,1.3904,1.3904,1.3904,1.3904,1.3904,0.0,1.3904,1.3904,1.3904,1.3904,1.2466,1.0449,1.0449,0.9008,0.699,0.0,0.0,0.0,0.0,0.0,0.0,0.0,0.0,1.235,1.2553,1.2072,1.1386,1.0867,1.0248,0.9515,0.8656,0.0,0.0,0.0,0.0,0.0,0.0,0.0,0.0,0.0,0.8568,0.8568,0.8568,0.8999,0.8999,0.8568,0.9087,0.9524,0.9901,0.994,1.0779,0.0,0.0,0.0,0.0,0.0,0.0,0.0,0.0,0.0,0.0,0.0,0.0,0.0,0.0,0.0,0.0,0.0,0.0,0.0,0.0,0.0,0.0,0.0,1.1062,1.1183,1.1183,1.107,1.0956,1.0964,1.0972,0.0,1.1005,1.1273,1.15,1.1516,1.1663,1.1776,1.1776,1.1776,1.1833,1.2004,1.2052,1.2134,1.232,1.2483,1.258,1.258,1.2735,1.284,1.284,1.284,1.2994,1.3352,1.3368,1.353,1.3888,1.3904,1.3904,1.3904,1.3904,1.3904,1.3904,1.3904,1.3904,1.3904,1.3904,1.3904,0.0,1.3904,1.3904,1.3904,1.3904,1.3904,1.3904,1.3904,1.2466,1.0449,1.0449,0.9008,0.7135,0.0,0.0,0.0,0.0,0.0,0.0,0.0,0.0,0.0,0.0,1.0384,1.0001,0.9882,0.9311,0.8823,0.0,0.0,0.0,0.0,0.0,0.0,0.0,0.0,0.0,0.0,0.8568,0.8568,0.8568,0.8744,0.8744,0.8568,0.9087,0.9252,0.9123,1.0461,1.1412,1.2021,0.0,0.0,0.0,0.0,0.0,0.0,0.0,0.0,0.0,0.9689,0.9738,0.0,0.0,0.0,0.0,0.0,0.0,0.0,0.0,1.0688,0.0,1.0745,0.0,1.0818,1.0818,1.0785,1.0794,0.0,1.0972,1.1045,1.1321,1.1443,1.1541,1.1687,1.1744,1.1776,1.1776,1.1776,1.1833,1.2004,1.2264,1.2507,1.2694,1.2751,1.2775,1.2775,1.2808,1.284,1.284,1.284,1.2994,1.3352,1.3368,1.353,1.3888,1.3904,1.3904,1.3904,1.3904,1.3904,1.3904,1.3904,1.3904,1.3904,1.3904,1.3904,1.3904,1.3904,1.3904,1.3904,1.3904,1.3904,1.3904,1.3904,1.3039,1.1606,1.0737,0.9441,0.814,0.0,0.0,0.0,0.0,0.0,0.0,0.0,0.0,0.0,0.0,0.0,0.0,0.0,0.0,0.0,0.0,0.0,0.0,0.0,0.0,0.0,0.0,0.0,0.0,0.8568,0.8568,0.8568,0.8568,0.8568,0.8568,0.8568,0.8907,0.9089,0.919,1.0491,1.0991,1.0904,1.11,1.0708,1.0027,1.041,0.0,0.0,0.0,0.0,0.0,0.9689,0.9795,0.0,1.0128,1.0339,1.0566,0.0,0.0,0.0,0.0,1.0688,1.0688,1.0688,1.0688,1.0688,1.0688,1.0688,1.0745,1.0923,1.1029,1.1167,1.1443,1.1565,1.1654,1.176,1.1776,1.1776,1.1776,1.1841,1.1955,1.2134,1.2393,1.2605,1.2702,1.2783,1.284,1.284,1.284,1.284,1.284,1.284,1.2954,1.323,1.3327,1.3498,1.3774,1.3863,1.3904,1.3904,1.3904,1.3904,1.3904,1.3904,1.3904,1.3904,1.3904,1.3904,1.3904,1.3904,1.3904,1.3904,1.3904,1.3904,1.3904,1.3904,1.3182,1.218,1.1456,1.0161,0.8719,0.0,0.0,0.0,0.0,0.0,0.0,0.0,0.0,0.0,0.0,0.0,0.0,0.0,0.0,0.0,0.0,0.0,0.0,0.0,0.0,0.0,0.0,0.0,0.8568,0.8568,0.8568,0.8568,0.8568,0.8568,0.8568,0.8568,0.8739,0.9116,0.9639,1.0292,1.036,0.992,1.0609,1.0511,0.9739,1.0297,0.0,0.0,0.0,0.0,0.0,0.0,0.0,0.0,1.0193,1.042,1.0688,1.0688,0.0,0.0,0.0,0.0,0.0,1.0688,1.0712,1.0729,1.0696,1.0712,1.0785,1.0964,1.1143,1.1321,1.15,1.1671,1.1776,1.1776,1.1776,1.1776,1.1776,1.1947,1.2134,1.232,1.2491,1.2605,1.2605,1.2743,1.284,1.284,1.284,1.284,1.284,1.284,1.2913,1.3084,1.3271,1.3457,1.3636,1.3815,1.3904,1.3904,1.3904,1.3904,1.3904,1.3904,1.3904,1.3904,1.3904,1.3904,1.3904,0.0,0.0,1.3904,1.3904,1.3904,1.3904,1.3904,1.3325,1.2466,1.2323,1.0881,0.9291,0.0,0.0,0.0,0.0,0.0,0.0,0.0,0.0,0.0,0.0,0.0,0.0,0.0,0.0,0.0,0.0,0.0,0.0,0.0,0.0,0.0,0.0,0.8568,0.8568,0.8568,0.8568,0.8568,0.8568,0.8568,0.8568,0.8568,0.8739,0.9259,1.0035,0.9875,1.019,1.0904,1.0117,1.0019,1.0216,0.9954,0.0,0.0,0.0,0.0,0.0,0.0,0.0,0.0,1.0339,1.0526,1.0688,1.0688,0.0,0.0,0.0,0.0,0.0,1.0688,1.081,1.0891,1.0729,1.081,1.0972,1.1143,1.1321,1.1508,1.1695,1.176,1.1776,1.1776,1.1776,1.1776,1.1776,1.2052,1.232,1.2499,1.2678,1.2791,1.2791,1.2824,1.284,1.284,1.284,1.284,1.284,1.284,1.2913,1.3084,1.3271,1.3457,1.3636,1.3815,1.3904,1.3904,1.3904,1.3904,1.3904,1.3904,1.3904,1.3904,1.3904,1.3904,1.3904,0.0,1.3904,1.3904,1.3904,1.3904,1.3904,1.3904,1.3761,1.3468,1.261,1.2029,1.1599,0.0,0.0,0.0,0.0,0.0,0.0,0.0,0.0,0.0,0.0,0.0,0.0,0.0,0.0,0.0,0.0,0.0,0.0,0.0,0.0,0.0,0.8568,0.8568,0.8568,0.8568,0.8568,0.8568,0.8568,0.8568,0.8617,0.8714,0.8982,0.9345,0.9795,0.969,0.992,1.0314,0.9821,0.9723,0.9929,0.0,0.0,0.0,0.0,0.0,0.0,0.0,0.0,0.0,0.0,1.055,1.0688,1.0688,0.0,0.0,0.0,0.0,0.0,1.0688,1.0753,1.0842,1.0948,1.1118,1.1305,1.1484,1.1654,1.1809,1.1898,1.1914,1.189,1.1792,1.1849,1.1979,1.2174,1.2264,1.2369,1.254,1.2637,1.2686,1.2686,1.2775,1.284,1.284,1.284,1.284,1.284,1.284,1.2913,1.3084,1.3271,1.3457,1.3636,1.3815,1.3904,1.3904,1.3904,1.3904,1.3904,1.3904,1.3904,1.3904,1.3904,1.3904,1.3904,0.0,1.3904,1.3904,1.3904,1.3904,1.3904,1.3904,1.3904,1.3753,1.261,1.261,1.2896,0.0,0.0,0.0,0.0,0.0,0.0,0.0,0.0,0.0,0.0,0.0,0.0,0.0,0.0,0.0,0.0,0.0,0.0,0.0,0.0,0.8568,0.8568,0.8568,0.8568,0.8568,0.8568,0.8568,0.8568,0.8609,0.8739,0.895,0.9226,0.9453,0.9624,0.9624,0.9624,0.9624,0.9624,0.9624,0.964,0.0,0.0,0.0,0.0,0.0,0.0,0.0,0.0,0.0,0.0,0.0,0.0,0.0,0.0,0.0,1.0688,1.0688,1.0688,1.0688,1.0753,1.0883,1.1151,1.133,1.1508,1.1776,1.1939,1.2044,1.2085,1.2093,1.2044,1.1866,1.1939,1.2134,1.245,1.2426,1.2426,1.2605,1.2629,1.2629,1.2629,1.2751,1.284,1.284,1.284,1.284,1.284,1.2873,1.2954,1.3084,1.3311,1.3498,1.3636,1.3815,1.3904,1.3904,1.3904,1.3904,1.3904,1.3904,1.3904,1.3904,1.3904,1.3904,1.3904,1.3904,1.3904,1.3904,1.3904,1.3904,1.3904,1.3904,1.3904,1.3761,1.2896,1.3182,1.3611,0.0,0.0,0.0,0.0,0.0,0.0,0.0,0.0,0.0,0.0,0.0,0.0,0.0,0.0,0.0,0.0,0.0,0.0,0.0,0.0,0.8568,0.8568,0.8568,0.8568,0.8568,0.8568,0.8568,0.8568,0.8723,0.8982,0.9315,0.934,0.9453,0.9624,0.9624,0.9624,0.9624,0.9624,0.9624,0.9632,0.964,0.0,0.0,0.0,0.0,0.0,0.0,0.0,0.0,0.0,0.0,0.0,0.0,0.0,1.0688,1.0688,1.0688,1.0688,1.0688,1.0932,1.1191,1.1216,1.1232,1.1378,1.189,1.202,1.2077,1.2247,1.2288,1.2231,1.2044,1.202,1.2093,1.2296,1.245,1.2613,1.2791,1.2816,1.2816,1.2816,1.2832,1.284,1.284,1.284,1.284,1.284,1.2986,1.3084,1.3092,1.3433,1.3628,1.3644,1.3815,1.3904,1.3904,1.3904,1.3904,1.3904,1.3904,1.3904,1.3904,1.3904,1.3904,1.3904,1.3904,1.3904,1.3904,1.3904,1.3904,1.3904,1.3904,1.3904,1.3904,1.3761,1.3904,1.3904,0.0,0.0,0.0,0.0,0.0,0.0,0.0,0.0,0.0,0.0,0.0,0.0,0.0,0.0,0.0,0.0,0.0,0.0,0.0,0.0,0.8568,0.8568,0.8666,0.8723,0.8723,0.8723,0.8723,0.8723,0.9015,0.9218,0.9356,0.947,0.9559,0.9624,0.9624,0.9624,0.9624,0.9624,0.9624,0.9624,0.9624,0.9624,0.0,0.0,0.0,0.0,0.0,0.0,0.0,0.0,1.0688,1.0688,1.0688,1.0688,1.0688,1.0688,1.0688,1.072,1.0834,1.1037,1.1281,1.1508,1.1565,1.1679,1.2101,1.2288,1.2385,1.245,1.2467,1.241,1.2231,1.2288,1.2385,1.245,1.2621,1.2759,1.2824,1.284,1.284,1.284,1.284,1.284,1.284,1.284,1.2881,1.2986,1.3059,1.3189,1.3425,1.3571,1.3693,1.3798,1.3863,1.3904,1.3904,1.3904,1.3904,1.3904,1.3904,1.3904,1.3904,1.3904,1.3904,1.3904,1.3904,1.3904,1.3904,1.3904,1.3904,1.3904,1.3904,1.3904,1.3904,1.3904,1.3904,1.3904,0.0,0.0,0.0,0.0,0.0,0.0,0.0,0.0,0.0,0.0,0.0,0.0,0.0,0.0,0.0,0.0,0.0,0.0,0.9087,0.905,0.8996,0.8649,0.8812,0.8909,0.8909,0.8958,0.8958,0.8909,0.921,0.938,0.9445,0.9567,0.9624,0.9624,0.9624,0.9624,0.9624,0.9624,0.9624,0.9624,0.9624,0.9657,0.0,0.0,0.0,0.0,0.0,0.0,0.0,0.0,1.0688,1.0688,1.0688,1.0688,1.0688,1.0688,1.0688,1.0729,1.0915,1.1094,1.1313,1.1687,1.1817,1.1947,1.2304,1.2434,1.2515,1.2629,1.2605,1.2523,1.241,1.2483,1.2564,1.2564,1.2718,1.284,1.284,1.284,1.284,1.284,1.284,1.284,1.284,1.2889,1.297,1.3084,1.3206,1.3376,1.3628,1.3693,1.3782,1.3896,1.3904,1.3904,1.3904,1.3904,1.3904,1.3904,1.3904,1.3904,1.3904,1.3904,1.3904,1.3904,1.3904,1.3904,1.3904,1.3904,1.3904,1.3904,1.3904,1.3904,1.3904,1.3904,1.3904,1.3904,0.0,0.0,0.0,0.0,0.0,0.0,0.0,0.0,0.0,0.0,0.0,0.0,0.0,0.0,0.0,0.0,0.0,0.0,0.9951,1.0051,0.9804,0.882,0.8999,0.9096,0.9096,0.9267,0.9275,0.9104,0.9275,0.9445,0.9624,0.9624,0.9624,0.9624,0.9624,0.9624,0.9624,0.9624,0.9624,0.9624,0.9632,0.973,0.9884,0.0,0.0,0.0,0.0,0.0,0.0,0.0,1.0688,1.0688,1.0688,1.0688,1.0688,1.0688,1.0696,1.0737,1.0923,1.1094,1.1321,1.1687,1.1906,1.2125,1.2483,1.2434,1.241,1.2767,1.2694,1.2564,1.2564,1.2564,1.2564,1.2564,1.2718,1.284,1.284,1.284,1.284,1.284,1.284,1.284,1.284,1.2994,1.3092,1.31,1.3433,1.3644,1.3644,1.3807,1.3904,1.3904,1.3904,1.3904,1.3904,1.3904,1.3904,1.3904,1.3904,1.3904,1.3904,1.3904,1.3904,1.3904,1.3904,1.3904,1.3904,1.3904,1.3904,1.3904,1.3904,1.3904,1.3904,1.3904,1.3904,1.3904,0.0,0.0,0.0,0.0,0.0,0.0,0.0,0.0,0.0,0.0,0.0,0.0,0.0,0.0,0.0,0.0,0.0,0.0,1.0448,1.0423,1.0003,0.9015,0.9185,0.9275,0.9275,0.9453,0.9518,0.947,0.9518,0.9575,0.9624,0.9624,0.9624,0.9624,0.9624,0.9624,0.9624,0.9624,0.9624,0.964,0.9762,0.9843,0.9908,0.0,0.0,0.0,0.0,0.0,0.0,0.0,0.0,0.0,1.0688,1.0688,1.0688,1.0688,1.0785,1.0923,1.1102,1.1459,1.1817,1.1922,1.2182,1.2434,1.254,1.2523,1.2556,1.2791,1.2791,1.2718,1.2588,1.267,1.271,1.2588,1.2718,1.284,1.284,1.284,1.284,1.284,1.284,1.2881,1.3003,1.3068,1.3206,1.3465,1.3579,1.3701,1.3815,1.3872,1.3904,1.3904,1.3904,1.3904,1.3904,1.3904,1.3904,1.3904,1.3904,1.3904,1.3904,1.3904,1.3904,1.3904,1.3904,1.3904,1.3904,1.3904,1.3904,1.3904,1.3904,1.3904,1.3904,1.3904,1.3904,1.3904,0.0,0.0,0.0,0.0,0.0,0.0,0.0,0.0,0.0,0.0,0.0,0.0,0.0,0.0,0.0,0.0,0.0,0.0,0.0,1.0808,1.0211,0.9296,0.9364,0.9462,0.9462,0.9567,0.9624,0.9624,0.9624,0.9624,0.9624,0.9624,0.9624,0.9624,0.9624,0.9624,0.9624,0.9624,0.9624,0.964,0.9819,0.9933,1.003,0.0,0.0,0.0,0.0,0.0,0.0,0.0,0.0,0.0,1.0688,1.0688,1.0688,1.0688,1.0826,1.1021,1.1265,1.1622,1.1979,1.219,1.2402,1.258,1.2653,1.267,1.2702,1.2816,1.284,1.28,1.2694,1.2767,1.28,1.2686,1.2767,1.284,1.284,1.284,1.284,1.284,1.284,1.2905,1.3076,1.3157,1.3327,1.362,1.3709,1.379,1.3896,1.3904,1.3904,1.3904,1.3904,1.3904,1.3904,1.3904,1.3904,1.3904,1.3904,1.3904,1.3904,1.3904,1.3904,1.3904,1.3904,1.3904,1.3904,1.3904,1.3904,1.3904,1.3904,1.3904,1.3904,1.3904,1.3945,1.401,0.0,0.0,0.0,0.0,0.0,0.0,0.0,0.0,0.0,0.0,0.0,0.0,0.0,0.0,0.0,0.0,0.0,0.0,0.0,0.0,1.0514,0.9565,0.9633,0.9624,0.9624,0.9624,0.9624,0.9624,0.9624,0.9624,0.9624,0.9624,0.9624,0.9624,0.9624,0.9624,0.9624,0.9624,0.9632,0.9665,0.9843,1.0022,1.0209,1.0387,0.0,0.0,0.0,0.0,0.0,0.0,0.0,0.0,1.0688,1.0704,1.072,1.072,1.0875,1.111,1.1435,1.1687,1.1963,1.2442,1.258,1.2629,1.28,1.284,1.284,1.284,1.284,1.284,1.284,1.284,1.284,1.284,1.284,1.284,1.284,1.284,1.284,1.284,1.2848,1.2929,1.31,1.3287,1.3474,1.3652,1.3815,1.3904,1.3904,1.3904,1.3904,1.3904,1.3904,1.3904,1.3904,1.3904,1.3904,1.3904,1.3904,1.3904,1.3904,1.3904,1.3904,1.3904,1.3904,1.3904,1.3904,1.3904,1.3904,1.3904,1.392,1.3928,1.3928,1.3945,1.4058,1.4205,0.0,0.0,0.0,0.0,0.0,0.0,0.0,0.0,0.0,0.0,0.0,0.0,0.0,0.0,0.0,0.0,0.0,0.0,0.0,0.0,1.1783,1.0821,0.9993,0.9624,0.9624,0.9624,0.9624,0.9624,0.9624,0.9624,0.9624,0.9624,0.9624,0.9624,0.9624,0.9624,0.9624,0.9624,0.9705,0.9843,1.003,1.0209,1.0396,1.0566,1.0664,0.0,0.0,0.0,0.0,0.0,0.0,0.0,1.0688,1.0794,1.0907,1.0907,1.124,1.1622,1.1695,1.2052,1.2418,1.254,1.267,1.2791,1.2832,1.284,1.284,1.284,1.284,1.284,1.284,1.284,1.284,1.284,1.284,1.284,1.284,1.284,1.284,1.284,1.2954,1.3108,1.3295,1.3482,1.366,1.3831,1.388,1.3904,1.3904,1.3904,1.3904,1.3904,1.3904,1.3904,1.3904,1.3904,1.3904,1.3904,1.3904,1.3904,1.3904,1.3904,1.3904,1.3904,1.3904,1.3904,1.3904,1.3904,1.3904,1.3912,1.4058,1.4115,1.414,1.427,1.4343,1.4375,0.0,0.0,0.0,0.0,0.0,0.0,0.0,0.0,0.0,0.0,0.0,0.0,0.0,0.0,0.0,0.0,0.0,0.0,0.0,0.0,1.2436,1.195,1.0886,1.0404,1.0404,0.9821,0.9624,0.9624,0.9624,0.9624,0.9624,0.9624,0.9624,0.9624,0.9624,0.9624,0.964,0.9811,0.9884,0.9916,1.0274,1.042,1.0452,1.0623,1.0688,1.0688,0.0,0.0,0.0,0.0,0.0,0.0,0.0,0.0,1.0988,1.107,1.1354,1.1679,1.1849,1.2166,1.2483,1.2653,1.2767,1.284,1.284,1.284,1.284,1.284,1.284,1.284,1.284,1.284,1.284,1.284,1.284,1.284,1.284,1.284,1.2865,1.2954,1.3035,1.3206,1.3474,1.3587,1.3717,1.3888,1.3904,1.3904,1.3904,1.3904,1.3904,1.3904,1.3904,1.3904,1.3904,1.3904,1.3904,1.3904,1.3904,1.3904,1.3904,1.3904,1.3904,1.3904,1.3904,1.3904,1.3904,1.3993,1.4034,1.405,1.4229,1.4302,1.431,1.4399,1.4489,1.4562,0.0,0.0,0.0,0.0,0.0,0.0,0.0,0.0,0.0,0.0,0.0,0.0,0.0,0.0,0.0,0.0,0.0,0.0,0.0,0.0,0.0,1.2436,1.1463,1.0886,1.0886,1.001,0.9624,0.9624,0.9624,0.9624,0.9624,0.9624,0.9624,0.9624,0.9723,0.9764,0.9738,1.0203,1.0286,1.0063,1.0584,1.0691,1.0493,1.0639,0.0,0.0,0.0,0.0,0.0,0.0,0.0,0.0,0.0,0.0,1.1086,1.1232,1.1419,1.1654,1.1947,1.219,1.2426,1.2759,1.284,1.284,1.284,1.284,1.284,1.284,1.284,1.284,1.284,1.284,1.284,1.284,1.284,1.284,1.284,1.284,1.2897,1.3076,1.3124,1.3271,1.3612,1.3669,1.375,1.3888,1.3904,1.3904,1.3904,1.3904,1.3904,1.3904,1.3904,1.3904,1.3904,1.3904,1.3904,1.3904,1.3904,1.3904,1.3904,1.3904,1.3904,1.3904,1.3937,1.3945,1.3961,1.4148,1.4221,1.4237,1.4416,1.4481,1.4481,1.4513,1.4619,1.4757,0.0,0.0,0.0,0.0,0.0,0.0,0.0,0.0,0.0,0.0,1.5718,0.0,0.0,0.0,0.0,0.0,0.0,0.0,0.0,0.0,0.0,1.1463,1.0404,0.9821,0.9821,0.9624,0.9624,0.9624,0.9624,0.9624,0.9624,0.9624,0.9624,0.9624,1.0117,1.0196,1.019,1.0985,1.101,1.0574,1.1022,1.0966,1.0664,0.0,0.0,0.0,0.0,0.0,0.0,0.0,1.0802,0.0,0.0,0.0,1.1435,1.1451,1.1695,1.1971,1.202,1.2272,1.258,1.2783,1.284,1.284,1.284,1.284,1.284,1.284,1.284,1.284,1.284,1.284,1.284,1.284,1.284,1.284,1.284,1.284,1.2897,1.3076,1.3238,1.3417,1.362,1.3782,1.3872,1.3896,1.3904,1.3904,1.3904,1.3904,1.3904,1.3904,1.3904,1.3904,1.3904,1.3904,1.3904,1.3904,1.3904,1.3904,1.3904,1.3904,1.3904,1.3912,1.4075,1.414,1.4156,1.4326,1.4399,1.4416,1.4603,1.4676,1.4692,1.4838,1.4911,1.4927,0.0,0.0,0.0,0.0,0.0,0.0,0.0,0.0,0.0,0.0,0.0,1.6261,0.0,0.0,0.0,0.0,0.0,0.0,0.0,0.0,0.0,1.2931,1.1375,1.0493,1.0493,0.992,0.9624,0.9624,0.9624,0.9624,0.0,1.0021,1.0271,1.0271,1.0171,1.0526,1.1209,1.144,1.1584,1.1522,1.1546,1.1431,0.0,0.0,0.0,0.0,0.0,0.0,0.0,0.0,1.0899,1.1005,1.12,0.0,0.0,0.0,1.1768,1.1931,1.2134,1.2369,1.2605,1.2791,1.284,1.284,1.284,1.284,1.284,1.284,1.284,1.284,1.284,1.284,1.284,1.284,1.284,1.284,1.284,1.2921,1.3043,1.323,1.3409,1.3595,1.3774,1.3855,1.3904,1.3904,1.3904,1.3904,1.3904,1.3904,1.3904,1.3904,1.3904,1.3904,1.3904,1.3904,1.3904,1.3904,1.3904,1.3953,1.4058,1.4058,1.4058,1.4058,1.414,1.4237,1.4335,1.4513,1.4586,1.4603,1.4781,1.4854,1.4862,1.4935,1.4968,1.4968,0.0,0.0,0.0,0.0,0.0,0.0,0.0,0.0,0.0,0.0,0.0,0.0,0.0,0.0,0.0,0.0,0.0,0.0,0.0,0.0,0.0,1.4292,1.2533,1.1463,1.117,1.0395,0.992,0.9624,0.9673,0.0,0.9896,1.0575,1.1003,1.115,1.0835,1.1156,1.2002,1.2206,1.2271,1.2304,1.2072,1.1975,0.0,0.0,0.0,0.0,0.0,0.0,0.0,1.1414,1.1733,1.2161,1.2337,1.246,0.0,0.0,0.0,1.2318,1.2274,1.2328,1.2483,1.271,1.2767,1.2783,1.2824,1.284,1.284,1.284,1.284,1.284,1.284,1.284,1.284,1.284,1.284,1.284,1.284,1.2986,1.3165,1.3352,1.353,1.3709,1.3888,1.3904,1.3904,1.3904,1.3904,1.3904,1.3904,1.3904,1.3904,1.3904,1.3904,1.3904,1.3904,1.3904,1.3904,1.3904,1.3945,1.4042,1.418,1.4221,1.427,1.4318,1.4318,1.4383,1.4513,1.47,1.4773,1.4789,1.4919,1.4968,1.4968,1.4968,1.4968,1.4968,0.0,0.0,0.0,0.0,0.0,0.0,0.0,0.0,0.0,0.0,0.0,0.0,0.0,0.0,0.0,1.5832,1.5832,1.5832,1.5832,1.4867,1.4292,1.4292,1.3221,0.0,1.1268,1.117,1.0592,0.9624,0.0,0.0,1.0786,1.0878,1.1385,1.2192,1.2615,1.2636,1.2408,1.3521,1.3535,1.271,1.2618,1.2301,0.0,0.0,0.0,0.0,0.0,0.0,1.286,1.2956,1.3959,1.5055,1.5087,1.5248,1.544,0.0,0.0,0.0,1.2356,1.2052,1.2142,1.2491,1.258,1.2621,1.28,1.284,1.284,1.284,1.284,1.284,1.284,1.284,1.284,1.284,1.284,1.284,1.284,1.2986,1.3165,1.3352,1.353,1.3709,1.3888,1.3904,1.3904,1.3904,1.3904,1.3904,1.3904,1.3904,1.3904,1.3904,1.3904,1.3904,1.3904,1.3904,1.3904,1.3904,1.4083,1.4172,1.4188,1.4343,1.4513,1.4684,1.4684,1.4684,1.4708,1.4879,1.4952,1.4952,1.496,1.4968,1.4968,1.4968,1.4968,1.4968,0.0,0.0,0.0,0.0,0.0,0.0,0.0,0.0,0.0,0.0,0.0,0.0,0.0,1.6319,1.6035,1.6035,1.5927,1.5912,1.6099,1.4967,1.4377,1.4545,1.3397,1.2314,1.1368,1.1378,1.0842,0.0,0.0,1.0681,1.099,1.1812,1.247,1.276,1.2548,1.2666,1.2989,1.3423,1.3366,1.3108,1.2802,1.2374,0.0,0.0,0.0,0.0,1.2241,1.2794,1.3394,1.4412,1.5025,0.0,0.0,0.0,0.0,1.5569,1.4738,1.3832,1.4275,1.3854,1.3313,1.3582,1.3743,1.3602,1.2905,1.2751,1.284,1.284,1.284,1.284,1.284,1.284,1.284,1.284,1.284,1.2873,1.2986,1.3157,1.3344,1.3522,1.3701,1.3831,1.3896,1.3904,1.3904,1.3904,1.3904,1.3904,1.3904,1.3904,1.3904,1.3904,1.3904,1.3904,1.3904,1.3904,1.3961,1.4083,1.4148,1.4294,1.4521,1.4578,1.4708,1.4871,1.4871,1.4871,1.4879,1.4944,1.4968,1.4968,1.4968,1.4968,1.4968,1.4968,1.4968,1.4968,0.0,0.0,0.0,0.0,0.0,0.0,0.0,0.0,0.0,0.0,0.0,0.0,0.0,0.0,1.6512,1.6512,1.6222,1.6206,1.6406,1.5647,1.5231,1.5406,1.4544,1.3633,1.2697,1.2697,1.2171,0.0,0.0,0.0,0.0,1.2452,1.2869,1.3082,1.3295,1.3378,1.365,1.4039,1.3919,1.3671,1.3951,1.3409,1.2454,1.2548,1.2552,1.2569,1.3693,1.4381,1.5035,1.6164,1.6759,0.0,0.0,0.0,0.0,0.0,1.5688,1.5116,1.5632,1.5073,1.4528,1.4735,1.4778,1.4673,1.355,1.3302,1.3282,1.2824,1.284,1.284,1.284,1.284,1.284,1.284,1.284,1.2897,1.3068,1.3254,1.3441,1.362,1.3798,1.3904,1.3904,1.3904,1.3904,1.3904,1.3904,1.3904,1.3904,1.3904,1.3904,1.3904,1.3904,1.3904,1.3904,1.3961,1.4058,1.418,1.4302,1.4481,1.4708,1.4765,1.4854,1.4968,1.4968,1.4968,1.4968,1.4968,1.4968,1.4968,1.4968,1.4968,1.4968,1.4968,1.4968,1.4968,0.0,0.0,0.0,0.0,0.0,0.0,0.0,0.0,0.0,0.0,0.0,0.0,0.0,0.0,0.0,1.71,1.6914,1.6714,1.6714,1.6714,1.6714,1.6714,1.6714,1.6299,1.5202,1.5202,1.4491,1.2854,0.0,0.0,0.0,0.0,1.2762,1.3423,1.4934,1.5041,1.4321,1.5401,1.5149,1.4353,1.601,1.5238,1.3498,1.5214,1.5014,1.3933,1.5343,1.6537,1.7693,1.8204,1.9229,0.0,0.0,0.0,0.0,0.0,0.0,1.722,0.0,0.0,0.0,1.5838,1.5903,1.5666,1.474,1.4591,1.4272,1.3054,1.2832,1.2964,1.2832,1.2832,1.2832,1.2832,1.2832,1.2897,1.3076,1.3254,1.3441,1.3628,1.3798,1.3904,1.3904,1.3904,1.3904,1.3904,1.3904,1.3904,1.3904,1.3904,1.3904,1.3904,1.3904,1.3904,1.3912,1.4091,1.418,1.4196,1.4546,1.4708,1.4724,1.4887,1.4968,1.4968,1.4968,1.4968,1.4968,1.4968,1.4968,1.4968,1.4968,1.4968,1.4968,1.4968,1.4968,1.4968,0.0,0.0,0.0,0.0,0.0,0.0,0.0,0.0,0.0,0.0,0.0,0.0,0.0,0.0,0.0,1.7512,1.7413,1.741,1.7618,1.7438,1.741,1.7631,1.7424,1.6894,1.5971,1.5778,1.5243,1.4356,0.0,0.0,0.0,0.0,0.0,0.0,1.6402,1.6609,1.6392,1.5908,1.5787,1.5775,1.6138,1.5982,1.5472,1.6228,1.6199,1.6053,1.7242,1.8033,1.8471,1.9619,2.0024,1.9867,0.0,0.0,0.0,0.0,0.0,0.0,1.8181,0.0,0.0,0.0,0.0,0.0,1.5708,1.5504,1.5312,1.4263,1.4814,1.5238,1.4493,1.4259,1.4259,1.4259,1.3481,1.2946,1.3254,1.3336,1.3482,1.379,1.3872,1.3904,1.3904,1.3904,1.3904,1.3904,1.3904,1.3904,1.3904,1.3904,1.3904,1.3904,1.3904,1.3969,1.4099,1.4156,1.431,1.4562,1.4659,1.4773,1.4895,1.4944,1.4968,1.4968,1.4968,1.4968,1.4968,1.4968,1.4968,1.4968,1.4968,1.4968,1.4968,1.4968,1.4968,1.4968,0.0,0.0,0.0,0.0,0.0,0.0,0.0,0.0,0.0,0.0,0.0,0.0,0.0,0.0,0.0,1.8094,1.8006,1.7974,1.8142,1.7988,1.7974,1.8156,1.7988,1.7668,1.7198,1.699,1.665,1.6062,0.0,0.0,0.0,0.0,0.0,0.0,0.0,1.7978,1.7882,1.7448,1.7091,1.6931,1.7753,1.7515,1.6793,1.7901,1.8018,1.7611,1.8964,1.9398,1.9674,2.0565,2.0468,1.9947,0.0,0.0,0.0,0.0,0.0,0.0,0.0,0.0,0.0,1.8286,0.0,0.0,1.6994,1.6909,1.6739,1.5691,1.6136,1.6562,1.5923,1.5814,1.5814,1.5814,1.4651,1.3618,1.3456,1.3368,1.3506,1.3855,1.3904,1.3904,1.3904,1.3904,1.3904,1.3904,1.3904,1.3904,1.3904,1.3904,1.3904,1.3904,1.3904,1.3993,1.418,1.4245,1.4424,1.4708,1.4781,1.4871,1.4968,1.4968,1.4968,1.4968,1.4968,1.4968,1.4968,1.4968,1.4968,1.4968,1.4968,1.4968,1.4968,1.4968,1.4968,1.4968,0.0,0.0,0.0,0.0,0.0,0.0,0.0,0.0,0.0,0.0,0.0,0.0,0.0,0.0,0.0,0.0,1.8646,1.8527,1.8527,1.8527,1.8527,1.8527,1.8527,1.8527,1.8527,1.8422,1.8227,1.7847,0.0,0.0,0.0,0.0,0.0,0.0,0.0,0.0,1.9195,1.9387,1.8937,1.8328,2.003,1.9586,1.8046,2.0066,2.0099,1.9199,2.0335,2.0846,2.0886,2.0989,2.0722,2.0267,0.0,0.0,0.0,0.0,1.9386,0.0,0.0,0.0,0.0,0.0,1.9372,0.0,1.8555,1.8289,1.8066,1.7274,1.7246,1.7257,1.715,1.7161,1.7161,1.7161,1.5893,1.4508,1.3721,1.3505,1.3506,1.3855,1.3904,1.3904,1.3904,1.3904,1.3904,1.3904,1.3904,1.3904,1.3904,1.3904,1.3904,1.3904,1.392,1.4018,1.4205,1.4375,1.4554,1.4741,1.4895,1.4968,1.4968,1.4968,1.4968,1.4968,1.4968,1.4968,1.4968,1.4968,1.4968,1.4968,1.4968,1.4968,1.4968,1.4968,1.4968,1.4968,0.0,0.0,0.0,0.0,0.0,0.0,0.0,0.0,0.0,0.0,0.0,0.0,0.0,0.0,0.0,0.0,1.9168,1.9168,1.9168,1.9168,1.9168,1.9168,1.9168,1.9168,1.9168,1.8855,1.8984,1.9348,0.0,0.0,0.0,0.0,0.0,0.0,0.0,0.0,2.0424,2.0742,2.0874,2.0857,2.0858,2.0787,2.0911,2.1835,2.1839,2.1379,2.1393,2.1393,2.1366,2.094,2.0681,2.0508,2.0027,1.996,1.9973,1.9506,0.0,0.0,0.0,0.0,0.0,0.0,1.9372,0.0,1.9155,1.9181,1.8906,1.778,1.8458,1.9018,1.8125,1.7913,1.7913,1.7913,1.6066,1.4735,1.4909,1.4045,1.3506,1.3855,1.3904,1.3904,1.3904,1.3904,1.3904,1.3904,1.3904,1.3904,1.3904,1.3904,1.3904,1.3904,1.405,1.4205,1.4383,1.4562,1.4741,1.4919,1.4952,1.4968,1.4968,1.4968,1.4968,1.4968,1.4968,1.4968,1.4968,1.4968,1.4968,1.4968,1.4968,1.4968,1.4968,1.4968,1.4968,1.4968,0.0,0.0,0.0,0.0,0.0,0.0,0.0,0.0,0.0,0.0,0.0,0.0,0.0,0.0,0.0,0.0,0.0,0.0,0.0,1.9272,1.9272,1.9272,1.9272,1.936,1.952,1.9415,1.9575,2.0003,0.0,0.0,0.0,0.0,0.0,0.0,0.0,2.0969,2.0969,2.1145,2.1393,2.1715,2.1427,2.152,2.1947,2.2185,2.2104,2.1866,2.1614,2.1488,2.1335,2.0935,2.0695,2.0428,2.0281,2.0134,1.996,1.9666,1.9679,1.9733,0.0,0.0,0.0,1.9372,1.9372,0.0,0.0,1.9586,1.943,1.9095,1.952,1.9813,1.9338,1.9242,1.9242,1.9242,1.7827,1.6754,1.6848,1.4934,1.3506,1.3855,1.3904,1.3904,1.3904,1.3904,1.3904,1.3904,1.3904,1.3904,1.3904,1.3904,1.3904,1.3904,1.4083,1.4261,1.4432,1.4611,1.4797,1.4968,1.4968,1.4968,1.4968,1.4968,1.4968,1.4968,1.4968,1.4968,1.4968,1.4968,1.4968,1.4968,1.4968,1.4968,1.4968,1.4968,1.4968,1.4968,0.0,0.0,0.0,0.0,0.0,0.0,0.0,0.0,0.0,0.0,0.0,0.0,0.0,0.0,0.0,0.0,0.0,0.0,0.0,1.9433,1.9403,1.9286,1.9389,1.955,1.9755,1.9828,2.0018,2.0325,0.0,0.0,0.0,0.0,0.0,0.0,0.0,2.1276,2.1218,2.1276,2.1496,2.1818,2.1814,2.1982,2.2162,2.2242,2.2104,2.1866,2.1853,2.1488,2.1222,2.1168,2.0832,2.0347,2.059,2.0254,1.9933,1.9773,1.98,1.9813,1.9466,0.0,0.0,0.0,0.0,1.9426,0.0,0.0,0.0,2.0013,2.0067,2.0067,2.0067,2.0067,2.0054,1.9987,1.9211,1.8608,1.8007,1.5371,1.3754,1.4123,1.3981,1.3888,1.3855,1.3855,1.3863,1.3896,1.3872,1.3863,1.3896,1.3904,1.392,1.3953,1.4131,1.431,1.4481,1.4667,1.483,1.4968,1.4968,1.4968,1.4968,1.4968,1.4968,1.4968,1.4968,1.4968,1.4968,1.4968,1.4968,1.4968,1.4968,1.4968,1.4968,1.4968,1.4968,1.4968,2.0199,2.1432,0.0,0.0,0.0,0.0,0.0,0.0,0.0,0.0,0.0,0.0,0.0,0.0,0.0,0.0,0.0,0.0,1.9725,1.9974,1.9872,1.9301,1.9828,2.0018,1.9769,2.0033,2.034,2.0662,0.0,0.0,0.0,0.0,0.0,2.1174,2.1496,2.1481,2.1233,2.1525,2.1832,2.2125,2.2169,2.2359,2.253,2.2864,2.2981,2.2856,2.2606,2.2104,2.1573,2.1548,2.1163,2.0658,2.0414,2.0456,2.0428,1.9639,1.9786,2.0067,1.9519,1.9372,0.0,0.0,1.9372,1.9372,1.9412,0.0,1.9426,1.9452,0.0,1.9466,1.9466,0.0,0.0,1.9118,1.837,1.7369,1.6132,1.5061,1.4474,1.4879,1.4301,1.3839,1.3693,1.3677,1.3734,1.3888,1.3758,1.3742,1.3896,1.3904,1.3977,1.414,1.431,1.4489,1.4676,1.4846,1.4944,1.4968,1.4968,1.4968,1.4968,1.4968,1.4968,1.4968,1.4968,1.4968,1.4968,1.4968,1.4968,1.4968,1.4968,1.4968,1.4968,1.4968,1.4968,1.4968,2.2186,2.3019,0.0,0.0,0.0,0.0,0.0,0.0,0.0,0.0,0.0,0.0,2.088,2.0609,2.0442,0.0,0.0,2.0384,2.0062,0.0,0.0,1.9842,2.0091,2.0267,2.0325,2.0442,2.0676,2.1013,2.1013,0.0,0.0,0.0,0.0,2.1218,2.1554,2.1613,2.1496,2.1642,2.1876,2.2184,2.2184,2.2359,2.2652,2.2988,2.2981,2.2731,2.223,2.1853,2.1587,0.0,2.0943,0.0,0.0,2.0496,2.0134,1.9933,1.992,1.9893,1.9479,1.9492,0.0,0.0,0.0,0.0,1.9412,0.0,1.9372,0.0,0.0,0.0,0.0,0.0,0.0,0.0,1.9194,1.8829,1.7909,1.6728,1.5404,1.413,1.3568,1.349,1.3628,1.3644,1.3717,1.3888,1.3742,1.3717,1.3896,1.3904,1.3985,1.4172,1.4343,1.4521,1.4708,1.4879,1.4968,1.4968,1.4968,1.4968,1.4968,1.4968,1.4968,1.4968,1.4968,1.4968,1.4968,1.4968,1.4968,1.4968,1.4968,1.4968,1.4968,1.4968,1.4968,1.4968,0.0,0.0,0.0,0.0,0.0,0.0,0.0,0.0,0.0,2.2857,2.2214,2.1764,2.1544,2.1246,2.0952,2.0384,2.075,2.0808,2.0398,2.053,2.0559,2.0384,2.0457,2.0618,2.0852,2.0852,2.0969,2.1203,2.1203,2.1203,0.0,0.0,0.0,2.1218,2.1554,2.1701,2.1701,2.1789,2.2008,2.2301,2.2301,2.2432,2.2652,2.2988,2.2981,2.2606,2.223,2.1978,2.1839,2.1519,2.0956,0.0,2.0886,2.0604,2.0067,2.0187,2.0147,1.996,1.9586,0.0,0.0,0.0,0.0,0.0,0.0,0.0,0.0,0.0,1.9372,0.0,0.0,0.0,1.9345,0.0,0.0,1.9694,1.8842,1.7462,1.5936,1.4146,1.3403,1.3222,1.3539,1.3522,1.3587,1.3815,1.3669,1.3669,1.3888,1.3904,1.401,1.4237,1.4367,1.4546,1.4773,1.4903,1.4968,1.4968,1.4968,1.4968,1.4968,1.4968,1.4968,1.4968,1.4968,1.4968,1.4968,1.4968,1.4968,1.4968,1.4968,1.4968,1.4968,1.4968,1.4968,1.4968,2.4394,2.4414,0.0,0.0,2.4414,2.457,0.0,0.0,2.4225,2.4509,2.3545,2.2682,2.1862,2.2025,2.1803,2.0818,2.1291,2.1393,2.075,2.1306,2.1364,2.0735,2.1013,2.1189,2.1189,2.1189,2.1203,2.1203,2.1203,2.1203,2.1203,2.1203,2.1203,2.1218,2.1554,2.1701,2.1715,2.2037,2.2345,2.2608,2.2608,2.2608,2.2652,2.2988,2.3106,2.3106,2.3106,0.0,0.0,2.2124,2.1656,0.0,0.0,0.0,0.0,0.0,0.0,0.0,0.0,0.0,0.0,1.9439,0.0,0.0,0.0,0.0,1.9372,0.0,0.0,0.0,0.0,0.0,0.0,0.0,0.0,0.0,0.0,1.6272,1.5785,1.6,1.4326,1.3165,1.336,1.3214,1.3262,1.3628,1.3482,1.353,1.388,1.3904,1.4058,1.4416,1.4432,1.4603,1.4952,1.496,1.4968,1.4968,1.4968,1.4968,1.4968,1.4968,1.4968,1.4968,1.4968,1.4968,1.4968,1.4968,1.4968,1.4968,1.4968,1.4968,1.4968,1.4968,1.4968,1.4968,0.0,0.0,0.0,2.4902,2.4844,2.5,2.5449,2.5334,2.5055,2.4647,2.3665,2.2682,2.1878,2.1693,2.1368,2.1042,2.1642,2.1832,2.1393,2.1569,2.1598,2.1379,2.1262,2.1306,2.1525,2.132,2.1203,2.1203,2.1203,2.1203,2.1203,2.1203,2.1203,2.1218,2.1554,2.1818,2.2023,2.214,2.2359,2.2608,2.2418,2.2447,2.2637,2.274,2.2784,2.2813,2.2783,2.2606,0.0,2.1867,2.1327,2.0943,2.0913,2.0738,2.0401,2.0494,2.0454,0.0,0.0,0.0,2.0508,1.9826,0.0,0.0,0.0,0.0,0.0,0.0,0.0,0.0,0.0,0.0,0.0,0.0,0.0,0.0,0.0,1.6949,1.555,1.4873,1.369,1.2994,1.3173,1.3238,1.3376,1.3628,1.3587,1.3652,1.3888,1.4018,1.4188,1.4424,1.4554,1.4724,1.496,1.4968,1.4968,1.4968,1.4968,1.4968,1.4968,1.4968,1.4968,1.4968,1.4968,1.4968,1.4968,1.4968,1.4968,1.4968,1.4968,1.4968,1.4968,1.4968,1.4968,1.4968,2.582,0.0,0.0,2.5352,2.5312,2.541,2.5684,2.5742,2.5585,2.5271,2.4422,2.3496,2.2716,2.2193,2.1825,2.1379,2.1964,2.2154,2.173,2.1906,2.1979,2.1876,2.1672,2.1701,2.2023,2.1598,2.1379,2.1379,2.1262,2.1203,2.1203,2.1203,2.1203,2.1218,2.1554,2.1876,2.2198,2.2301,2.252,2.2754,2.2345,2.2359,2.2623,2.2623,2.2623,2.2667,0.0,2.2677,2.2525,2.2272,2.1837,2.1556,2.1619,2.1289,2.0895,2.1082,2.1002,2.0828,2.0735,2.0975,0.0,2.0428,2.0548,0.0,1.9987,0.0,1.98,0.0,0.0,0.0,0.0,0.0,0.0,0.0,0.0,0.0,0.0,1.7446,1.6,1.4375,1.3319,1.2832,1.3068,1.3149,1.3279,1.353,1.3547,1.3628,1.3798,1.4042,1.4253,1.4424,1.4611,1.4789,1.496,1.4968,1.4968,1.4968,1.4968,1.4968,1.4968,1.4968,1.4968,1.4968,1.4968,1.4968,1.4968,1.4968,1.4968,1.4968,1.4968,1.4968,1.4968,1.4968,1.4968,1.4968,2.6091,2.5917,2.5742,2.5742,2.5742,2.5742,2.5742,2.5742,2.58,2.6187,2.5638,2.4861,2.4213,2.3698,2.2983,2.1965,2.2301,2.2389,2.1774,2.2301,2.2506,2.2213,2.2198,2.233,2.2608,2.2008,2.1701,2.1701,2.1364,2.1203,2.1203,2.1203,2.1218,2.1247,2.1554,2.1876,2.2198,2.2476,2.2784,2.3032,2.2462,2.2389,2.2652,2.2667,2.2667,2.271,2.3047,2.3354,2.349,2.3235,2.3049,2.2897,2.2635,2.2241,2.1991,2.1991,2.1991,2.1924,2.1657,2.159,2.1523,2.1203,0.0,0.0,0.0,0.0,2.0615,0.0,0.0,0.0,0.0,0.0,0.0,0.0,0.0,0.0,1.788,1.7827,1.7104,1.4644,1.3343,1.2832,1.3051,1.2938,1.2994,1.3344,1.3368,1.3457,1.3644,1.3985,1.4253,1.4424,1.4619,1.4797,1.496,1.4968,1.4968,1.4968,1.4968,1.4968,1.4968,1.4968,1.4968,1.4968,1.4968,1.4968,1.4968,1.4968,1.4968,1.4968,1.4968,1.4968,1.4968,1.4968,1.4968,1.4968,2.6091,2.5917,2.5742,2.5742,2.5742,2.5742,2.5742,2.5742,2.54,2.4632,2.5164,2.5289,2.4204,2.4242,2.4158,2.3935,2.3352,2.2813,2.2403,2.2535,2.2593,2.252,2.2301,2.233,2.2608,2.2008,2.1701,2.1701,2.1364,2.1203,2.1203,2.1203,2.1335,2.1569,2.1657,2.1876,2.2184,2.2257,2.2476,2.2754,2.2842,2.2915,2.3018,0.0,2.334,2.3384,2.372,2.3752,2.3566,2.3436,2.3233,2.3042,2.2635,2.2372,2.2372,2.2123,2.1991,2.1964,2.1897,2.2031,2.2071,2.1563,2.1603,2.163,0.0,0.0,0.0,0.0,0.0,0.0,0.0,0.0,0.0,0.0,0.0,0.0,0.0,1.8713,1.7994,1.7508,1.5443,1.3802,1.3013,1.2978,1.3124,1.3352,1.3368,1.3506,1.3815,1.405,1.4253,1.4424,1.4741,1.4919,1.4968,1.4968,1.4968,1.4968,1.4968,1.4968,1.4968,1.4968,1.4968,1.4968,1.4968,1.4968,1.4968,1.4968,1.4968,1.4968,1.4968,1.4968,1.4968,1.4968,1.4968,1.4968,2.64,2.6269,2.6094,2.6016,2.6328,2.6523,2.6328,2.6289,2.6155,2.5827,2.6118,2.6224,2.5673,2.5185,2.477,2.477,2.3731,2.2974,2.2637,2.2754,2.2769,2.2637,2.2608,2.2667,2.2828,2.2359,2.2037,2.1906,2.1584,2.135,2.1218,2.135,2.1525,2.1715,2.1979,2.2198,2.2389,2.2681,2.2813,2.2857,2.3193,2.3413,0.0,2.3735,2.3984,2.4262,2.4437,2.4291,2.4028,2.4028,2.3865,2.37,2.3434,2.3301,2.3034,2.2767,2.2633,2.2633,2.2365,2.2485,2.2539,2.2205,2.2245,2.2245,2.179,2.1683,2.1643,0.0,0.0,0.0,0.0,0.0,0.0,0.0,0.0,0.0,0.0,1.9711,1.91,1.8625,1.7345,1.5792,1.3857,1.3319,1.3319,1.417,1.3654,1.3376,1.3652,1.3993,1.4253,1.4424,1.4708,1.4887,1.4968,1.4887,1.4887,1.4968,1.4968,1.4968,1.4968,1.4968,1.4968,1.4968,1.4968,1.4968,1.4968,1.4968,1.4968,1.4968,1.4968,1.4968,1.4968,1.4968,1.4968,1.4968,2.6982,2.6781,2.6665,2.6545,2.7187,2.7637,2.7324,2.7207,2.7376,2.8125,2.7657,2.7492,2.7724,2.6491,2.5562,2.5317,2.4085,2.3113,2.271,2.2945,2.2988,2.2696,2.2959,2.3106,2.3106,2.2784,2.2476,2.2184,2.1862,2.1554,2.1276,2.1569,2.1745,2.1847,2.2374,2.2652,2.2725,2.3296,2.3398,2.3208,2.3574,2.3896,2.4145,2.4188,2.4554,2.5052,2.5052,2.4876,2.4642,2.4642,2.4684,2.451,2.4495,2.4224,2.3966,2.3543,2.3406,2.327,2.2996,2.2859,2.2859,2.2859,2.2859,2.2792,2.2539,2.2472,2.2405,2.2151,2.2098,2.2084,0.0,0.0,0.0,2.0869,0.0,0.0,0.0,2.0681,2.0453,1.9136,1.9079,0.0,1.5944,1.4128,1.3558,1.4796,1.3729,1.3173,1.3425,1.3888,1.4245,1.4464,1.4643,1.4806,1.4927,1.4806,1.4806,1.4927,1.4952,1.4968,1.4968,1.4968,1.4968,1.4968,1.4968,1.4968,1.4968,1.4968,1.4968,1.4968,1.4968,1.4968,1.4968,1.4968,1.4968,1.4968,2.7077,2.6903,2.6864,2.712,2.7806,2.8281,2.8555,2.8301,2.8037,2.7753,2.8614,2.905,2.8744,2.8354,2.7847,2.6779,2.5439,2.4317,2.3157,2.3076,2.3091,2.3032,2.3076,2.3106,2.3106,2.2784,2.2476,2.2184,2.1862,2.1672,2.1613,2.1672,2.1964,2.2462,2.2579,2.2769,2.3032,2.3149,2.331,2.3559,2.4159,2.4437,2.451,2.4788,2.4949,2.5052,2.5052,2.5022,2.4964,2.4964,2.5008,2.4916,2.4645,2.4224,2.3966,2.3543,2.3133,2.2996,2.2859,2.2859,2.2859,2.2859,2.2859,2.2846,2.2792,2.2779,2.2766,2.2726,2.2712,2.2632,2.2392,0.0,0.0,0.0,0.0,0.0,0.0,2.1724,2.154,2.1159,2.0128,1.9536,1.9966,1.6721,1.4209,1.3478,1.3095,1.3149,1.3774,1.3896,1.4172,0.0,1.483,1.4871,0.0,0.0,1.4862,1.4757,1.4895,1.4968,1.4968,1.4968,1.4968,1.4968,1.4968,1.4968,1.4968,1.4968,1.4968,1.4968,1.4968,1.4968,1.4968,1.4968,1.4968,1.4968,2.7521,2.7583,2.768,2.7806,2.8486,2.9101,2.9512,2.9609,2.9463,2.9051,2.9543,2.9812,2.964,2.9146,2.8683,2.8086,2.6277,2.4826,2.4209,2.3479,2.3106,2.3106,2.3106,2.3106,2.3106,2.2959,2.2652,2.2184,0.0,0.0,0.0,2.2023,2.233,2.2637,2.2974,2.3208,2.3384,2.372,0.0,2.4145,2.4627,2.4818,2.4832,2.4993,2.5052,2.5052,2.5052,2.5052,2.5052,2.5052,2.5052,2.5052,2.4916,2.4645,2.451,2.3816,2.3543,2.3406,2.2996,2.2859,2.2859,2.2859,2.2859,2.2859,2.2859,2.2859,2.2859,2.2859,2.2859,2.2766,2.2472,2.2071,0.0,0.0,0.0,0.0,0.0,0.0,2.1937,2.179,2.1111,2.0566,2.0297,1.8337,1.6764,1.6216,1.4697,1.4165,1.4841,1.4273,1.4148,0.0,0.0,0.0,1.4838,0.0,1.4838,1.4846,1.4927,1.4968,1.4968,1.4968,1.4968,1.4968,1.4968,1.4968,1.4968,1.4968,1.4968,1.4968,1.4968,1.4968,1.4968,1.4968,1.4968,1.4968,2.8188,2.8307,2.8585,2.8672,2.9231,2.9707,3.0137,3.0586,3.0762,3.0391,3.0351,3.0351,3.0351,2.9695,2.9176,2.892,2.7125,2.579,2.5562,2.4209,2.3479,2.3479,2.323,2.3106,2.3106,2.3106,2.2828,2.2271,0.0,0.0,0.0,2.233,2.2696,2.2857,2.3369,2.3676,0.0,0.0,2.4613,2.4701,2.4949,2.5052,2.5052,2.5052,2.5052,2.5052,2.5052,2.5052,2.5052,2.5052,2.5052,2.5052,2.5052,2.5052,2.4916,2.4238,2.4102,2.383,2.327,2.3133,2.2996,2.2996,2.2996,2.2859,2.2859,2.2859,2.2859,2.2859,2.2859,2.2766,2.2472,2.2231,0.0,0.0,0.0,0.0,0.0,0.0,2.2151,2.2084,2.1817,2.1241,2.0185,1.9616,1.9468,1.9591,1.6686,1.5119,1.5329,0.0,0.0,0.0,0.0,1.4757,1.4846,0.0,1.4814,1.4911,1.4952,1.4968,1.4968,1.4968,1.4968,1.4968,1.4968,1.4968,1.4968,1.4968,1.4968,1.4968,1.4968,1.4968,1.4968,1.4968,1.4968,1.4968,2.9268,2.8834,2.8765,2.9699,2.9754,2.9707,3.0137,3.0586,3.0879,3.084,3.082,3.082,3.082,3.0743,3.0274,2.9039,2.8683,2.8086,2.69,2.5684,2.4949,2.4949,2.3728,2.3106,2.3106,2.3106,2.293,0.0,0.0,2.2301,0.0,0.0,0.0,0.0,0.0,0.0,0.0,2.454,2.4744,2.5008,2.5052,2.5052,2.5052,2.5052,2.5052,2.5052,2.5052,2.5052,2.5052,2.5052,2.5052,2.5052,2.5052,2.4916,2.451,2.4495,2.4224,2.3966,2.3966,2.3679,2.3406,2.3406,2.3133,2.2859,2.2859,2.2859,2.2859,2.2859,2.2859,2.2766,2.2472,2.2392,2.2298,0.0,0.0,0.0,0.0,0.0,2.2672,2.2405,2.2124,2.1937,2.1806,2.1173,2.1067,2.1726,1.7675,1.4783,1.4131,0.0,0.0,1.4692,1.4708,1.4635,1.4481,1.4789,1.4871,1.4732,1.4887,1.4968,1.4968,1.4968,1.4968,1.4968,1.4968,1.4968,1.4968,1.4968,1.4968,1.4968,1.4968,1.4968,1.4968,1.4968,1.4968,1.4968,3.0248,3.0012,2.9828,3.0294,3.0187,3.0098,3.0547,3.0762,3.0898,3.0898,3.0898,3.0898,3.0898,3.0898,3.0645,3.0157,2.9412,2.8325,2.7142,2.5806,2.4702,2.3961,2.3355,2.3106,2.3106,2.3106,2.3047,0.0,0.0,0.0,0.0,0.0,0.0,0.0,0.0,2.432,2.4583,2.4774,2.4935,2.5052,2.5052,2.5052,2.5052,2.5052,2.5052,2.5052,2.5052,2.5052,2.5052,2.5052,2.5052,2.5052,2.5052,2.5052,2.4781,2.451,2.4374,2.4238,2.4102,2.3816,2.3816,2.3816,2.3679,2.3543,2.3543,2.3543,2.3543,2.327,2.2996,2.2819,2.2712,2.2539,2.2432,0.0,0.0,0.0,0.0,0.0,2.2752,2.2458,2.2311,2.2178,2.2004,2.1777,2.1332,2.075,1.7995,1.6425,0.0,0.0,0.0,1.4529,0.0,1.5833,1.4603,1.4838,1.4927,1.4862,1.4935,1.4968,1.4968,1.4968,1.4968,1.4968,1.4968,1.4968,1.4968,1.4968,1.4968,1.4968,1.4968,1.4968,1.4968,1.4968,1.4968,1.4968,3.0892,3.0671,3.0549,3.0675,3.0407,3.0351,3.082,3.0898,3.0898,3.0898,3.0898,3.0898,3.0898,3.0898,3.0898,3.0898,3.002,2.9057,2.8224,2.6883,2.5668,2.4332,2.3837,2.3479,2.3106,2.3208,2.3252,2.3252,2.3354,0.0,0.0,0.0,0.0,0.0,2.4466,2.4627,2.473,2.4964,2.5052,2.5052,2.5052,2.5052,2.5187,2.5577,2.5457,2.5187,2.5981,2.5981,2.5712,2.5712,2.5981,2.61,2.5322,2.5052,2.5052,2.4781,2.4645,2.4645,2.4374,2.4238,2.4088,2.4088,2.4088,2.3966,2.3966,2.3966,2.3966,2.3679,2.3406,2.327,2.327,2.2957,2.2727,2.2848,0.0,0.0,0.0,2.2806,0.0,2.2579,2.2472,2.2378,2.2258,2.2084,2.1687,2.0994,1.9259,1.8303,0.0,0.0,0.0,0.0,0.0,0.0,1.4708,1.4879,1.4968,1.4968,1.4968,1.4968,1.4968,1.4968,1.4968,1.4968,1.4968,1.4968,1.4968,1.4968,1.4968,1.4968,1.4968,1.4968,1.4968,1.4968,1.4968,1.4968,3.1135,3.0761,3.0538,3.0839,3.0508,3.0351,3.082,3.0898,3.0898,3.0898,3.0898,3.0898,3.0898,3.0898,3.0898,3.0898,3.0898,3.0879,3.0879,2.9648,2.8325,0.0,2.5806,2.4456,2.3106,2.3427,2.3588,2.3588,0.0,0.0,2.3106,0.0,2.3632,2.4569,2.4569,2.4744,2.5052,2.5052,2.5052,2.5052,2.5052,2.5052,2.5187,2.662,2.6234,2.5457,2.8213,2.8196,2.702,2.702,2.7932,2.8723,2.5981,2.5052,2.5052,2.5052,2.5052,2.5052,2.5052,2.4781,2.4495,2.4495,2.4224,2.3966,2.3966,2.3966,2.3966,2.3952,2.3952,2.3952,2.3952,2.3679,2.3297,2.301,0.0,0.0,0.0,2.2672,0.0,2.2859,2.2592,2.2539,2.2819,2.2325,2.2352,2.3247,2.1622,0.0,0.0,0.0,0.0,1.7067,1.7086,0.0,1.4708,1.4879,1.4968,1.4968,1.4968,1.4968,1.4968,1.4968,1.4968,1.4968,1.4968,1.4968,1.4968,1.4968,1.4968,1.4968,1.4968,1.4968,1.4968,1.4968,1.4968,1.4968,3.2251,3.1921,3.1808,3.1862,3.1552,3.1281,3.1189,3.1228,3.1112,3.0879,3.0898,3.0898,3.0898,3.0898,3.0898,3.0898,3.0898,3.0509,0.0,2.9157,2.8325,2.7021,2.6658,2.6272,2.615,2.5282,2.52,2.5665,0.0,0.0,0.0,2.4101,2.4393,2.4905,2.4905,2.4964,2.5052,2.5052,2.5052,2.5187,2.61,2.6501,2.6635,2.7932,2.8328,2.8081,2.8854,2.8854,2.8592,2.8592,2.8854,2.8854,2.702,2.6501,2.6234,2.5322,2.5052,2.5052,2.5052,2.5052,2.4916,2.4916,2.4781,2.4839,2.4919,2.4996,2.5015,2.5015,2.4861,2.4526,2.4302,2.4122,2.4024,2.3732,2.3488,0.0,2.3134,0.0,2.2792,2.2579,2.2659,2.2752,2.2859,2.2886,2.302,2.33,2.2815,0.0,0.0,0.0,0.0,0.0,1.819,0.0,1.4708,1.4879,1.4968,1.4968,1.4968,1.4968,1.4968,1.4968,1.4968,1.4968,1.4968,1.4968,1.4968,1.4968,1.4968,1.4968,1.4968,1.4968,1.4968,1.4968,1.4968,1.4968,3.2612,3.2363,3.2248,3.2133,3.1903,3.1672,3.1556,3.1325,3.1208,3.1112,3.0995,3.0898,3.0898,3.0898,0.0,3.0898,3.0898,3.0528,2.9667,2.9648,2.9057,2.7727,2.7867,2.7818,2.7552,2.6968,0.0,2.7539,2.6043,2.5333,2.5529,2.5011,2.5115,2.5846,2.5846,2.5846,2.5846,2.6368,2.6368,2.5981,2.7286,2.7932,2.8065,2.9509,2.9639,2.9378,3.0419,3.0419,3.003,3.003,3.029,3.0419,2.846,2.7932,2.7551,2.5712,2.5052,2.5081,2.5198,2.5227,2.5257,2.5388,2.5418,2.5461,2.5666,2.5731,2.5736,2.5736,2.5455,2.5242,2.5043,2.4875,2.4804,2.462,2.4164,2.3846,2.3598,0.0,2.3104,2.2779,2.2926,0.0,0.0,2.338,2.3541,0.0,2.3661,0.0,0.0,0.0,0.0,1.803,1.9799,0.0,1.5707,1.5819,1.588,1.588,1.5275,1.4968,1.4968,1.4968,1.4968,1.4968,1.4968,1.4968,1.4968,1.4968,1.4968,1.4968,1.4968,1.4968,1.4968,1.4968,1.4968,1.4968,3.2363,3.2363,3.2248,3.1903,3.1903,3.1903,3.1787,3.1556,3.1325,3.1325,3.1112,3.0898,3.0898,3.0898,3.0898,3.0898,0.0,0.0,3.0898,3.0918,3.043,2.9094,2.9481,2.9216,2.8008,2.8593,2.8845,2.8734,2.7654,2.7153,2.6886,2.5846,2.5846,2.7153,2.7153,2.7286,2.7286,2.8592,2.846,2.7419,2.8723,2.9378,2.9509,3.0936,3.0678,2.977,3.2511,3.2492,3.1451,3.1451,3.2365,3.2912,3.0195,2.943,2.8905,2.6145,2.5216,2.5154,2.5476,2.5564,2.5637,2.5944,2.6032,2.6047,2.6047,2.6061,2.6091,2.6091,2.6091,2.6076,2.6047,2.5765,2.5624,2.5596,2.5144,2.475,2.4038,2.3997,2.3732,2.3327,0.0,0.0,2.3768,2.3794,2.3915,0.0,0.0,0.0,0.0,0.0,2.2589,2.0102,2.1475,2.0714,1.755,1.755,1.7559,1.7398,1.588,1.5122,1.4968,1.4968,1.4968,1.4968,1.4968,1.4968,1.4968,1.4968,1.4968,1.4968,1.4968,1.4968,1.4968,1.4968,1.4968,1.4968,0.0,0.0,3.2612,3.2498,3.2498,3.2383,3.2248,3.1903,3.1556,3.1325,3.1112,3.0898,3.0898,3.0898,3.0898,3.0898,3.0898,3.0898,3.0898,3.1191,3.1249,3.0873,3.1277,3.1539,3.1598,3.0644,2.9334,2.7554,2.7238,2.6635,2.5577,2.6234,2.6753,2.7153,2.8196,2.8723,2.8723,2.9117,2.8986,2.8854,3.0272,3.0789,3.0936,3.2365,3.2638,3.2511,3.3165,3.3165,3.2892,3.2892,3.3146,3.3223,3.1708,3.1294,3.0751,2.782,2.6224,2.5491,2.5813,2.59,2.5915,2.6003,2.6208,2.6383,2.6383,2.6574,2.6764,2.6764,2.6764,2.6676,2.6442,2.6383,2.6168,2.5921,2.538,2.4929,2.4705,2.4414,2.4136,0.0,2.3923,2.4039,2.4075,2.4102,2.4128,0.0,0.0,2.4235,2.4302,2.4168,2.3374,2.1613,2.2073,2.1164,1.9208,1.9208,1.8613,1.7407,1.695,1.6186,1.4968,1.4968,1.4968,1.4968,1.4968,1.4968,1.4968,1.4968,1.4968,1.4968,1.4968,1.4968,1.4968,1.4968,1.4968,1.4968,3.2727,3.2727,3.2727,3.2727,3.2727,3.2612,3.2498,3.2248,3.1903,3.1556,3.1228,3.0995,3.0898,3.0898,3.0976,3.1152,3.0996,3.0976,3.1172,3.1387,3.1601,3.1816,3.2226,3.2559,3.2793,3.2199,3.1248,3.0012,2.9361,2.8706,2.7932,2.8065,2.846,2.91,2.9752,3.016,3.016,3.0807,3.0807,3.029,3.1707,3.2237,3.2365,3.3165,3.3418,3.3418,3.3418,3.3418,3.3457,3.3652,3.3711,3.3661,3.3291,3.2767,3.1993,3.0545,2.8575,2.6908,2.726,2.6788,2.6281,2.6427,2.6603,2.672,2.672,2.6866,2.6983,2.6983,2.6983,2.6939,2.6764,2.672,2.6676,2.6486,2.6052,2.5693,2.5412,2.5143,2.482,2.4537,2.4561,2.4494,2.4661,2.4542,2.4396,2.4396,2.4396,0.0,2.4396,2.4396,2.3728,2.2223,2.298,2.2521,2.0864,2.0864,2.0113,1.8461,1.7702,1.694,1.6033,1.5275,1.4968,1.4968,1.4968,1.4968,1.4968,1.4968,1.4968,1.4968,1.4968,1.4968,1.4968,1.4968,1.4968,1.4968,3.2727,3.2727,3.2727,3.2727,3.2727,3.2727,3.2727,3.2477,3.2248,3.1903,3.1556,3.1208,3.0995,3.1054,3.1133,3.1484,3.125,3.123,3.1601,3.168,3.1875,3.2246,3.2656,3.2891,3.2891,3.3242,3.3292,3.3019,3.1835,3.1194,3.0936,3.003,3.016,3.1322,3.1579,3.1579,3.1707,3.2892,3.2765,3.1707,3.2892,3.3418,3.3418,3.3418,3.3418,3.3437,3.3496,3.3516,3.3594,3.4023,3.416,3.4238,3.4668,3.3993,3.3137,3.341,3.1493,2.9119,2.9147,2.8113,2.6919,2.6925,2.6983,2.6983,2.6983,2.6983,2.6983,2.6983,2.6983,2.6983,2.6983,2.6983,2.6969,2.6925,2.6647,2.6284,2.5999,0.0,2.5427,2.5453,2.5091,2.4939,2.5065,2.4784,2.4636,2.4636,2.4636,2.4636,2.4636,2.4636,2.4031,2.267,2.3883,2.3883,2.2521,2.2521,2.1775,2.0113,1.8764,1.8006,1.7702,1.6033,1.542,1.542,1.5122,1.4968,1.4968,1.4968,1.4968,1.4968,1.4968,1.4968,1.4968,1.4968,1.4968,1.4968,3.2727,3.2727,3.2727,3.2727,3.2727,3.2727,3.2727,3.2477,3.2248,3.2248,3.1903,3.1556,3.1208,3.1544,3.1683,3.1523,3.1797,3.1992,3.207,3.2402,3.2637,3.2695,3.3105,3.332,3.332,3.3379,3.2765,3.1579,3.1451,3.0678,2.9509,3.0549,3.1047,3.1322,3.2492,3.3038,3.3038,3.3292,3.3292,3.3038,3.3292,3.3418,3.3418,3.3418,3.3418,3.3476,3.3848,3.3965,3.4043,3.4453,3.4609,3.4687,3.5137,3.514,3.5084,3.5375,3.4321,3.261,3.1405,3.0009,2.847,2.726,2.6983,2.6983,2.6983,2.6983,2.6983,2.6983,2.6983,2.6983,2.6983,2.6983,2.6896,2.6617,2.631,2.6091,2.595,0.0,2.5413,2.5296,2.5139,2.5024,2.4784,2.4636,2.4636,2.4636,2.4636,2.4636,2.4636,2.4636,2.4488,2.4193,2.4488,2.4488,2.4179,2.4179,2.3426,2.1775,2.1613,2.0714,1.9359,1.7702,1.7102,1.695,1.5573,1.4968,1.4968,1.4968,1.4968,1.4968,1.4968,1.4968,1.4968,1.4968,1.4968,1.4968,3.2727,3.2727,3.2727,3.2727,3.2727,3.2727,3.2727,3.2612,3.2498,3.2363,3.2133,3.2004,3.2013,3.1978,3.2177,3.2411,3.2505,3.2598,3.2832,3.2812,3.2891,3.3125,3.332,3.3418,3.3418,3.3418,3.3019,3.2365,3.2365,3.211,3.1469,3.211,3.2365,3.2492,3.3165,3.3418,3.3418,3.3418,3.3418,3.3418,3.3418,3.3418,3.3437,3.3691,3.3769,3.3828,3.4258,3.4414,3.4473,3.4922,3.5078,3.5156,3.5586,3.5723,3.5762,3.5957,3.4902,3.3484,3.193,3.0376,2.9107,2.8403,2.755,2.6983,2.6983,2.6983,2.6983,2.6983,2.6983,2.6983,2.6983,2.6983,2.6881,2.6559,2.6383,0.0,0.0,2.6139,2.6113,2.6142,2.6008,2.5667,2.5212,2.5079,2.4784,2.4636,2.4636,2.4636,2.4636,2.4636,2.4636,2.4636,2.4636,2.4636,2.4636,2.4636,2.4179,2.3426,2.267,2.1775,2.1014,1.9359,1.8754,1.8613,1.694,1.6339,1.6186,1.542,1.4968,1.4968,1.4968,1.4968,1.4968,1.4968,1.4968,1.4968,3.2727,3.2727,3.2727,3.2727,3.2727,3.2727,3.2727,3.2727,3.2653,3.2621,3.2526,3.2574,3.2788,3.2594,3.2795,3.3351,3.3263,3.3211,3.3524,3.3125,3.3086,3.3418,3.3418,3.3418,3.3418,3.3418,3.3418,3.3418,3.3418,3.3418,3.3418,3.3418,3.3418,3.3418,3.3418,3.3418,3.3418,3.3418,3.3418,3.3418,3.3418,3.3476,3.3613,3.3945,3.4141,3.4277,3.4707,3.4863,3.4922,3.5391,3.5547,3.5586,3.5918,3.6016,3.6016,3.6016,3.5177,3.39,3.207,3.066,2.952,2.8819,2.784,2.6983,2.6983,2.6983,2.6983,2.6983,2.6983,2.6983,2.6983,2.6983,2.6881,2.6559,0.0,0.0,0.0,2.6357,2.6474,2.6808,2.6399,2.596,2.5653,2.5373,2.4931,2.4636,2.4636,2.4636,2.4636,2.4636,2.4636,2.4636,2.4636,2.4636,2.4636,2.4636,2.4636,2.4636,2.298,2.2223,2.2073,2.0113,1.951,1.9661,1.8158,1.7407,1.7245,1.6033,1.5275,1.4968,1.4968,1.4968,1.4968,1.4968,1.4968,1.4968,3.2727,3.2727,3.2727,3.2727,3.2727,3.2727,3.2727,3.2727,3.2871,3.3265,3.3327,3.3396,3.3493,3.3922,3.4065,3.3779,3.3769,3.3882,3.3922,3.3524,3.3379,3.3418,3.3418,3.3418,3.3418,3.3418,3.3418,3.3418,3.3418,3.3418,3.3418,3.3418,3.3418,3.3418,3.3418,3.3418,3.3418,3.3418,3.3418,3.3418,3.3418,3.3672,3.4023,3.4062,3.4316,3.4707,3.5176,3.5351,3.541,3.584,3.5976,3.5976,3.6016,3.6016,3.6016,3.6016,3.5879,3.5177,3.2351,3.1367,3.066,2.784,2.7129,2.6983,2.6983,2.6983,2.6983,2.6983,2.6983,2.6983,2.6983,2.6983,2.6881,2.6559,0.0,0.0,2.65,2.6214,2.6042,2.6357,2.5814,2.5226,2.5226,2.4931,2.4636,2.4636,2.4636,2.4636,2.4636,2.4636,2.4636,2.4636,2.4636,2.4636,2.4636,2.4636,2.4636,2.4636,2.298,2.2223,2.2073,1.9057,1.8461,1.9661,1.8158,1.7407,1.7407,1.7255,1.6339,1.4968,1.4968,1.4968,1.4968,1.4968,1.4968,1.4968,3.2727,3.2727,3.2727,3.2727,3.2727,3.2727,3.2727,3.2954,3.3182,3.3348,3.3617,3.3989,3.4324,3.4288,3.4371,3.4533,3.4322,3.4173,3.3922,3.3796,3.367,3.3418,3.3418,3.3418,3.3418,3.3418,3.3418,3.3418,3.3418,3.3418,3.3418,3.3418,3.3418,3.3418,3.3418,3.3418,3.3418,3.3418,3.3418,3.3437,3.3711,3.3926,3.4141,3.4687,3.5,3.5176,3.5625,3.5781,3.5801,3.5976,3.6016,3.6016,3.6016,3.6016,3.6016,3.6016,3.6016,3.5587,3.3484,3.2927,3.2351,3.0376,2.9107,2.8114,2.7274,2.6983,2.6983,2.6983,2.6983,2.6983,2.6983,2.6983,2.6881,2.6559,0.0,2.6735,2.653,2.6532,2.6707,2.6823,2.6253,2.5814,2.5667,2.5226,2.4931,2.4636,2.4636,2.4636,2.4636,2.4636,2.4636,2.4636,2.4636,2.4636,2.4636,2.4636,2.4636,2.4636,2.4031,2.3735,2.3587,2.2372,2.2223,2.267,2.1014,1.9811,1.8754,1.7854,1.6492,1.4968,1.4968,1.4968,1.4968,1.4968,1.4968,1.4968,3.2727,3.2727,3.2727,3.2727,3.2851,3.2934,3.2934,3.3306,3.3637,3.3782,3.4093,3.4465,3.4921,3.4718,3.4718,3.5025,3.4797,3.4423,3.4047,3.3922,3.367,3.3418,3.3418,3.3418,3.3418,3.3418,3.3418,3.3418,3.3418,3.3418,3.3418,3.3418,3.3418,3.3418,3.3418,3.3418,3.3418,3.3418,3.3496,3.3652,3.3945,3.4238,3.4551,3.5156,3.5469,3.5625,3.5918,3.6016,3.6016,3.6016,3.6016,3.6016,3.6016,3.6016,3.6016,3.6016,3.6016,3.5743,3.4765,3.4471,3.4057,3.193,3.0376,2.8963,2.7985,2.7274,2.6983,2.6983,2.6983,2.6983,2.6983,2.6983,2.691,2.6691,2.6852,2.691,2.6691,2.6852,2.6983,2.6983,2.6692,2.6239,2.58,2.5373,2.5079,2.4636,2.4636,2.4636,2.4636,2.4636,2.4636,2.4636,2.4636,2.4636,2.4636,2.4636,2.4636,2.4636,2.4031,2.3883,2.3883,2.3277,2.3426,2.3735,2.267,2.1613,2.0414,1.9359,1.7996,1.6483,1.6483,1.6483,1.6483,1.6483,1.6483,1.6483,3.2727,3.2727,3.2727,3.2727,3.3099,3.3368,3.3389,3.3782,3.4238,3.4693,3.4755,3.4941,3.5376,3.5418,3.5418,3.5418,3.5046,3.4797,3.4423,3.3796,3.3418,3.3418,3.3418,3.3418,3.3418,3.3418,3.3418,3.3418,3.3418,3.3418,3.3418,3.3418,3.3418,3.3418,3.3418,3.3418,3.3418,3.3418,3.3672,3.4082,3.4082,3.4609,3.5391,3.5391,3.5664,3.6016,3.6016,3.6016,3.6016,3.6016,3.6016,3.6016,3.6016,3.6016,3.6016,3.6016,3.6016,3.6016,3.6016,3.6016,3.5314,3.2211,3.0376,2.925,2.925,2.8114,2.6983,2.6983,2.6983,2.6983,2.6983,2.6983,2.6983,2.6983,2.6983,2.6983,2.6983,2.6983,2.6983,2.6983,2.6692,2.6239,2.58,2.5373,2.5079,2.4636,2.4636,2.4636,2.4636,2.4636,2.4636,2.4636,2.4636,2.4636,2.4636,2.4636,2.4636,2.4636,2.298,2.2223,2.2223,2.0564,2.0714,2.2223,2.2223,2.2223,2.2223,2.2223,2.1314,1.9811,1.9811,1.9811,1.9811,1.9811,1.9811,1.9811,3.2727,3.2727,3.283,3.3141,3.3285,3.3492,3.3803,3.4258,3.461,3.4734,3.5024,3.5273,3.5418,3.5418,3.5418,3.5418,3.5294,3.5046,3.4423,3.4047,3.367,3.3418,3.3418,3.3418,3.3418,3.3418,3.3418,3.3418,3.3418,3.3418,3.3418,3.3418,3.3418,3.3418,3.3418,3.3418,3.3437,3.375,3.3945,3.4121,3.4746,3.5156,3.543,3.5723,3.5918,3.6016,3.6016,3.6016,3.6016,3.6016,3.6016,3.6016,3.6016,3.6016,3.6016,3.6016,3.6016,3.6016,3.6016,3.6016,3.5587,3.3623,3.277,3.1789,2.9663,2.8819,2.8259,2.7274,2.6983,2.6983,2.6983,2.6983,2.6983,2.6983,2.6983,2.6983,2.6983,2.6983,2.6983,2.6983,2.6692,2.6399,2.6239,2.5667,2.5092,2.5079,2.4784,2.4636,2.4636,2.4636,2.4636,2.4636,2.4636,2.4636,2.4636,2.4636,2.4636,2.4636,2.4179,2.3883,2.3883,2.3426,2.3426,2.3883,2.3883,2.3277,2.2223,2.2223,2.1314,1.9811,1.9811,1.9811,1.9811,1.9811,1.9811,1.9811,3.2727,3.2871,3.3078,3.3327,3.3679,3.401,3.43,3.4734,3.5024,3.5024,3.5252,3.5418,3.5418,3.5418,3.5418,3.5418,3.5294,3.5046,3.4673,3.4173,3.3796,3.3544,3.3418,3.3418,3.3418,3.3418,3.3418,3.3418,3.3418,3.3418,3.3418,3.3418,3.3418,3.3418,3.3418,3.3516,3.3691,3.3965,3.4277,3.4648,3.5176,3.5488,3.5664,3.5918,3.6016,3.6016,3.6016,3.6016,3.6016,3.6016,3.6016,3.6016,3.6016,3.6016,3.6016,3.6016,3.6016,3.6016,3.6016,3.6016,3.5743,3.4883,3.4195,3.3345,3.1508,3.0091,2.8963,2.8114,2.742,2.6983,2.6983,2.6983,2.6983,2.6983,2.6983,2.6983,2.6983,2.6983,2.6983,2.6983,2.6838,2.6546,2.6385,2.596,2.552,2.5226,2.4784,2.4636,2.4636,2.4636,2.4636,2.4636,2.4636,2.4636,2.4636,2.4636,2.4636,2.4636,2.4636,2.4636,2.4636,2.4636,2.4636,2.4636,2.4636,2.4031,2.3129,2.3129,2.2521,2.1775,2.1775,2.1775,2.1775,2.1775,2.1775,2.1775,3.2789,3.3099,3.341,3.3492,3.4196,3.4776,3.4817,3.5169,3.5418,3.5418,3.5418,3.5418,3.5418,3.5418,3.5418,3.5418,3.517,3.4922,3.4922,3.4298,3.3922,3.3922,3.3544,3.3418,3.3418,3.3418,3.3418,3.3418,3.3418,3.3418,3.3418,3.3418,3.3418,3.3418,3.3457,3.3691,3.4082,3.416,3.4648,3.5391,3.543,3.5684,3.6016,3.6016,3.6016,3.6016,3.6016,3.6016,3.6016,3.6016,3.6016,3.6016,3.6016,3.6016,3.6016,3.6016,3.6016,3.6016,3.6016,3.6016,3.6016,3.6016,3.504,3.3918,3.3762,3.1508,2.9377,2.925,2.797,2.6983,2.6983,2.6983,2.6983,2.6983,2.6983,2.6983,2.6983,2.6983,2.6983,2.6983,2.6983,2.6838,2.6546,2.6385,2.596,2.5226,2.4784,2.4636,2.4636,2.4636,2.4636,2.4636,2.4636,2.4636,2.4636,2.4636,2.4636,2.4636,2.4636,2.4636,2.4636,2.4636,2.4636,2.4636,2.4636,2.4636,2.4636,2.4636,2.4636,2.4636,2.4636,2.4636,2.4636,2.4636,2.4636,2.4636,3.3161,3.3306,3.3596,3.4341,3.4631,3.4879,3.5231,3.5355,3.5418,3.5418,3.5418,3.5418,3.5418,3.5418,3.5418,3.5418,3.5294,3.517,3.4922,3.4548,3.4173,3.3922,3.3544,3.3418,3.3418,3.3418,3.3418,3.3418,3.3418,3.3418,3.3418,3.3418,3.3418,3.3437,3.3769,3.3984,3.4121,3.4805,3.5215,3.543,3.5742,3.5937,3.6016,3.6016,3.6016,3.6016,3.6016,3.6016,3.6016,3.6016,3.6016,3.6016,3.6016,3.6016,3.6016,3.6016,3.6016,3.6016,3.6016,3.6016,3.6016,3.6016,3.5743,3.5177,3.4057,3.2351,3.066,2.9377,2.797,2.6983,2.6983,2.6983,2.6983,2.6983,2.6983,2.6983,2.6983,2.6983,2.6983,2.6983,2.6983,2.6983,2.6838,2.6239,2.5653,2.4784,2.4636,2.4636,2.4636,2.4636,2.4636,2.4636,2.4636,2.4636,2.4636,2.4636,2.4636,2.4636,2.4636,2.4636,2.4636,2.4636,2.4636,2.4636,2.4636,2.4636,2.4636,2.4636,2.4636,2.4636,2.4636,2.4636,2.4636,2.4636,2.4636,2.4636,3.4116,3.419,3.4196,3.4672,3.4941,3.5148,3.5376,3.5418,3.5418,3.5418,3.5418,3.5418,3.5418,3.5418,3.5418,3.5418,3.5418,3.5294,3.517,3.4797,3.4548,3.4173,3.3796,3.3544,3.3418,3.3418,3.3418,3.3418,3.3418,3.3418,3.3418,3.3418,3.3535,3.375,3.3965,3.4316,3.4726,3.5195,3.5508,3.5703,3.5937,3.6016,3.6016,3.6016,3.6016,3.6016,3.6016,3.6016,3.6016,3.6016,3.6016,3.6016,3.6016,3.6016,3.6016,3.6016,3.6016,3.6016,3.6016,3.6016,3.6016,3.6016,3.6016,3.5587,3.4195,3.263,3.1084,2.952,2.797,2.6983,2.6983,2.6983,2.6983,2.6983,2.6983,2.6983,2.6983,2.6983,2.6983,2.6983,2.6983,2.6983,2.6692,2.6093,2.5506,2.4931,2.4784,2.4636,2.4636,2.4636,2.4636,2.4636,2.4636,2.4636,2.4636,2.4636,2.4636,2.4636,2.4636,2.4636,2.4636,2.4636,2.4636,2.4636,2.4636,2.4636,2.4636,2.4636,2.4636,2.4636,2.4636,2.4636,2.4636,2.4636,2.4636,2.4636,3.5386,3.5264,3.5018,3.498,3.5169,3.5418,3.5418,3.5418,3.5418,3.5418,3.5418,3.5418,3.5418,3.5418,3.5418,3.5418,3.5418,3.5418,3.5418,3.5046,3.4797,3.4548,3.4173,3.3796,3.3544,3.3418,3.3418,3.3418,3.3418,3.3418,3.3418,3.3496,3.373,3.4082,3.4238,3.4707,3.5391,3.5469,3.5703,3.6016,3.6016,3.6016,3.6016,3.6016,3.6016,3.6016,3.6016,3.6016,3.6016,3.6016,3.6016,3.6016,3.6016,3.6016,3.6016,3.6016,3.6016,3.6016,3.6016,3.6016,3.6016,3.6016,3.6016,3.5587,3.4195,3.263,3.1084,2.9806,2.8259,2.6983,2.6983,2.6983,2.6983,2.6983,2.6983,2.6983,2.6983,2.6983,2.6983,2.6983,2.6983,2.6838,2.6399,2.6093,2.5653,2.5226,2.4931,2.4636,2.4636,2.4636,2.4636,2.4636,2.4636,2.4636,2.4636,2.4636,2.4636,2.4636,2.4636,2.4636,2.4636,2.4636,2.4636,2.4636,2.4636,2.4636,2.4636,2.4636,2.4636,2.4636,2.4636,2.4636,2.4636,2.4636,2.4636,2.4636,3.6494,3.6404,3.6166,3.5375,3.5376,3.5418,3.5418,3.5418,3.5418,3.5418,3.5418,3.5418,3.5418,3.5418,3.5418,3.5418,3.5418,3.5418,3.5418,3.5046,3.4922,3.4797,3.4173,3.3922,3.3796,3.3544,3.3418,3.3418,3.3418,3.3418,3.3437,3.3809,3.4023,3.4101,3.4863,3.5273,3.541,3.5781,3.5976,3.6016,3.6016,3.6016,3.6016,3.6016,3.6016,3.6016,3.6016,3.6016,3.6016,3.6016,3.6016,3.6016,3.6016,3.6016,3.6016,3.6016,3.6016,3.6016,3.6016,3.6016,3.6016,3.6016,3.6016,3.5587,3.4195,3.263,3.1508,3.1226,2.8963,2.6983,2.6983,2.6983,2.6983,2.6983,2.6983,2.6983,2.6983,2.6983,2.6983,2.6983,2.6983,2.6838,2.6399,2.6399,2.596,2.5239,2.5092,2.4931,2.4636,2.4636,2.4636,2.4636,2.4636,2.4636,2.4636,2.4636,2.4636,2.4636,2.4636,2.4636,2.4636,2.4636,2.4636,2.4636,2.4636,2.4636,2.4636,2.4636,2.4636,2.4636,2.4636,2.4636,2.4636,2.4636,2.4636,2.4636,3.7811,3.7281,3.6587,3.5623,3.5418,3.5418,3.5418,3.5418,3.5418,3.5418,3.5418,3.5418,3.5418,3.5418,3.5418,3.5418,3.5418,3.5418,3.5418,3.5294,3.5046,3.4922,3.4673,3.4298,3.3922,3.3796,3.3544,3.3418,3.3418,3.3535,3.3789,3.3984,3.4336,3.4824,3.5215,3.5527,3.5762,3.5937,3.6016,3.6016,3.6016,3.6016,3.6016,3.6016,3.6016,3.6016,3.6016,3.6016,3.6016,3.6016,3.6016,3.6016,3.6016,3.6016,3.6016,3.6016,3.6016,3.6016,3.6016,3.6016,3.6016,3.6016,3.6016,3.5879,3.5177,3.39,3.2351,3.0518,2.9107,2.797,2.7129,2.6983,2.6983,2.6983,2.6983,2.6983,2.6983,2.6983,2.6983,2.6983,2.6983,2.6838,2.6399,2.6399,2.6093,2.552,2.5506,2.5506,2.5212,2.5079,2.4931,2.4931,2.4784,2.4636,2.4636,2.4636,2.4636,2.4636,2.4636,2.4636,2.4636,2.4636,2.4636,2.4636,2.4636,2.4636,2.4636,2.4636,2.4636,2.4636,2.4636,2.4636,2.4636,2.4636,2.4636,2.4636]}]]